Date StartTime U_cm/s V_cm/s W_cm/s Ustd_cm/s Vstd_cm/s Wstd_cm/s Uvar_(cm/s)^2 Vvar_(cm/s)^2 Wvar_(cm/s)^2 KE_(m/s)^2 TurbulentKE_(m/s)^2 HorizWindSpeed_cm/s FrictionSpeec_cm/s DragCoef SpeedOfSound_m/s SonicTemperature_C Pressure_mb 
10/22/2014  00:00:00      -99.022      -55.151       10.992       59.670       43.556       28.878     3560.517     1897.158      833.911        0.963        0.315      113.344       26.869        0.056      336.640        8.079      862.402
10/22/2014  00:01:00     -107.953      -61.392        4.269       52.842       40.301       25.622     2792.308     1624.198      656.466        1.026        0.254      124.189       23.055        0.034      336.584        7.984      862.414
10/22/2014  00:02:00     -102.831      -36.654        6.610       49.932       25.536       21.134     2493.184      652.103      446.640        0.778        0.180      109.169       18.520        0.029      336.521        7.879      862.423
10/22/2014  00:03:00      -93.874      -35.231        1.392       44.670       37.116       24.198     1995.411     1377.587      585.558        0.701        0.198      100.267       26.011        0.067      336.527        7.889      862.428
10/22/2014  00:04:00      -83.328      -62.758       -2.395       42.242       30.945       22.984     1784.374      957.571      528.271        0.708        0.164      104.318       25.586        0.060      336.515        7.867      862.443
10/22/2014  00:05:00      -53.577      -54.224        0.934       46.064       29.623       26.179     2121.915      877.539      685.331        0.475        0.184       76.228       26.235        0.118      336.556        7.937      862.466
10/22/2014  00:06:00      -50.137      -39.252       -3.578       38.199       31.934       16.897     1459.144     1019.758      285.510        0.342        0.138       63.674       14.463        0.052      336.584        7.985      862.478
10/22/2014  00:07:00      -84.300       -5.265      -11.626       24.134       26.843       15.448      582.447      720.524      238.640        0.441        0.077       84.464        8.279        0.010      336.458        7.772      862.479
10/22/2014  00:08:00      -81.993       -4.101        0.680       34.591       22.104       18.052     1196.567      488.601      325.892        0.438        0.101       82.095       20.370        0.062      336.299        7.507      862.469
10/22/2014  00:09:00      -85.916      -13.245       -1.752       18.706       16.021       11.340      349.896      256.657      128.601        0.415        0.037       86.931        5.664        0.004      336.334        7.567      862.446
10/22/2014  00:10:00      -63.442      -15.999       -1.844       26.211       21.108       13.877      687.035      445.536      192.558        0.280        0.066       65.428        9.184        0.020      336.292        7.495      862.440
10/22/2014  00:11:00      -88.552      -23.901       -2.236       30.556       18.302       13.644      933.686      334.971      186.169        0.494        0.073       91.721       12.580        0.019      336.291        7.494      862.448
10/22/2014  00:12:00     -110.822      -24.772       -5.834       19.425       15.812       13.206      377.345      250.027      174.411        0.687        0.040      113.557       10.081        0.008      336.291        7.494      862.449
10/22/2014  00:13:00     -112.187      -37.989       -4.172       19.170       12.952       11.053      367.508      167.758      122.174        0.735        0.033      118.445       10.657        0.008      336.305        7.517      862.445
10/22/2014  00:14:00      -92.191      -44.229        0.221       24.159       19.763       12.870      583.656      390.590      165.636        0.580        0.057      102.252        8.784        0.007      336.406        7.686      862.448
10/22/2014  00:15:00      -88.726      -35.473       -1.926       26.453       21.366       13.312      699.744      456.488      177.213        0.523        0.067       95.554        4.862        0.003      336.425        7.718      862.438
10/22/2014  00:16:00      -69.362      -37.905        2.342       34.618       25.835       17.257     1198.439      667.445      297.791        0.421        0.108       79.044       16.677        0.045      336.431        7.728      862.425
10/22/2014  00:17:00      -77.764      -36.400        1.294       40.211       27.372       18.659     1616.915      749.247      348.151        0.504        0.136       85.862       21.448        0.062      336.363        7.614      862.412
10/22/2014  00:18:00      -93.897      -27.871       -0.798       20.988       21.446       15.876      440.495      459.938      252.061        0.537        0.058       97.946       12.643        0.017      336.342        7.581      862.389
10/22/2014  00:19:00      -78.782      -36.437       -0.874       17.002       14.012       12.065      289.075      196.345      145.570        0.408        0.032       86.800        7.798        0.008      336.416        7.704      862.381
10/22/2014  00:20:00      -80.644      -41.152       -4.175       16.492       18.108        8.464      271.999      327.901       71.639        0.444        0.034       90.537        6.033        0.004      336.409        7.692      862.387
10/22/2014  00:21:00      -93.693      -38.867       -1.989       17.883       14.868        9.586      319.807      221.052       91.888        0.546        0.032      101.435        7.563        0.006      336.377        7.637      862.401
10/22/2014  00:22:00      -79.332      -31.089       -4.779       19.653       19.397       13.799      386.230      376.255      190.411        0.412        0.048       85.207        6.595        0.006      336.390        7.660      862.425
10/22/2014  00:23:00      -97.685      -28.916       -5.698       22.775       15.595       12.703      518.708      243.198      161.359        0.567        0.046      101.875       10.337        0.010      336.361        7.611      862.441
10/22/2014  00:24:00     -114.739       -5.794       -9.452       25.347       19.353       18.441      642.491      374.545      340.080        0.732        0.068      114.885       14.180        0.015      336.245        7.417      862.461
10/22/2014  00:25:00     -126.031      -11.208       -9.154       30.228       23.970       17.239      913.745      574.550      297.189        0.894        0.089      126.529       18.909        0.022      336.196        7.335      862.474
10/22/2014  00:26:00     -120.691       -9.354       -5.859       27.846       24.073       23.696      775.424      579.508      561.523        0.830        0.096      121.053       21.033        0.030      336.121        7.209      862.485
10/22/2014  00:27:00      -89.905      -12.718        0.379       39.651       18.010       18.389     1572.222      324.359      338.148        0.524        0.112       90.800       20.259        0.050      336.148        7.254      862.482
10/22/2014  00:28:00     -111.188      -11.768       -6.267       24.868       21.781       15.048      618.422      474.396      226.449        0.693        0.066      111.809       14.167        0.016      336.224        7.383      862.475
10/22/2014  00:29:00      -98.743      -14.485       -0.479       41.526       25.128       22.237     1724.393      631.432      494.480        0.640        0.143       99.799       19.481        0.038      336.233        7.397      862.489
10/22/2014  00:30:00      -95.253      -16.115       -1.198       39.467       25.996       24.160     1557.647      675.811      583.686        0.608        0.141       96.607       21.251        0.048      336.252        7.428      862.516
10/22/2014  00:31:00     -102.030      -34.637       -3.322       38.301       21.057       20.841     1466.953      443.403      434.345        0.698        0.117      107.749       21.680        0.040      336.197        7.337      862.520
10/22/2014  00:32:00      -94.443      -12.119       -6.648       41.764       28.706       17.617     1744.219      824.053      310.359        0.599        0.144       95.217       19.984        0.044      336.114        7.198      862.530
10/22/2014  00:33:00     -115.634      -22.900       -7.933       35.875       26.194       23.077     1287.022      686.117      532.548        0.823        0.125      117.880       24.214        0.042      336.098        7.172      862.553
10/22/2014  00:34:00      -67.786      -11.179        3.070       42.260       33.004       22.072     1785.869     1089.252      487.188        0.405        0.168       68.701       20.842        0.092      336.076        7.134      862.588
10/22/2014  00:35:00     -108.916        4.963       -4.129       53.055       36.195       23.268     2814.782     1310.107      541.418        0.828        0.233      109.029       21.781        0.040      336.129        7.222      862.615
10/22/2014  00:36:00      -97.505      -14.859       -2.023       43.009       28.205       23.672     1849.753      795.526      560.365        0.647        0.160       98.631       24.593        0.062      336.080        7.140      862.623
10/22/2014  00:37:00      -92.849       -8.006       -5.431       37.068       43.770       23.408     1374.034     1915.798      547.952        0.628        0.192       93.194       18.688        0.040      336.144        7.249      862.609
10/22/2014  00:38:00     -107.573      -25.291       -5.084       56.353       34.598       29.145     3175.634     1197.033      849.422        0.873        0.261      110.506       30.200        0.075      336.068        7.122      862.601
10/22/2014  00:39:00     -104.480      -12.691       -0.788       46.063       29.535       22.486     2121.815      872.292      505.626        0.729        0.175      105.248       24.073        0.052      336.049        7.088      862.609
10/22/2014  00:40:00      -77.861       -6.655        0.343       42.356       29.461       24.003     1794.038      867.971      576.151        0.467        0.162       78.145       25.057        0.103      336.104        7.181      862.597
10/22/2014  00:41:00      -31.464      -19.359       -0.319       28.936       25.225       15.419      837.302      636.312      237.751        0.154        0.086       36.942       15.780        0.182      336.097        7.169      862.593
10/22/2014  00:42:00       -5.068        4.581        5.746       14.043       10.742       10.145      197.207      115.389      102.930        0.025        0.021        6.832        7.205        1.112      336.097        7.170      862.603
10/22/2014  00:43:00      -76.245      -32.951       -3.292       31.694       21.054       11.087     1004.502      443.271      122.919        0.424        0.079       83.061       12.977        0.024      336.182        7.311      862.609
10/22/2014  00:44:00      -96.752      -18.289        0.143       26.709       28.855       17.624      713.378      832.617      310.622        0.578        0.093       98.465       15.876        0.026      336.111        7.193      862.599
10/22/2014  00:45:00     -104.805      -22.598       -5.880       32.466       25.150       17.992     1054.067      632.537      323.702        0.677        0.101      107.214       18.374        0.029      336.127        7.219      862.585
10/22/2014  00:46:00     -111.628      -28.424      -14.008       21.728       19.728       17.118      472.094      389.188      293.023        0.731        0.058      115.190       12.838        0.012      336.139        7.239      862.573
10/22/2014  00:47:00      -99.885       -8.556       -6.193       32.644       22.805       17.242     1065.663      520.054      297.286        0.599        0.094      100.251       16.057        0.026      336.132        7.227      862.556
10/22/2014  00:48:00      -81.115      -21.136       -0.280       24.210       24.645       14.921      586.134      607.400      222.649        0.422        0.071       83.824       11.102        0.018      336.143        7.247      862.526
10/22/2014  00:49:00     -126.753      -36.185      -10.511       21.717       18.759       12.610      471.634      351.898      159.000        0.923        0.049      131.817        9.023        0.005      336.095        7.167      862.520
10/22/2014  00:50:00      -93.149      -38.762       -7.054       24.474       27.114       17.626      598.962      735.186      310.685        0.594        0.082      100.892       11.054        0.012      336.074        7.131      862.504
10/22/2014  00:51:00      -31.752      -40.043        9.286       35.266       18.642       15.299     1243.668      347.520      234.061        0.226        0.091       51.104       16.964        0.110      336.170        7.293      862.472
10/22/2014  00:52:00      -59.806      -34.591       -0.080       28.333       13.647       14.269      802.771      186.253      203.603        0.298        0.060       69.089       13.011        0.035      336.171        7.295      862.441
10/22/2014  00:53:00      -14.343      -41.254        3.932       18.405       21.131       12.011      338.736      446.517      144.254        0.143        0.046       43.677        9.390        0.046      336.322        7.546      862.425
10/22/2014  00:54:00       -6.572      -43.117       -4.048       14.004       24.425       13.532      196.120      596.572      183.117        0.145        0.049       43.615        9.949        0.052      336.443        7.749      862.422
10/22/2014  00:55:00      -39.654       -9.346       -1.698       15.692       11.027        9.063      246.242      121.584       82.137        0.106        0.022       40.740        9.390        0.053      336.414        7.700      862.427
10/22/2014  00:56:00      -64.205      -16.801       -6.526       25.156       11.034        8.081      632.810      121.754       65.303        0.263        0.041       66.367        9.717        0.021      336.382        7.646      862.433
10/22/2014  00:57:00      -74.109      -46.868       -0.463       32.140       24.175       19.561     1032.999      584.416      382.619        0.484        0.100       87.685       14.335        0.027      336.318        7.538      862.444
10/22/2014  00:58:00      -77.170      -74.163       -8.977       49.206       39.578       26.723     2421.192     1566.380      714.102        0.812        0.235      107.029       29.317        0.075      336.230        7.392      862.430
10/22/2014  00:59:00      -88.103      -64.459        1.810       30.206       28.398       16.881      912.392      806.469      284.976        0.696        0.100      109.166       10.784        0.010      336.229        7.390      862.412
10/22/2014  01:00:00     -115.914      -62.552       -9.692       28.954       22.103       16.180      838.309      488.550      261.793        0.952        0.079      131.715       13.418        0.010      336.206        7.350      862.395
10/22/2014  01:01:00     -113.663      -58.553      -11.203       30.723       19.179       17.311      943.919      367.852      299.683        0.904        0.081      127.858       10.833        0.007      336.176        7.301      862.402
10/22/2014  01:02:00     -135.418      -42.446      -16.946       15.262       11.257       11.688      232.916      126.727      136.621        1.046        0.025      141.915        7.787        0.003      336.114        7.197      862.421
10/22/2014  01:03:00     -126.588      -39.600       -4.304       26.893       24.748       14.357      723.229      612.439      206.111        0.958        0.077      132.637       12.494        0.009      336.091        7.158      862.429
10/22/2014  01:04:00     -107.959      -31.706       -4.742       26.915       34.386       18.060      724.412     1182.396      326.163        0.746        0.112      112.518       14.219        0.016      336.070        7.125      862.444
10/22/2014  01:05:00     -118.006      -41.164       -3.865       34.249       27.797       18.678     1172.981      772.656      348.874        0.896        0.115      124.979       16.990        0.018      336.047        7.085      862.449
10/22/2014  01:06:00     -131.626      -27.006       -4.114       31.892       39.463       19.292     1017.118     1557.343      372.176        1.051        0.147      134.368       19.266        0.021      336.016        7.034      862.469
10/22/2014  01:07:00     -124.854      -28.222        2.773       27.521       31.469       19.934      757.419      990.329      397.382        0.927        0.107      128.004       15.033        0.014      336.030        7.058      862.468
10/22/2014  01:08:00     -119.426      -41.694       -6.419       35.364       27.753       17.101     1250.648      770.236      292.444        0.918        0.116      126.495       15.477        0.015      336.047        7.087      862.465
10/22/2014  01:09:00     -124.203      -51.048      -10.650       31.071       22.860       18.209      965.424      522.602      331.577        0.998        0.091      134.284       16.633        0.015      336.034        7.064      862.468
10/22/2014  01:10:00      -98.709      -47.552       -5.414       33.844       26.429       20.177     1145.393      698.495      407.108        0.714        0.113      109.565       18.910        0.030      336.027        7.054      862.487
10/22/2014  01:11:00     -129.639      -17.200       -7.060       26.202       23.900       18.789      686.570      571.187      353.032        0.938        0.081      130.775       14.164        0.012      335.983        6.979      862.497
10/22/2014  01:12:00     -102.959      -38.950        3.022       34.118       19.426       17.899     1164.067      377.356      320.379        0.699        0.093      110.080       18.154        0.027      335.952        6.929      862.508
10/22/2014  01:13:00      -99.171      -30.679        2.590       35.681       33.582       19.220     1273.111     1127.750      369.394        0.678        0.139      103.808       16.649        0.026      335.888        6.822      862.518
10/22/2014  01:14:00     -100.248      -46.934        4.567       42.974       27.856       21.164     1846.735      775.934      447.918        0.767        0.154      110.691       22.582        0.042      335.857        6.770      862.526
10/22/2014  01:15:00      -84.033      -45.343       -0.125       35.441       26.694       18.779     1256.060      712.576      352.665        0.572        0.116       95.486       15.116        0.025      335.825        6.717      862.538
10/22/2014  01:16:00      -71.266      -19.227       -4.693       24.225       25.326       13.850      586.857      641.401      191.831        0.345        0.071       73.814        8.221        0.012      335.835        6.734      862.535
10/22/2014  01:17:00      -37.087      -11.072        0.755       16.836       11.750        8.357      283.464      138.065       69.837        0.099        0.025       38.704        9.047        0.055      335.932        6.893      862.511
10/22/2014  01:18:00      -56.521        3.370       -6.771       13.402       12.472       12.430      179.615      155.541      154.509        0.187        0.024       56.621        8.811        0.024      335.942        6.912      862.491
10/22/2014  01:19:00      -54.629       -7.482       -7.362       13.196       13.302        9.568      174.129      176.940       91.540        0.177        0.022       55.139        4.443        0.006      335.984        6.982      862.487
10/22/2014  01:20:00      -44.335       -5.926       -7.899       17.029       12.735        8.020      289.992      162.186       64.328        0.129        0.026       44.730        6.275        0.020      335.937        6.902      862.493
10/22/2014  01:21:00      -11.027       -9.080       -4.804        8.383        9.311        6.951       70.280       86.688       48.316        0.022        0.010       14.284        3.976        0.077      335.914        6.866      862.487
10/22/2014  01:22:00      -47.001       -3.254       -7.697       20.397        9.289        7.823      416.043       86.294       61.194        0.142        0.028       47.113       10.363        0.048      335.885        6.815      862.465
10/22/2014  01:23:00      -55.435       -2.006       -6.216        8.070       12.893       10.943       65.127      166.229      119.760        0.173        0.018       55.471        4.118        0.006      335.920        6.874      862.451
10/22/2014  01:24:00      -48.441       -2.921       -1.474       18.659       13.158       10.028      348.158      173.132      100.567        0.149        0.031       48.529        7.662        0.025      335.928        6.888      862.443
10/22/2014  01:25:00      -68.044      -16.856      -10.234        8.917       11.818       10.084       79.505      139.670      101.677        0.267        0.016       70.101        4.379        0.004      335.884        6.815      862.451
10/22/2014  01:26:00      -67.107      -13.850      -12.315       10.525       10.932       10.169      110.769      119.519      103.400        0.259        0.017       68.521        6.687        0.010      335.882        6.813      862.464
10/22/2014  01:27:00      -77.721      -13.768      -12.574       10.268       10.467        9.148      105.437      109.555       83.689        0.334        0.015       78.931        5.088        0.004      335.871        6.793      862.491
10/22/2014  01:28:00      -84.515      -22.774      -13.878       12.482       11.538        7.217      155.808      133.120       52.082        0.410        0.017       87.529        1.992        0.001      335.833        6.731      862.517
10/22/2014  01:29:00      -98.381      -19.739      -17.578       10.884       12.371       11.914      118.457      153.036      141.941        0.540        0.021      100.342        7.751        0.006      335.768        6.625      862.528
10/22/2014  01:30:00     -106.886      -10.987      -13.343       16.598       17.361       14.467      275.498      301.416      209.283        0.625        0.039      107.449       10.810        0.010      335.774        6.633      862.527
10/22/2014  01:31:00      -92.068      -22.257       -7.094       27.196       14.199       11.665      739.626      201.616      136.063        0.505        0.054       94.720       11.113        0.014      335.792        6.660      862.529
10/22/2014  01:32:00     -112.351      -37.638       -8.978       19.181       14.558       11.308      367.914      211.945      127.875        0.741        0.035      118.488       10.171        0.007      335.807        6.687      862.538
10/22/2014  01:33:00     -112.062      -30.046       -8.108       19.054       14.730       12.822      363.049      216.959      164.411        0.714        0.037      116.020        7.826        0.005      335.804        6.683      862.550
10/22/2014  01:34:00     -101.727      -27.483       -4.336       28.053       16.698       15.049      786.954      278.812      226.481        0.621        0.065      105.374       16.521        0.025      335.833        6.730      862.559
10/22/2014  01:35:00      -82.503      -16.515       -3.811       33.734       19.302       16.641     1137.972      372.577      276.925        0.444        0.089       84.140       17.653        0.044      335.778        6.639      862.565
10/22/2014  01:36:00      -83.919      -32.209        2.368       21.653       17.770       15.265      468.833      315.760      233.018        0.455        0.051       89.888       12.802        0.020      335.836        6.735      862.566
10/22/2014  01:37:00      -85.444      -32.722       -3.226       31.576       16.633       14.228      997.070      276.670      202.435        0.493        0.074       91.496       14.089        0.024      335.785        6.651      862.567
10/22/2014  01:38:00     -119.008      -29.340       -2.061       36.753       24.546       17.316     1350.806      602.507      299.838        0.864        0.113      122.571       18.567        0.023      335.770        6.625      862.571
10/22/2014  01:39:00     -110.719      -32.951       -1.575       35.103       27.181       20.206     1232.192      738.830      408.279        0.786        0.119      115.518       21.740        0.035      335.759        6.607      862.575
10/22/2014  01:40:00      -99.468      -26.540       -0.809       29.052       20.830       16.198      844.013      433.890      262.390        0.607        0.077      102.948       15.005        0.021      335.723        6.548      862.566
10/22/2014  01:41:00     -100.014      -35.868       -2.829       24.804       23.382       16.765      615.230      546.700      281.080        0.637        0.072      106.251       14.528        0.019      335.691        6.494      862.568
10/22/2014  01:42:00     -114.035      -45.701       -1.400       29.891       24.925       19.311      893.470      621.244      372.907        0.849        0.094      122.852       14.907        0.015      335.675        6.468      862.578
10/22/2014  01:43:00     -135.885      -63.990       -5.737       31.335       26.097       19.357      981.860      681.078      374.694        1.231        0.102      150.198       15.851        0.011      335.659        6.439      862.592
10/22/2014  01:44:00     -145.107      -58.334       -7.353       20.787       25.500       14.901      432.080      650.248      222.025        1.291        0.065      156.393       11.401        0.005      335.694        6.500      862.596
10/22/2014  01:45:00     -162.887      -51.772       -3.581       24.210       25.459       16.698      586.144      648.178      278.836        1.537        0.076      170.917       11.492        0.005      335.663        6.447      862.579
10/22/2014  01:46:00     -128.739      -53.162       -3.143       30.119       27.209       16.036      907.153      740.347      257.164        1.066        0.095      139.284       16.651        0.014      335.686        6.486      862.564
10/22/2014  01:47:00     -115.936      -58.824       -3.393       18.958       22.280       13.904      359.389      496.413      193.324        0.898        0.052      130.006       11.175        0.007      335.724        6.550      862.545
10/22/2014  01:48:00     -110.348      -51.742       -2.466       24.465       16.137       13.884      598.532      260.406      192.752        0.796        0.053      121.877       14.526        0.014      335.696        6.503      862.533
10/22/2014  01:49:00     -120.627      -41.423       -6.690       22.922       20.814       11.830      525.435      433.219      139.943        0.870        0.055      127.542       12.105        0.009      335.707        6.520      862.525
10/22/2014  01:50:00      -97.065      -24.197       -6.557       33.850       21.655       17.374     1145.792      468.918      301.859        0.598        0.096      100.035       16.919        0.029      335.656        6.437      862.520
10/22/2014  01:51:00     -103.051      -26.624       -1.085       32.552       22.119       19.549     1059.608      489.267      382.145        0.663        0.097      106.435       17.474        0.027      335.579        6.306      862.519
10/22/2014  01:52:00     -112.234      -36.596       -6.654       25.983       17.243       14.213      675.126      297.332      202.010        0.758        0.059      118.050       12.481        0.011      335.558        6.271      862.536
10/22/2014  01:53:00     -112.517      -34.520      -12.108       14.885       19.340       11.840      221.565      374.051      140.179        0.737        0.037      117.694        4.871        0.002      335.569        6.290      862.542
10/22/2014  01:54:00      -99.539      -41.124      -13.450       18.541       16.960       10.138      343.758      287.651      102.787        0.626        0.037      107.699        7.003        0.004      335.547        6.253      862.538
10/22/2014  01:55:00     -107.716      -10.304       -9.869       28.345       17.582       17.027      803.461      309.135      289.934        0.660        0.070      108.208       13.813        0.016      335.583        6.315      862.550
10/22/2014  01:56:00     -111.618        2.137       -1.741       57.239       26.755       19.460     3276.270      715.805      378.706        0.842        0.219      111.639       23.877        0.046      335.590        6.327      862.560
10/22/2014  01:57:00     -119.956       -2.381      -12.348       27.910       29.861       18.312      778.994      891.654      335.343        0.828        0.100      119.980        9.424        0.006      335.558        6.273      862.558
10/22/2014  01:58:00     -133.580       -5.930      -15.993       32.507       36.872       19.357     1056.712     1359.562      374.697        1.046        0.140      133.711       15.195        0.013      335.611        6.360      862.579
10/22/2014  01:59:00     -126.033      -48.960       -2.298       36.090       32.781       21.588     1302.493     1074.581      466.062        1.056        0.142      135.208       13.409        0.010      335.605        6.350      862.599
10/22/2014  02:00:00     -160.551      -34.058      -15.058       42.500       36.681       25.334     1806.276     1345.469      641.804        1.548        0.190      164.124       21.451        0.017      335.522        6.212      862.609
10/22/2014  02:01:00     -156.739      -11.441      -13.974       48.445       36.469       26.124     2346.961     1329.959      682.476        1.463        0.218      157.156       27.745        0.031      335.459        6.106      862.619
10/22/2014  02:02:00     -145.988      -24.203      -10.812       30.099       22.956       15.965      905.931      526.961      254.893        1.185        0.084      147.981       15.754        0.011      335.492        6.162      862.617
10/22/2014  02:03:00     -135.724      -18.692       -8.450       37.362       32.760       21.665     1395.884     1073.209      469.385        1.089        0.147      137.005       21.506        0.025      335.487        6.154      862.603
10/22/2014  02:04:00     -149.762       -3.268      -18.034       26.635       28.621       16.884      709.405      819.161      285.082        1.229        0.091      149.797       14.446        0.009      335.533        6.230      862.579
10/22/2014  02:05:00     -105.244       -2.805       -4.001       36.552       23.305       18.244     1336.057      543.145      332.832        0.666        0.111      105.282       18.390        0.031      335.469        6.124      862.565
10/22/2014  02:06:00     -100.153       -5.682       -6.358       32.616       23.091       16.947     1063.782      533.213      287.199        0.599        0.094      100.314       16.777        0.028      335.476        6.135      862.571
10/22/2014  02:07:00      -99.631      -22.523       -9.203       18.676       27.804       13.506      348.811      773.053      182.410        0.591        0.065      102.145        9.755        0.009      335.560        6.275      862.575
10/22/2014  02:08:00      -80.124      -20.992       -1.258       22.863       19.307       14.654      522.722      372.747      214.746        0.399        0.056       82.828       10.859        0.017      335.568        6.287      862.581
10/22/2014  02:09:00      -83.872      -42.711       -5.046       24.822       30.136       15.637      616.112      908.162      244.529        0.533        0.088       94.121       15.447        0.027      335.693        6.499      862.612
10/22/2014  02:10:00      -70.388      -51.335       -2.240       28.344       17.943       14.480      803.368      321.936      209.678        0.446        0.067       87.119       14.192        0.027      335.680        6.474      862.637
10/22/2014  02:11:00     -106.026      -24.245       -8.632       15.849       11.279       10.982      251.196      127.212      120.603        0.620        0.025      108.763        7.548        0.005      335.745        6.585      862.656
10/22/2014  02:12:00      -99.782      -23.750       -9.848       15.128       17.201       10.338      228.870      295.884      106.880        0.562        0.032      102.569        9.629        0.009      335.710        6.525      862.681
10/22/2014  02:13:00      -77.874      -41.612       -2.167       14.568       19.416       10.373      212.218      376.968      107.605        0.425        0.035       88.294        7.842        0.008      335.739        6.576      862.693
10/22/2014  02:14:00      -50.274      -73.938        2.596       42.013       37.525       20.416     1765.132     1408.157      416.810        0.580        0.180       89.411       21.772        0.059      335.747        6.588      862.710
10/22/2014  02:15:00      -92.587      -90.979       -8.602       23.413       31.662       19.608      548.188     1002.491      384.458        0.943        0.097      129.806       16.557        0.016      335.669        6.458      862.730
10/22/2014  02:16:00     -104.739      -55.537       -2.183       44.740       24.783       20.829     2001.661      614.196      433.840        0.855        0.152      118.552       24.338        0.042      335.648        6.422      862.735
10/22/2014  02:17:00      -94.691      -42.767        2.902       53.003       27.085       23.826     2809.324      733.577      567.671        0.746        0.206      103.901       27.046        0.068      335.579        6.306      862.727
10/22/2014  02:18:00      -69.242      -71.150        1.334       49.761       39.914       23.376     2476.135     1593.122      546.455        0.724        0.231       99.281       28.743        0.084      335.571        6.294      862.720
10/22/2014  02:19:00     -105.551      -63.114       -1.378       32.810       33.403       22.609     1076.478     1115.782      511.151        0.891        0.135      122.981       16.467        0.018      335.583        6.315      862.724
10/22/2014  02:20:00     -103.491      -59.341       -5.158       31.637       28.223       18.109     1000.870      796.540      327.925        0.819        0.106      119.297       11.079        0.009      335.591        6.327      862.730
10/22/2014  02:21:00      -57.148      -37.285        2.781       32.642       22.232       14.501     1065.504      494.271      210.292        0.322        0.089       68.235       12.664        0.034      335.564        6.282      862.737
10/22/2014  02:22:00      -28.390      -31.025        7.800       33.309       23.152       15.531     1109.476      535.995      241.213        0.186        0.094       42.054       16.393        0.152      335.589        6.323      862.742
10/22/2014  02:23:00      -24.845      -23.522       -4.620       15.467       14.887        9.603      239.224      221.625       92.220        0.087        0.028       34.213        8.838        0.067      335.654        6.433      862.751
10/22/2014  02:24:00      -29.134       -8.620       -1.458       11.394       10.559        9.248      129.826      111.490       85.520        0.063        0.016       30.383        5.582        0.034      335.609        6.358      862.740
10/22/2014  02:25:00      -25.853       -6.424       -7.620        9.465        5.887        7.984       89.589       34.657       63.751        0.048        0.009       26.639        5.629        0.045      335.719        6.543      862.728
10/22/2014  02:26:00      -75.247      -27.180       -6.065       11.605       11.314       10.302      134.685      128.007      106.131        0.340        0.018       80.005        4.193        0.003      335.725        6.551      862.722
10/22/2014  02:27:00      -85.780      -43.104      -15.464       17.143       12.018        8.244      293.873      144.441       67.971        0.498        0.025       96.001        4.756        0.002      335.683        6.479      862.727
10/22/2014  02:28:00      -99.043      -59.977       -6.205       19.501       16.960       12.567      380.273      287.651      157.919        0.714        0.041      115.788        9.882        0.007      335.578        6.306      862.734
10/22/2014  02:29:00      -95.112      -57.326       -5.431       19.969       23.027       19.555      398.779      530.254      382.390        0.684        0.066      111.052       13.584        0.015      335.591        6.328      862.737
10/22/2014  02:30:00     -116.168      -61.780       -6.516       19.305       14.138       12.204      372.689      199.873      148.938        0.904        0.036      131.574        7.033        0.003      335.561        6.275      862.741
10/22/2014  02:31:00      -90.271      -55.157       -8.917       19.497       20.927       12.510      380.142      437.925      156.500        0.612        0.049      105.788        9.022        0.007      335.550        6.258      862.748
10/22/2014  02:32:00      -67.150      -47.615       -1.822       33.675       20.593       13.615     1133.995      424.065      185.364        0.426        0.087       82.318       12.233        0.022      335.559        6.273      862.754
10/22/2014  02:33:00      -97.844      -57.215       -2.351       23.912       19.992       19.199      571.760      399.693      368.604        0.710        0.067      113.345       14.574        0.017      335.492        6.161      862.753
10/22/2014  02:34:00     -129.722      -38.393      -10.856       19.566       13.177       11.020      382.847      173.623      121.444        0.955        0.034      135.284        8.724        0.004      335.532        6.229      862.743
10/22/2014  02:35:00     -133.931      -49.402       -8.107       18.359       16.960       10.797      337.063      287.637      116.581        1.059        0.037      142.752        5.616        0.002      335.570        6.293      862.733
10/22/2014  02:36:00     -121.817      -38.091       -7.538       16.611       21.495       11.685      275.940      462.047      136.535        0.861        0.044      127.634        8.838        0.005      335.554        6.266      862.729
10/22/2014  02:37:00      -92.637      -43.330        0.547       24.500       21.732       13.736      600.233      472.263      188.667        0.586        0.063      102.270        9.401        0.008      335.501        6.177      862.728
10/22/2014  02:38:00     -109.337      -20.007      -14.732       16.181       14.865       11.243      261.821      220.980      126.398        0.659        0.030      111.153        6.993        0.004      335.516        6.201      862.730
10/22/2014  02:39:00      -83.844      -24.828       -0.070       25.642       19.967       17.897      657.490      398.691      320.304        0.451        0.069       87.443       13.581        0.024      335.465        6.116      862.737
10/22/2014  02:40:00      -96.957      -63.482       -3.920       36.111       25.810       16.929     1304.030      666.169      286.588        0.785        0.113      115.891       16.179        0.019      335.442        6.079      862.730
10/22/2014  02:41:00      -83.375      -50.758       -0.724       32.866       22.379       18.525     1080.182      500.811      343.189        0.573        0.096       97.610       18.375        0.035      335.404        6.014      862.730
10/22/2014  02:42:00     -122.524      -50.358       -0.945       32.314       27.058       17.825     1044.166      732.122      317.714        0.982        0.105      132.469       15.841        0.014      335.434        6.065      862.729
10/22/2014  02:43:00     -108.949      -39.682       -1.147       29.636       24.345       15.708      878.289      592.672      246.743        0.758        0.086      115.951       12.684        0.012      335.411        6.026      862.734
10/22/2014  02:44:00      -92.682      -31.153       -5.473       31.658       22.575       16.712     1002.256      509.652      279.295        0.569        0.090       97.777       16.005        0.027      335.418        6.038      862.740
10/22/2014  02:45:00      -97.638      -54.359       -6.449       21.900       23.998       16.254      479.605      575.891      264.185        0.692        0.066      111.750        5.363        0.002      335.431        6.061      862.744
10/22/2014  02:46:00      -75.810      -60.645       -0.709       28.672       31.703       17.058      822.096     1005.074      290.976        0.577        0.106       97.083       15.187        0.024      335.455        6.098      862.737
10/22/2014  02:47:00      -80.451      -77.542       -5.612       33.717       28.446       17.386     1136.847      809.186      302.286        0.738        0.112      111.737       17.640        0.025      335.502        6.179      862.723
10/22/2014  02:48:00      -73.733      -65.387        3.972       40.185       44.437       21.999     1614.799     1974.613      483.973        0.690        0.204       98.550       22.550        0.052      335.481        6.143      862.713
10/22/2014  02:49:00     -111.553      -98.856      -13.032       44.337       34.961       23.566     1965.776     1222.264      555.339        1.306        0.187      149.052       15.442        0.011      335.476        6.135      862.706
10/22/2014  02:50:00      -88.032      -74.331       -2.069       33.222       32.703       26.447     1103.697     1069.493      699.427        0.808        0.144      115.216       22.547        0.038      335.422        6.044      862.689
10/22/2014  02:51:00      -51.682      -66.872        4.481       41.109       36.735       22.415     1689.974     1349.488      502.443        0.535        0.177       84.516       19.492        0.053      335.525        6.216      862.678
10/22/2014  02:52:00      -81.371      -87.958       -6.440       45.043       38.599       19.720     2028.912     1489.900      388.897        0.915        0.195      119.824       18.979        0.025      335.457        6.104      862.660
10/22/2014  02:53:00     -102.766      -94.612       -6.940       35.599       29.687       17.975     1267.292      881.318      323.088        1.102        0.124      139.686       15.208        0.012      335.466        6.119      862.642
10/22/2014  02:54:00      -85.334      -97.938       -3.116       48.847       35.003       26.387     2386.039     1225.243      696.287        1.059        0.215      129.899       25.867        0.040      335.492        6.161      862.616
10/22/2014  02:55:00     -145.663      -98.355       -4.988       56.176       48.827       27.845     3155.704     2384.032      775.362        1.861        0.316      175.760       31.624        0.032      335.504        6.179      862.598
10/22/2014  02:56:00      -84.515      -67.087        9.297       59.888       43.777       26.722     3586.585     1916.403      714.042        0.897        0.311      107.905       30.327        0.079      335.493        6.164      862.587
10/22/2014  02:57:00     -110.775     -100.651       -8.600       26.584       32.557       22.158      706.695     1059.947      490.966        1.237        0.113      149.672       16.958        0.013      335.474        6.131      862.588
10/22/2014  02:58:00     -145.643      -62.425       -1.241       34.105       32.095       21.048     1163.141     1030.104      443.035        1.387        0.132      158.457       22.476        0.020      335.500        6.176      862.590
10/22/2014  02:59:00     -117.303      -69.105        2.295       45.710       32.054       22.171     2089.374     1027.489      491.535        1.107        0.180      136.145       23.267        0.029      335.496        6.169      862.589
10/22/2014  03:00:00     -138.141      -50.787      -12.654       24.112       20.141       19.012      581.377      405.676      361.439        1.159        0.067      147.181       15.719        0.011      335.516        6.203      862.599
10/22/2014  03:01:00     -143.426      -29.517       -9.610       27.662       18.204       16.108      765.209      331.382      259.467        1.145        0.068      146.432       13.469        0.008      335.502        6.179      862.629
10/22/2014  03:02:00     -137.117      -49.326       -6.821       29.887       31.800       18.469      893.209     1011.256      341.108        1.176        0.112      145.720       15.913        0.012      335.432        6.062      862.659
10/22/2014  03:03:00     -147.989      -46.101        0.748       38.445       26.724       20.456     1478.019      714.183      418.443        1.332        0.131      155.003       21.156        0.019      335.510        6.192      862.685
10/22/2014  03:04:00     -124.294      -53.450        2.469       45.005       30.281       20.394     2025.408      916.929      415.931        1.083        0.168      135.299       19.207        0.020      335.556        6.270      862.705
10/22/2014  03:05:00     -150.972      -36.579      -11.680       18.259       22.258       12.271      333.374      495.403      150.585        1.262        0.049      155.340        8.832        0.003      335.546        6.252      862.719
10/22/2014  03:06:00     -103.905      -32.939        3.991       47.644       35.003       22.108     2269.965     1225.214      488.749        0.794        0.199      109.001       27.239        0.062      335.462        6.113      862.742
10/22/2014  03:07:00     -111.446      -42.601       -5.357       26.848       18.351       13.852      720.799      336.767      191.882        0.776        0.062      119.311       13.257        0.012      335.456        6.101      862.769
10/22/2014  03:08:00      -96.413      -25.249       -7.749       21.975       26.112       18.560      482.907      681.826      344.483        0.575        0.075       99.664       15.899        0.025      335.425        6.049      862.786
10/22/2014  03:09:00      -52.050       -6.719       -3.948       27.497       22.067       15.607      756.105      486.966      243.571        0.213        0.074       52.482       14.273        0.074      335.358        5.939      862.807
10/22/2014  03:10:00     -105.451       12.174      -13.311       24.766       13.965       15.903      613.359      195.029      252.919        0.625        0.053      106.151       15.524        0.021      335.337        5.903      862.812
10/22/2014  03:11:00      -99.948       -5.200      -19.005       15.673       20.208       10.426      245.639      408.354      108.704        0.557        0.038      100.083        5.948        0.004      335.294        5.832      862.822
10/22/2014  03:12:00     -108.491      -44.767       -6.168       25.713       20.819       17.521      661.141      433.440      306.986        0.761        0.070      117.364       12.437        0.011      335.279        5.806      862.790
10/22/2014  03:13:00     -129.705      -54.115      -13.628       17.770       18.332       15.945      315.771      336.074      254.252        1.042        0.045      140.541       11.948        0.007      335.162        5.610      862.769
10/22/2014  03:14:00      -59.889      -50.455       -1.484       43.741       21.996       15.335     1913.272      483.810      235.155        0.438        0.132       78.309       17.772        0.052      335.193        5.664      862.754
10/22/2014  03:15:00      -12.942      -19.593        6.583       30.400       20.775       14.595      924.134      431.595      213.023        0.108        0.078       23.481       12.928        0.303      335.243        5.746      862.742
10/22/2014  03:16:00      -63.261      -37.749       -2.780       26.992       26.413       13.610      728.593      697.624      185.230        0.352        0.081       73.668       16.759        0.052      335.190        5.657      862.741
10/22/2014  03:17:00      -78.389      -27.845       -3.589       10.647       13.280       10.606      113.357      176.348      112.481        0.367        0.020       83.188        7.129        0.007      335.235        5.733      862.735
10/22/2014  03:18:00      -88.279      -16.518      -11.641       12.741       10.248        6.797      162.342      105.024       46.204        0.426        0.016       89.811        6.687        0.006      335.224        5.713      862.715
10/22/2014  03:19:00      -73.769      -25.631       -7.814       13.882       12.950        9.707      192.703      167.697       94.230        0.331        0.023       78.095        3.649        0.002      335.295        5.832      862.712
10/22/2014  03:20:00      -77.109      -46.296      -11.223       23.598       22.205       14.556      556.868      493.044      211.879        0.474        0.063       89.939        8.203        0.008      335.359        5.940      862.715
10/22/2014  03:21:00      -68.268      -32.805       -6.463       33.166       14.575       10.818     1099.984      212.418      117.040        0.360        0.071       75.741        6.949        0.008      335.353        5.929      862.734
10/22/2014  03:22:00      -62.734      -36.377       -2.070       20.327       17.101       14.134      413.168      292.437      199.765        0.308        0.045       72.518       11.368        0.025      335.354        5.930      862.761
10/22/2014  03:23:00      -70.796      -43.655       -8.180       18.350       13.995        9.729      336.721      195.853       94.647        0.381        0.031       83.174        8.251        0.010      335.402        6.011      862.767
10/22/2014  03:24:00      -81.837      -33.243       -5.134       15.173       11.889       10.833      230.224      141.355      117.362        0.416        0.024       88.331        8.829        0.010      335.417        6.035      862.775
10/22/2014  03:25:00      -85.494      -39.470       -1.166       28.523       16.969       12.850      813.547      287.948      165.114        0.507        0.063       94.165       10.308        0.012      335.390        5.992      862.773
10/22/2014  03:26:00      -73.930      -38.343       -8.279       23.575       16.890       13.717      555.804      285.281      188.161        0.402        0.051       83.281       12.369        0.022      335.405        6.016      862.779
10/22/2014  03:27:00      -72.447      -53.050      -10.715       37.153       23.331       16.946     1380.329      544.354      287.180        0.519        0.111       89.794       17.613        0.038      335.415        6.032      862.782
10/22/2014  03:28:00      -64.863      -45.411        0.609       30.144       22.038       12.347      908.677      485.692      152.438        0.391        0.077       79.180        7.151        0.008      335.410        6.024      862.780
10/22/2014  03:29:00      -45.112      -31.600       -0.447       37.503       24.514       14.239     1406.451      600.921      202.750        0.262        0.111       55.079       17.715        0.103      335.404        6.014      862.783
10/22/2014  03:30:00      -60.447      -50.766        2.665       33.874       33.569       21.745     1147.465     1126.893      472.827        0.449        0.137       78.937       17.586        0.050      335.377        5.971      862.774
10/22/2014  03:31:00      -42.345      -56.634        0.435       25.631       25.047       18.590      656.926      627.358      345.573        0.332        0.081       70.715       13.371        0.036      335.451        6.094      862.770
10/22/2014  03:32:00      -34.687      -49.449        2.167       33.199       26.978       16.655     1102.147      727.824      277.398        0.288        0.105       60.402       15.140        0.063      335.463        6.112      862.774
10/22/2014  03:33:00      -44.023      -42.860        4.473       18.312       22.912       16.422      335.324      524.947      269.688        0.246        0.056       61.441        9.850        0.026      335.429        6.057      862.775
10/22/2014  03:34:00      -66.047      -35.704       -0.408       31.251       15.361       16.452      976.602      235.967      270.672        0.356        0.074       75.080       13.700        0.033      335.373        5.962      862.776
10/22/2014  03:35:00     -105.275      -43.915       -7.713       14.222       13.329        9.618      202.261      177.674       92.514        0.677        0.024      114.067        2.996        0.001      335.338        5.905      862.782
10/22/2014  03:36:00      -78.589      -22.697       -2.891       16.930       12.797       12.401      286.621      163.766      153.794        0.365        0.030       81.801       10.766        0.017      335.302        5.844      862.780
10/22/2014  03:37:00      -66.064      -32.662       -4.300       15.423       12.574        9.510      237.865      158.107       90.448        0.297        0.024       73.697        7.369        0.010      335.265        5.784      862.776
10/22/2014  03:38:00      -54.455      -30.284        0.573       15.216       13.354        9.733      231.536      178.319       94.732        0.219        0.025       62.310        8.847        0.020      335.306        5.851      862.764
10/22/2014  03:39:00      -36.351      -30.798        0.427       20.596       10.957        8.394      424.179      120.065       70.463        0.144        0.031       47.644        4.112        0.007      335.353        5.929      862.741
10/22/2014  03:40:00      -39.818      -27.988       -5.428       16.553       16.335       11.938      274.012      266.847      142.521        0.154        0.034       48.671       10.563        0.047      335.330        5.891      862.720
10/22/2014  03:41:00      -72.016      -27.404       -8.677       17.659       14.716       10.023      311.847      216.569      100.460        0.332        0.031       77.054        6.908        0.008      335.365        5.950      862.714
10/22/2014  03:42:00      -87.298      -41.337       -0.348       16.901       19.321       13.653      285.637      373.302      186.407        0.509        0.042       96.590       10.210        0.011      335.339        5.906      862.702
10/22/2014  03:43:00      -65.792      -36.721       -5.668       19.606       15.029       14.280      384.383      225.861      203.904        0.326        0.041       75.346        9.432        0.016      335.340        5.906      862.694
10/22/2014  03:44:00      -58.903      -18.774       -8.523       13.405       11.139        7.642      179.698      124.079       58.405        0.213        0.018       61.823        3.801        0.004      335.262        5.778      862.682
10/22/2014  03:45:00      -51.095       -5.848       -4.131        8.463       13.537        6.969       71.616      183.247       48.570        0.148        0.015       51.429        2.658        0.003      335.296        5.834      862.672
10/22/2014  03:46:00      -53.755       -3.282       -8.489        8.423       12.038        7.026       70.950      144.918       49.363        0.162        0.013       53.855        4.495        0.007      335.295        5.832      862.685
10/22/2014  03:47:00      -67.916      -21.801       -8.707       11.966       11.843       10.219      143.189      140.265      104.427        0.278        0.019       71.329        5.053        0.005      335.310        5.858      862.700
10/22/2014  03:48:00      -65.891      -25.278       -8.468       11.546       17.621        9.703      133.321      310.507       94.146        0.280        0.027       70.574        5.526        0.006      335.306        5.850      862.720
10/22/2014  03:49:00      -77.536       -2.989       -8.163       16.900        9.911       10.809      285.599       98.232      116.838        0.329        0.025       77.593        8.792        0.013      335.188        5.657      862.735
10/22/2014  03:50:00      -48.539      -11.203       -1.284       22.963       17.982       14.777      527.315      323.352      218.348        0.178        0.053       49.815       15.142        0.092      335.165        5.617      862.743
10/22/2014  03:51:00      -38.643       -7.792       -5.203       18.365       16.410        9.455      337.272      269.279       89.406        0.114        0.035       39.421        8.003        0.041      335.150        5.592      862.748
10/22/2014  03:52:00      -36.141      -22.713       -6.806        7.307        7.803        6.002       53.397       60.886       36.028        0.101        0.008       42.685        3.119        0.005      335.134        5.566      862.752
10/22/2014  03:53:00      -17.849      -17.315        0.445       19.245       11.994       11.749      370.383      143.845      138.028        0.064        0.033       24.867       12.785        0.264      335.197        5.672      862.749
10/22/2014  03:54:00      -18.155      -14.641        3.405       16.003        7.563        9.467      256.082       57.194       89.619        0.048        0.020       23.323        9.507        0.166      335.243        5.746      862.745
10/22/2014  03:55:00      -35.741      -12.943       -4.337       14.525       13.484        9.936      210.980      181.813       98.718        0.098        0.025       38.013        4.835        0.016      335.236        5.735      862.751
10/22/2014  03:56:00      -38.661      -12.532       -4.231       12.106       11.578        8.623      146.554      134.044       74.360        0.101        0.018       40.641        5.612        0.019      335.205        5.683      862.760
10/22/2014  03:57:00      -33.298      -14.606       -0.907       15.068       15.201       12.909      227.046      231.071      166.648        0.097        0.031       36.360       10.503        0.083      335.169        5.624      862.766
10/22/2014  03:58:00      -31.644      -15.596       -7.547        9.440        9.579        9.353       89.119       91.761       87.480        0.078        0.013       35.279        4.689        0.018      335.131        5.562      862.762
10/22/2014  03:59:00      -27.464      -13.127       -3.530       16.655       12.820        8.745      277.397      164.347       76.474        0.073        0.026       30.440        9.897        0.106      335.176        5.635      862.753
10/22/2014  04:00:00      -42.454      -17.193       -5.531        8.539        6.604        7.762       72.918       43.616       60.248        0.115        0.009       45.804        3.001        0.004      335.085        5.486      862.749
10/22/2014  04:01:00      -35.353      -16.371        3.001       10.635       10.257        8.503      113.097      105.209       72.299        0.091        0.015       38.959        3.949        0.010      335.163        5.614      862.739
10/22/2014  04:02:00      -34.275      -14.178       -1.703       10.482        8.979        9.233      109.866       80.620       85.242        0.083        0.014       37.092        5.333        0.021      335.134        5.568      862.735
10/22/2014  04:03:00      -41.141       -8.587       -3.185        6.134        8.949        5.265       37.627       80.087       27.720        0.096        0.007       42.028        3.264        0.006      335.106        5.521      862.731
10/22/2014  04:04:00      -47.579      -16.872       -1.510       13.830       11.174        8.385      191.268      124.868       70.315        0.147        0.019       50.482        5.406        0.011      335.128        5.556      862.721
10/22/2014  04:05:00      -58.481      -21.140       -5.721        9.912        6.460        6.615       98.238       41.729       43.764        0.204        0.009       62.185        3.315        0.003      335.134        5.567      862.735
10/22/2014  04:06:00      -69.477      -20.703       -8.754       11.126        7.711        8.916      123.785       59.464       79.501        0.280        0.013       72.496        5.882        0.007      335.140        5.576      862.755
10/22/2014  04:07:00      -74.194      -26.066       -6.387        7.003        7.845        5.677       49.044       61.542       32.225        0.318        0.007       78.639        2.565        0.001      335.151        5.594      862.773
10/22/2014  04:08:00      -72.691      -27.083       -8.880        8.970        9.262        7.177       80.458       85.791       51.516        0.316        0.011       77.572        4.440        0.003      335.160        5.609      862.796
10/22/2014  04:09:00      -64.978      -18.526       -7.538       14.092       12.398        9.714      198.571      153.706       94.363        0.253        0.022       67.567        7.661        0.013      335.173        5.630      862.812
10/22/2014  04:10:00      -64.506      -23.630       -4.676       14.367       14.291       11.524      206.410      204.227      132.808        0.264        0.027       68.698        9.414        0.019      335.171        5.627      862.819
10/22/2014  04:11:00      -78.684      -20.924       -7.423       12.248       11.224        9.391      150.012      125.984       88.188        0.352        0.018       81.419        5.431        0.004      335.143        5.582      862.833
10/22/2014  04:12:00      -68.737      -13.988       -8.886        9.270       12.550        7.815       85.931      157.493       61.076        0.265        0.015       70.146        3.268        0.002      335.134        5.567      862.848
10/22/2014  04:13:00      -65.591      -19.841       -7.035       14.380       15.826        8.900      206.783      250.475       79.210        0.264        0.027       68.526        5.574        0.007      335.132        5.562      862.851
10/22/2014  04:14:00      -65.670       -8.830       -6.698       14.030        9.401        8.390      196.854       88.382       70.399        0.240        0.018       66.261        2.073        0.001      335.123        5.548      862.849
10/22/2014  04:15:00      -39.303       -3.998       -5.407       19.174        8.303        8.273      367.624       68.939       68.450        0.105        0.025       39.506        8.290        0.044      335.124        5.550      862.855
10/22/2014  04:16:00      -25.237        1.893       -5.459       13.066        8.702        7.525      170.723       75.719       56.633        0.049        0.015       25.308        8.245        0.106      335.075        5.469      862.856
10/22/2014  04:17:00      -29.549       13.055       -8.772        7.352       12.091        6.039       54.056      146.181       36.471        0.068        0.012       32.304        4.818        0.022      335.112        5.530      862.856
10/22/2014  04:18:00      -35.528        7.868       -5.849        9.144        9.898        7.199       83.620       97.978       51.824        0.080        0.012       36.389        7.389        0.041      335.159        5.607      862.865
10/22/2014  04:19:00      -40.215       -5.282       -3.245       13.742       10.214        8.255      188.855      104.323       68.139        0.101        0.018       40.561        7.363        0.033      335.179        5.640      862.866
10/22/2014  04:20:00      -61.661       -9.178       -8.283       15.000       12.935        8.396      224.999      167.314       70.495        0.221        0.023       62.341        6.534        0.011      335.116        5.536      862.867
10/22/2014  04:21:00      -49.816       -8.270      -10.225       11.612       10.366       10.127      134.830      107.459      102.562        0.150        0.017       50.498        6.627        0.017      335.073        5.467      862.867
10/22/2014  04:22:00      -47.545       -7.580       -8.708       10.383       10.602        8.204      107.804      112.392       67.309        0.134        0.014       48.145        4.594        0.009      335.160        5.609      862.856
10/22/2014  04:23:00      -28.177      -11.687       -2.282        8.166        7.466        7.806       66.681       55.746       60.937        0.056        0.009       30.505        3.884        0.016      335.170        5.626      862.851
10/22/2014  04:24:00      -37.254      -11.514       -5.933        8.629        6.712        5.528       74.453       45.053       30.561        0.085        0.008       38.992        3.850        0.010      335.227        5.720      862.856
10/22/2014  04:25:00      -43.307       -6.108       -3.074       10.441       10.492        8.837      109.024      110.076       78.088        0.111        0.015       43.736        3.073        0.005      335.221        5.710      862.856
10/22/2014  04:26:00      -49.072      -21.987        1.212       18.327       13.393       11.717      335.879      179.362      137.298        0.177        0.033       53.772        8.744        0.026      335.155        5.600      862.859
10/22/2014  04:27:00      -66.702      -22.227       -6.116       12.018       11.981       10.468      144.437      143.552      109.589        0.269        0.020       70.308        5.948        0.007      335.085        5.486      862.853
10/22/2014  04:28:00      -55.829      -16.083       -3.128        6.463       10.654        5.413       41.773      113.497       29.297        0.178        0.009       58.099        2.783        0.002      335.130        5.560      862.842
10/22/2014  04:29:00      -41.806       -7.706       -5.233       11.517        9.583        9.078      132.640       91.840       82.414        0.107        0.015       42.510        6.581        0.024      335.155        5.601      862.830
10/22/2014  04:30:00      -49.993      -18.279      -10.669        9.104        9.024        6.208       82.878       81.435       38.536        0.158        0.010       53.230        4.003        0.006      335.183        5.646      862.810
10/22/2014  04:31:00      -57.036      -24.262       -5.812       11.838       10.806        9.090      140.149      116.764       82.627        0.211        0.017       61.982        3.110        0.003      335.178        5.638      862.798
10/22/2014  04:32:00      -54.118      -14.848        0.040       14.443       11.399       10.208      208.598      129.948      104.202        0.180        0.022       56.118        9.113        0.026      335.131        5.562      862.789
10/22/2014  04:33:00      -40.100       -8.080        0.643       16.864        8.770        6.944      284.383       76.914       48.221        0.104        0.020       40.906        8.368        0.042      335.083        5.483      862.776
10/22/2014  04:34:00      -45.678      -15.391       -1.721       10.767       11.077        7.089      115.926      122.693       50.259        0.131        0.014       48.201        5.389        0.013      335.164        5.616      862.767
10/22/2014  04:35:00      -44.666      -15.376       -6.096       20.162       10.810        8.650      406.497      116.858       74.819        0.143        0.030       47.239        5.280        0.012      335.114        5.534      862.768
10/22/2014  04:36:00      -59.606      -14.434       -8.200        8.019       10.050        8.600       64.302      101.009       73.960        0.203        0.012       61.329        4.460        0.005      335.102        5.515      862.779
10/22/2014  04:37:00      -57.229      -19.485       -7.171        9.104        9.154        6.658       82.887       83.793       44.335        0.196        0.011       60.455        4.558        0.006      335.086        5.488      862.778
10/22/2014  04:38:00      -52.425      -11.017       -7.389       13.076       12.049        9.298      170.993      145.175       86.450        0.166        0.020       53.570        6.771        0.016      335.066        5.455      862.778
10/22/2014  04:39:00      -47.744      -22.491       -9.863       16.365       14.668        8.656      267.821      215.154       74.924        0.172        0.028       52.776        2.883        0.003      335.065        5.453      862.764
10/22/2014  04:40:00      -60.116      -18.578       -5.247       19.481       12.354       10.860      379.500      152.615      117.929        0.232        0.033       62.921        5.613        0.008      335.014        5.368      862.763
10/22/2014  04:41:00      -73.396      -33.199      -10.285       13.650       12.394       12.212      186.315      153.604      149.132        0.354        0.024       80.555        6.123        0.006      334.970        5.294      862.755
10/22/2014  04:42:00      -38.095      -37.925        0.465       37.908       24.485       12.671     1437.041      599.501      160.554        0.254        0.110       53.754       16.237        0.091      335.045        5.419      862.753
10/22/2014  04:43:00      -33.630      -33.428        1.611       46.643       33.017       14.918     2175.575     1090.143      222.533        0.287        0.174       47.417       21.380        0.203      335.058        5.439      862.738
10/22/2014  04:44:00      -62.024      -53.781       -1.790       30.755       25.274       16.164      945.877      638.792      261.280        0.429        0.092       82.094       15.522        0.036      335.126        5.554      862.731
10/22/2014  04:45:00      -99.012      -51.340       -1.106       43.221       27.866       16.433     1868.041      776.503      270.046        0.768        0.146      111.531       17.793        0.025      335.055        5.436      862.733
10/22/2014  04:46:00      -45.015      -38.190        6.780       47.685       32.362       20.815     2273.895     1047.308      433.257        0.364        0.188       59.032       24.655        0.174      334.997        5.340      862.732
10/22/2014  04:47:00     -111.699      -42.761       -5.906       26.955       26.987       18.479      726.567      728.286      341.490        0.807        0.090      119.604       16.753        0.020      334.953        5.266      862.742
10/22/2014  04:48:00     -114.790       -4.582       -3.302       31.153       18.177       19.486      970.497      330.407      379.706        0.744        0.084      114.881       18.781        0.027      334.743        4.916      862.743
10/22/2014  04:49:00     -113.104      -14.300      -10.860       23.527       16.147       16.340      553.500      260.719      266.982        0.710        0.054      114.005       10.745        0.009      334.714        4.869      862.751
10/22/2014  04:50:00      -92.031      -18.041       -1.286       28.979       21.265       16.049      839.775      452.209      257.558        0.517        0.077       93.783       12.280        0.017      334.640        4.747      862.771
10/22/2014  04:51:00     -105.259      -24.454        1.578       36.823       23.196       18.293     1355.959      538.057      334.639        0.695        0.111      108.063       19.020        0.031      334.625        4.720      862.804
10/22/2014  04:52:00     -128.981      -21.760       -6.868       38.191       29.275       20.613     1458.520      857.041      424.908        0.995        0.137      130.803       16.147        0.015      334.657        4.775      862.833
10/22/2014  04:53:00     -131.365      -34.302       -1.234       38.684       33.972       18.173     1496.426     1154.115      330.260        1.071        0.149      135.769       15.375        0.013      334.656        4.773      862.857
10/22/2014  04:54:00     -158.793      -73.034       -7.171       28.225       32.428       20.886      796.666     1051.545      436.219        1.644        0.114      174.783       13.221        0.006      334.669        4.795      862.875
10/22/2014  04:55:00     -115.828      -55.189       -6.247       55.519       31.473       26.123     3082.390      990.521      682.431        1.063        0.238      128.304       27.611        0.046      334.674        4.803      862.895
10/22/2014  04:56:00     -143.372      -56.910       -7.339       29.995       27.329       18.647      899.712      746.896      347.695        1.292        0.100      154.254       12.155        0.006      334.743        4.917      862.911
10/22/2014  04:57:00      -83.239      -56.468       -0.985       31.583       31.813       22.597      997.508     1012.040      510.611        0.632        0.126      100.585       18.529        0.034      334.712        4.865      862.917
10/22/2014  04:58:00      -90.935      -53.123       -7.970       19.829       19.302       16.955      393.201      372.580      287.477        0.610        0.053      105.315       10.532        0.010      334.783        4.984      862.912
10/22/2014  04:59:00      -65.037      -38.992       -6.451       18.823       16.953       12.859      354.288      287.388      165.366        0.330        0.040       75.830        8.605        0.013      334.862        5.112      862.910
10/22/2014  05:00:00      -72.786      -36.839       -5.702       16.890       17.946       12.766      285.284      322.063      162.969        0.373        0.039       81.578       10.003        0.015      334.917        5.207      862.912
10/22/2014  05:01:00      -94.948      -39.400      -12.031       12.095       17.714       10.272      146.294      313.803      105.504        0.564        0.028      102.799        4.140        0.002      334.949        5.258      862.923
10/22/2014  05:02:00      -98.071      -31.893       -9.844       11.951       13.691        8.110      142.831      187.436       65.776        0.556        0.020      103.127        6.343        0.004      334.845        5.087      862.935
10/22/2014  05:03:00     -109.864      -22.681      -12.197       12.357       10.483       10.862      152.686      109.884      117.983        0.656        0.019      112.181        7.316        0.004      334.828        5.058      862.952
10/22/2014  05:04:00     -109.557      -21.343      -10.080       21.006       14.595       12.929      441.241      213.020      167.156        0.669        0.041      111.616       11.310        0.010      334.858        5.109      862.970
10/22/2014  05:05:00      -87.406      -11.207       -8.279       30.369       16.930       15.759      922.254      286.629      248.332        0.465        0.073       88.121       14.377        0.027      334.768        4.960      862.994
10/22/2014  05:06:00      -97.431      -18.076       -9.083       26.080       21.995       14.490      680.191      483.780      209.970        0.564        0.069       99.093       11.744        0.014      334.783        4.983      862.986
10/22/2014  05:07:00     -104.306      -15.643       -7.668       18.002       18.090       11.086      324.065      327.248      122.904        0.598        0.039      105.472        8.341        0.006      334.759        4.943      862.986
10/22/2014  05:08:00      -55.110      -10.470        0.407       31.308       19.512       10.138      980.168      380.728      102.784        0.231        0.073       56.096        9.720        0.030      334.761        4.946      862.987
10/22/2014  05:09:00      -67.268      -20.910       -8.884       18.246       13.663       13.493      332.910      186.688      182.048        0.287        0.035       70.443        9.554        0.018      334.812        5.033      862.976
10/22/2014  05:10:00      -78.472      -33.496       -4.106       13.674       22.843       13.463      186.984      521.806      181.245        0.409        0.045       85.322        9.149        0.011      334.918        5.208      862.965
10/22/2014  05:11:00      -67.424      -32.322       -2.882       14.880       15.340        8.439      221.410      235.323       71.221        0.306        0.026       74.771        5.508        0.005      334.977        5.306      862.944
10/22/2014  05:12:00      -68.363      -31.150       -9.092       13.516       11.131       10.726      182.672      123.895      115.047        0.307        0.021       75.125        5.029        0.004      334.936        5.239      862.929
10/22/2014  05:13:00      -85.831      -21.053      -10.743       14.289       13.821       10.805      204.179      191.007      116.738        0.422        0.026       88.375        5.091        0.003      334.928        5.225      862.933
10/22/2014  05:14:00      -68.799      -13.017       -3.047       18.647       17.800       14.703      347.714      316.849      216.186        0.290        0.044       70.020        9.860        0.020      334.830        5.062      862.939
10/22/2014  05:15:00      -53.142      -19.074        0.019       18.443       20.005       11.457      340.133      400.204      131.263        0.203        0.044       56.461        8.599        0.023      334.885        5.152      862.939
10/22/2014  05:16:00      -63.897      -21.298       -0.667       14.030       20.247       12.291      196.852      409.932      151.077        0.265        0.038       67.353        9.696        0.021      334.854        5.101      862.936
10/22/2014  05:17:00      -79.838      -43.698       -3.955       22.643       16.432       12.451      512.717      269.995      155.031        0.462        0.047       91.015       12.947        0.020      334.888        5.158      862.940
10/22/2014  05:18:00      -67.744      -38.991        1.597       34.936       22.714       16.846     1220.491      515.926      283.800        0.407        0.101       78.163       18.521        0.056      334.901        5.179      862.956
10/22/2014  05:19:00      -70.107      -42.990        2.523       41.003       29.004       21.224     1681.262      841.207      450.476        0.487        0.149       82.238       21.750        0.070      334.856        5.104      862.970
10/22/2014  05:20:00     -100.023      -52.721        1.084       36.547       18.278       18.393     1335.715      334.099      338.303        0.740        0.100      113.067       20.753        0.034      334.867        5.123      862.991
10/22/2014  05:21:00     -110.392      -56.436       -9.826       15.013       22.798       14.601      225.396      519.762      213.187        0.821        0.048      123.981        5.053        0.002      334.845        5.085      863.008
10/22/2014  05:22:00      -84.402      -17.484       -1.192       28.299       20.277       16.288      800.853      411.175      265.286        0.445        0.074       86.194       14.484        0.028      334.794        5.001      863.018
10/22/2014  05:23:00      -72.735      -24.877        0.542       28.077       21.581       14.681      788.341      465.736      215.525        0.369        0.073       76.872       12.021        0.024      334.746        4.921      863.013
10/22/2014  05:24:00      -80.922      -12.999       -5.214       20.944       18.698       13.479      438.666      349.631      181.671        0.386        0.048       81.960        8.721        0.011      334.665        4.787      863.013
10/22/2014  05:25:00      -70.133       -7.163      -11.293       18.934       12.767       16.347      358.502      162.998      267.230        0.294        0.039       70.498       11.845        0.028      334.657        4.773      863.004
10/22/2014  05:26:00      -51.559      -25.826       -3.630       19.492       17.837       11.131      379.930      318.150      123.893        0.208        0.041       57.666        5.819        0.010      334.801        5.011      863.012
10/22/2014  05:27:00      -76.050      -20.597       -3.976       14.297       17.485       12.283      204.416      305.709      150.867        0.344        0.033       78.790        8.285        0.011      334.820        5.044      863.017
10/22/2014  05:28:00      -77.392      -16.460       -6.644       13.381       14.607        9.839      179.056      213.356       96.807        0.340        0.024       79.123        4.677        0.003      334.751        4.931      863.029
10/22/2014  05:29:00      -78.646       -5.549       -9.415       21.836       12.142       11.906      476.801      147.422      141.754        0.354        0.038       78.841       11.697        0.022      334.692        4.832      863.041
10/22/2014  05:30:00      -72.099      -14.137      -11.005       13.342       11.860        8.747      178.012      140.667       76.511        0.296        0.020       73.472        4.928        0.004      334.719        4.878      863.054
10/22/2014  05:31:00      -83.659      -22.988       -9.673       12.483       14.046       11.250      155.826      197.285      126.556        0.405        0.024       86.760        4.528        0.003      334.789        4.993      863.076
10/22/2014  05:32:00      -86.329      -17.080       -7.256       15.580       17.178       11.263      242.733      295.099      126.850        0.423        0.033       88.002        8.577        0.009      334.776        4.970      863.106
10/22/2014  05:33:00      -98.543      -15.908       -9.242       26.580       17.118       15.321      706.490      293.024      234.725        0.564        0.062       99.819       11.628        0.014      334.741        4.912      863.132
10/22/2014  05:34:00      -75.567       -9.262        4.038       30.597       19.814       19.966      936.159      392.603      398.621        0.377        0.086       76.133       19.387        0.065      334.703        4.850      863.147
10/22/2014  05:35:00      -66.835       -3.458       -2.363       25.651       19.160       15.572      657.986      367.105      242.485        0.288        0.063       66.925       14.415        0.046      334.633        4.734      863.133
10/22/2014  05:36:00      -77.721       -6.121       -2.387       23.980       19.283       14.297      575.029      371.830      204.399        0.362        0.058       77.962       13.207        0.029      334.678        4.808      863.107
10/22/2014  05:37:00      -73.995       -5.770        1.038       32.153       22.435       19.184     1033.784      503.333      368.025        0.371        0.095       74.219       19.315        0.068      334.655        4.772      863.079
10/22/2014  05:38:00      -86.358      -11.804       -1.670       35.537       20.532       16.854     1262.913      421.552      284.063        0.478        0.098       87.161       18.476        0.045      334.666        4.789      863.067
10/22/2014  05:39:00      -86.416        0.470       -6.952       22.706       18.000       14.554      515.583      323.986      211.830        0.428        0.053       86.417       14.492        0.028      334.609        4.694      863.063
10/22/2014  05:40:00      -97.987       -0.781      -10.727       24.496       11.434       14.564      600.059      130.746      212.117        0.533        0.047       97.990       14.773        0.023      334.620        4.711      863.065
10/22/2014  05:41:00      -93.382       -4.039       -5.723       18.066       14.038       10.811      326.385      197.060      116.867        0.470        0.032       93.469        9.261        0.010      334.715        4.870      863.069
10/22/2014  05:42:00      -62.577      -22.609       -5.098       18.529       13.193        9.196      343.322      174.047       84.559        0.253        0.030       66.536        7.115        0.011      334.821        5.047      863.073
10/22/2014  05:43:00      -53.349      -27.522       -5.136       20.006       15.264       13.056      400.257      232.985      170.458        0.222        0.040       60.030        9.613        0.026      334.932        5.230      863.074
10/22/2014  05:44:00      -23.122      -13.275       -0.455       17.108       15.221        9.328      292.676      231.680       87.003        0.066        0.031       26.662       10.614        0.158      334.876        5.138      863.080
10/22/2014  05:45:00      -19.366       -4.520       -5.314        9.033        8.952        7.521       81.604       80.145       56.571        0.032        0.011       19.886        3.814        0.037      334.950        5.262      863.096
10/22/2014  05:46:00      -25.310      -10.882       -9.993        6.189        5.888        4.916       38.305       34.665       24.163        0.048        0.005       27.550        1.904        0.005      334.992        5.330      863.099
10/22/2014  05:47:00      -32.548       -7.661       -6.622        7.451        6.130        6.766       55.522       37.578       45.782        0.065        0.007       33.437        4.384        0.017      334.991        5.330      863.109
10/22/2014  05:48:00      -23.170      -12.535       -8.173        6.520        5.624        6.288       42.516       31.630       39.537        0.044        0.006       26.344        5.032        0.036      335.004        5.352      863.111
10/22/2014  05:49:00      -26.960      -12.892      -10.400        6.815        7.098        5.080       46.441       50.381       25.808        0.056        0.006       29.883        3.309        0.012      335.009        5.360      863.112
10/22/2014  05:50:00      -32.218      -17.982      -11.511        6.318        4.998        8.335       39.920       24.980       69.467        0.081        0.007       36.896        2.274        0.004      335.030        5.394      863.112
10/22/2014  05:51:00      -49.119      -17.468       -5.206        7.067        8.697        6.910       49.947       75.644       47.751        0.146        0.009       52.133        3.775        0.005      335.042        5.414      863.116
10/22/2014  05:52:00      -51.292       -8.252       -5.327       10.340        7.343        5.178      106.910       53.917       26.807        0.146        0.009       51.951        2.990        0.003      334.972        5.297      863.112
10/22/2014  05:53:00      -61.143      -16.930      -10.280        9.148        8.435        7.309       83.690       71.144       53.427        0.217        0.010       63.443        5.356        0.007      334.865        5.120      863.108
10/22/2014  05:54:00      -82.421      -32.386       -8.148       10.694       13.269        7.312      114.356      176.060       53.472        0.413        0.017       88.555        3.107        0.001      334.813        5.033      863.109
10/22/2014  05:55:00      -82.099      -36.338      -11.451       10.023       11.434        9.264      100.461      130.732       85.828        0.425        0.016       89.782        5.081        0.003      334.773        4.966      863.110
10/22/2014  05:56:00      -82.122      -39.027       -5.899       17.157       17.902       11.142      294.362      320.499      124.142        0.452        0.037       90.924        9.522        0.011      334.750        4.929      863.117
10/22/2014  05:57:00     -108.135      -43.894       -5.908       14.540       16.978       10.615      211.426      288.268      112.669        0.713        0.031      116.704        2.776        0.001      334.725        4.886      863.125
10/22/2014  05:58:00      -81.682      -65.551        0.667       36.675       26.266       19.314     1345.086      689.899      373.029        0.669        0.120      104.733       16.217        0.024      334.758        4.942      863.145
10/22/2014  05:59:00      -90.373      -52.155       -6.318       35.212       22.907       18.068     1239.870      524.748      326.463        0.651        0.105      104.343        9.872        0.009      334.746        4.921      863.147
10/22/2014  06:00:00      -99.255      -42.233       -4.210       25.935       27.464       13.554      672.620      754.290      183.720        0.663        0.081      107.866       10.583        0.010      334.676        4.806      863.158
10/22/2014  06:01:00      -73.440      -28.458        8.660       47.006       28.861       17.858     2209.594      832.981      318.906        0.482        0.168       78.761       21.390        0.074      334.714        4.868      863.174
10/22/2014  06:02:00      -82.144      -30.262       -6.127       32.283       19.173       11.640     1042.173      367.590      135.491        0.462        0.077       87.541       10.694        0.015      334.799        5.009      863.182
10/22/2014  06:03:00      -76.082      -36.593       -1.188       31.805       32.060       15.813     1011.539     1027.833      250.055        0.471        0.114       84.424       14.639        0.030      334.768        4.959      863.198
10/22/2014  06:04:00      -91.146      -18.137       -6.607       36.420       28.898       19.790     1326.436      835.098      391.654        0.562        0.128       92.933       16.670        0.032      334.744        4.918      863.216
10/22/2014  06:05:00      -99.647      -17.588       -9.639       19.670       17.258       14.425      386.928      297.825      208.076        0.561        0.045      101.187        9.652        0.009      334.737        4.907      863.229
10/22/2014  06:06:00      -91.644      -13.008      -10.800       35.239       23.132       16.987     1241.794      535.107      288.567        0.537        0.103       92.562       19.453        0.044      334.679        4.811      863.251
10/22/2014  06:07:00      -85.354       -8.649       -2.488       20.777       16.455       12.272      431.676      270.777      150.612        0.411        0.043       85.791        9.087        0.011      334.681        4.814      863.249
10/22/2014  06:08:00     -100.189      -48.475       -4.556       27.222       27.233       13.312      741.052      741.655      177.218        0.703        0.083      111.300       13.541        0.015      334.713        4.868      863.230
10/22/2014  06:09:00      -46.971      -43.360       -2.172       23.254       19.379       11.294      540.744      375.556      127.555        0.257        0.052       63.925       12.507        0.038      334.735        4.905      863.214
10/22/2014  06:10:00      -53.713      -13.709        1.265       26.068       21.402       11.431      679.532      458.067      130.666        0.217        0.063       55.435       11.455        0.043      334.795        5.004      863.204
10/22/2014  06:11:00      -57.620      -14.882       -4.612       18.125       12.199       12.715      328.511      148.817      161.660        0.210        0.032       59.511       11.185        0.035      334.760        4.948      863.199
10/22/2014  06:12:00      -29.914       -9.887        3.523       12.979       17.170       10.307      168.465      294.795      106.238        0.079        0.028       31.505        9.554        0.092      334.722        4.882      863.211
10/22/2014  06:13:00      -89.453      -41.351       -8.670       17.892       13.033        8.552      320.110      169.852       73.133        0.517        0.028       98.548        7.051        0.005      334.791        4.998      863.225
10/22/2014  06:14:00      -71.334      -36.029       -1.676       20.341       24.198       13.020      413.773      585.547      169.511        0.378        0.058       79.916        9.077        0.013      334.875        5.136      863.230
10/22/2014  06:15:00      -47.674      -25.454        6.028       48.375       16.718       17.945     2340.180      279.499      322.020        0.295        0.147       54.044       21.732        0.162      334.848        5.092      863.227
10/22/2014  06:16:00      -36.158      -29.935        3.011       26.518       17.825       14.473      703.192      317.718      209.454        0.172        0.062       46.941       10.983        0.055      334.876        5.137      863.225
10/22/2014  06:17:00      -43.246      -33.044       -4.198       21.774       17.740       11.853      474.126      314.699      140.491        0.195        0.046       54.426       10.626        0.038      334.886        5.155      863.216
10/22/2014  06:18:00      -54.841      -38.704       -3.420       28.963       17.242       14.810      838.874      297.302      219.343        0.294        0.068       67.124        7.763        0.013      334.829        5.059      863.213
10/22/2014  06:19:00      -61.515      -27.020       -2.510       15.095       19.313        9.135      227.868      372.984       83.442        0.260        0.034       67.188        5.981        0.008      334.850        5.095      863.214
10/22/2014  06:20:00      -67.095      -25.832       -3.388       12.437       14.165        8.302      154.667      200.657       68.929        0.280        0.021       71.896        5.718        0.006      334.786        4.989      863.204
10/22/2014  06:21:00      -61.446       -3.315       -3.227       12.119       16.300        7.868      146.873      265.693       61.907        0.214        0.024       61.535        5.694        0.009      334.812        5.033      863.203
10/22/2014  06:22:00      -75.282      -15.082       -8.290       20.138       13.058       10.128      405.551      170.503      102.577        0.332        0.034       76.778        9.854        0.016      334.789        4.992      863.204
10/22/2014  06:23:00      -62.085       -9.606        0.373       20.400       17.610       12.267      416.155      310.130      150.479        0.241        0.044       62.824       11.514        0.034      334.623        4.718      863.205
10/22/2014  06:24:00      -38.926       -1.072       -0.741       18.239       14.595        7.983      332.651      213.002       63.726        0.106        0.030       38.941        6.609        0.029      334.564        4.620      863.203
10/22/2014  06:25:00      -45.282        7.640       -5.339       13.169       14.552        8.618      173.414      211.768       74.268        0.130        0.023       45.922        8.268        0.032      334.540        4.579      863.168
10/22/2014  06:26:00      -46.184       -6.370       -7.991       13.990       17.561        7.714      195.711      308.381       59.503        0.140        0.028       46.621        6.538        0.020      334.629        4.728      863.163
10/22/2014  06:27:00      -57.640      -18.695       -7.205       12.052       17.805        8.516      145.248      317.014       72.523        0.213        0.027       60.596        5.378        0.008      334.604        4.686      863.158
10/22/2014  06:28:00      -63.206        0.954       -5.133       10.478       14.501        9.618      109.794      210.266       92.514        0.222        0.021       63.214        7.531        0.014      334.600        4.679      863.157
10/22/2014  06:29:00      -64.892       -6.717       -6.300       11.453       13.708       10.245      131.182      187.902      104.959        0.236        0.021       65.238        6.150        0.009      334.557        4.607      863.156
10/22/2014  06:30:00      -62.457       -6.777       -7.823       20.318       19.908       14.487      412.825      396.310      209.865        0.251        0.051       62.823       10.317        0.027      334.490        4.497      863.169
10/22/2014  06:31:00      -82.587      -30.170       -4.325       23.984       18.391       14.773      575.219      338.215      218.238        0.444        0.057       87.925       12.236        0.019      334.425        4.390      863.180
10/22/2014  06:32:00      -86.990      -24.332       -3.424       24.747       25.796       14.444      612.438      665.426      208.616        0.483        0.074       90.329       13.753        0.023      334.483        4.485      863.182
10/22/2014  06:33:00      -65.330      -19.632       -0.467       22.780       25.539       13.925      518.916      652.241      193.900        0.301        0.068       68.216       12.078        0.031      334.456        4.441      863.191
10/22/2014  06:34:00      -83.131        7.940      -10.815       15.708        9.224        7.752      246.756       85.089       60.086        0.374        0.020       83.510        2.248        0.001      334.406        4.358      863.186
10/22/2014  06:35:00      -76.276       -2.821       -9.863       11.244       14.116        8.082      126.422      199.254       65.322        0.316        0.020       76.328        6.078        0.006      334.533        4.567      863.182
10/22/2014  06:36:00     -104.894      -27.087      -14.170       15.924       17.070        9.520      253.559      291.370       90.628        0.629        0.032      108.335        7.359        0.005      334.538        4.576      863.184
10/22/2014  06:37:00      -85.109      -25.692       -3.111       29.887       19.078       16.036      893.221      363.973      257.147        0.471        0.076       88.902       18.722        0.044      334.530        4.564      863.197
10/22/2014  06:38:00      -74.885        5.104       -9.226       21.989       17.101        9.994      483.522      292.442       99.883        0.330        0.044       75.059        8.766        0.014      334.475        4.472      863.201
10/22/2014  06:39:00      -96.302        5.619      -13.776       14.410       13.616       10.976      207.636      185.386      120.471        0.500        0.026       96.466        9.601        0.010      334.522        4.549      863.202
10/22/2014  06:40:00      -98.312      -12.192      -11.358       14.778       11.094        9.359      218.377      123.078       87.590        0.519        0.021       99.065        4.318        0.002      334.520        4.545      863.211
10/22/2014  06:41:00     -104.415      -17.133      -10.119       14.964       16.071       11.356      223.907      258.289      128.949        0.595        0.031      105.811        9.333        0.008      334.573        4.635      863.228
10/22/2014  06:42:00      -70.305       -6.143      -10.329       11.905       12.637       10.508      141.720      159.693      110.414        0.275        0.021       70.572        7.367        0.011      334.536        4.571      863.237
10/22/2014  06:43:00      -76.555        1.706      -10.301       12.189        8.377       10.371      148.570       70.174      107.566        0.315        0.016       76.574        7.894        0.011      334.529        4.562      863.231
10/22/2014  06:44:00      -58.865      -15.697       -7.833       16.288       13.160        9.181      265.304      173.174       84.283        0.215        0.026       60.922        7.249        0.014      334.562        4.615      863.224
10/22/2014  06:45:00      -41.515      -28.290      -16.296       13.679       11.884        8.202      187.116      141.228       67.275        0.159        0.020       50.238        5.615        0.012      334.609        4.695      863.211
10/22/2014  06:46:00      -69.998       -7.513       -9.950       12.161       12.497       12.959      147.896      156.186      167.941        0.276        0.024       70.400        6.663        0.009      334.553        4.601      863.200
10/22/2014  06:47:00      -79.752        4.090      -11.512       12.569        8.490        9.866      157.978       72.072       97.347        0.342        0.016       79.857        6.815        0.007      334.498        4.510      863.195
10/22/2014  06:48:00      -71.633      -18.332      -14.377       12.777       11.213        8.838      163.256      125.740       78.102        0.302        0.018       73.942        5.383        0.005      334.589        4.662      863.181
10/22/2014  06:49:00      -60.517      -29.690       -6.912       12.962        9.993        8.294      168.026       99.865       68.787        0.246        0.017       67.407        5.527        0.007      334.608        4.693      863.182
10/22/2014  06:50:00      -65.544      -34.924       -5.500       23.292       11.268       10.208      542.522      126.964      104.194        0.316        0.039       74.268        5.811        0.006      334.622        4.717      863.186
10/22/2014  06:51:00      -42.159      -27.940        3.012       23.032       18.110       15.363      530.464      327.973      236.024        0.183        0.055       50.577       11.224        0.049      334.592        4.666      863.199
10/22/2014  06:52:00      -37.812      -21.059       -1.885       14.283       16.162       11.597      204.005      261.218      134.492        0.124        0.030       43.281       10.341        0.057      334.605        4.688      863.214
10/22/2014  06:53:00      -35.266      -18.861       -9.513        7.761       11.489        8.388       60.238      131.989       70.365        0.098        0.013       39.992        3.873        0.009      334.689        4.830      863.234
10/22/2014  06:54:00      -58.270      -20.824       -6.924       16.652       12.664        9.354      277.281      160.366       87.507        0.220        0.026       61.879       10.123        0.027      334.678        4.810      863.257
10/22/2014  06:55:00      -49.843       -2.986       -5.548       10.755       13.191        8.571      115.664      174.010       73.466        0.144        0.018       49.932        8.106        0.026      334.668        4.794      863.265
10/22/2014  06:56:00      -35.714       14.216       -8.346        9.877       11.553        4.409       97.561      133.468       19.438        0.090        0.013       38.439        3.092        0.006      334.685        4.821      863.259
10/22/2014  06:57:00      -23.497       15.489       -8.095        5.346        6.914        3.364       28.577       47.797       11.315        0.047        0.004       28.143        1.350        0.002      334.696        4.844      863.251
10/22/2014  06:58:00      -34.459       -3.207       -9.847        6.655        7.738        5.969       44.289       59.884       35.627        0.072        0.007       34.608        5.431        0.025      334.753        4.932      863.247
10/22/2014  06:59:00      -43.689      -25.925       -9.905        8.855        8.875        8.660       78.415       78.758       74.997        0.146        0.012       50.802        5.560        0.012      334.796        5.005      863.251
10/22/2014  07:00:00      -48.127      -13.862      -12.214        7.711        9.759        5.196       59.454       95.234       27.002        0.142        0.009       50.084        2.599        0.003      334.767        4.956      863.252
10/22/2014  07:01:00      -30.270       -8.691       -7.211        9.518       11.865        7.244       90.599      140.782       52.472        0.066        0.014       31.493        5.149        0.027      334.787        4.989      863.258
10/22/2014  07:02:00      -51.334      -16.061       -2.657       15.016       11.206        7.463      225.469      125.574       55.692        0.165        0.020       53.788        3.651        0.005      334.780        4.979      863.274
10/22/2014  07:03:00      -57.220      -20.447       -7.714       14.453        7.961        6.492      208.903       63.381       42.144        0.203        0.016       60.764        3.519        0.003      334.683        4.820      863.294
10/22/2014  07:04:00      -51.977      -21.111       -9.211       11.023       12.547        8.629      121.497      157.430       74.461        0.179        0.018       56.101        5.839        0.011      334.682        4.817      863.304
10/22/2014  07:05:00      -42.869      -18.589       -8.245        9.553        7.170        6.264       91.254       51.407       39.237        0.122        0.009       46.726        2.849        0.004      334.709        4.860      863.303
10/22/2014  07:06:00      -34.036      -11.750       -4.576       10.883       15.255        7.147      118.438      232.721       51.076        0.086        0.020       36.007        5.174        0.021      334.692        4.833      863.294
10/22/2014  07:07:00      -79.386      -14.696       -7.012       17.805       12.845       10.237      317.021      165.002      104.796        0.358        0.029       80.735        5.861        0.005      334.632        4.733      863.293
10/22/2014  07:08:00      -88.263       -4.930      -11.762       14.468       13.414        9.645      209.332      179.937       93.021        0.422        0.024       88.400        6.575        0.006      334.622        4.716      863.300
10/22/2014  07:09:00      -75.515      -25.333       -6.421       22.834       16.162       11.771      521.399      261.202      138.567        0.365        0.046       79.651        9.967        0.016      334.639        4.744      863.309
10/22/2014  07:10:00      -85.355      -23.369       -5.033       23.792       19.877       13.364      566.039      395.103      178.604        0.450        0.057       88.496       12.558        0.020      334.624        4.718      863.326
10/22/2014  07:11:00      -65.221      -38.589       -0.848       23.815       21.066       16.134      567.141      443.783      260.291        0.351        0.064       75.782       16.183        0.046      334.657        4.775      863.336
10/22/2014  07:12:00      -67.822      -25.656       -8.843       12.078       15.403        9.230      145.875      237.252       85.201        0.290        0.023       72.513        5.365        0.005      334.718        4.876      863.347
10/22/2014  07:13:00      -31.828      -23.880       -0.977       23.651       20.705       12.279      559.372      428.694      150.780        0.136        0.057       39.790       11.168        0.079      334.728        4.892      863.353
10/22/2014  07:14:00      -55.979      -27.486       -0.368       23.121       19.796       17.918      534.586      391.899      321.043        0.257        0.062       62.363       15.262        0.060      334.720        4.877      863.370
10/22/2014  07:15:00      -65.369      -20.588       -4.722       22.523       22.133       16.472      507.299      489.879      271.331        0.299        0.063       68.535       15.080        0.048      334.669        4.795      863.389
10/22/2014  07:16:00      -61.159      -20.604        1.430       27.164       19.675       13.763      737.908      387.093      189.414        0.274        0.066       64.537       10.998        0.029      334.673        4.800      863.399
10/22/2014  07:17:00      -32.680      -14.801       -3.272       19.907       20.345        9.777      396.299      413.902       95.580        0.110        0.045       35.876        5.552        0.024      334.664        4.785      863.406
10/22/2014  07:18:00      -53.720       -3.928       -6.760       17.616       13.221        9.605      310.333      174.801       92.257        0.176        0.029       53.863        5.814        0.012      334.597        4.674      863.414
10/22/2014  07:19:00      -61.565       -5.828       -5.653       24.741       15.782       13.964      612.116      249.083      194.985        0.246        0.053       61.841       15.506        0.063      334.576        4.640      863.428
10/22/2014  07:20:00      -77.069       -5.246       -8.989       16.764       15.768       15.073      281.039      248.633      227.187        0.340        0.038       77.247       12.171        0.025      334.536        4.574      863.451
10/22/2014  07:21:00      -78.619       -9.454       -5.549       22.450       14.700       12.688      504.010      216.087      160.996        0.359        0.044       79.185       10.993        0.019      334.537        4.574      863.463
10/22/2014  07:22:00      -66.621       -8.013       -2.602       25.129       15.069       15.854      631.445      227.060      251.344        0.281        0.055       67.101       11.893        0.031      334.528        4.560      863.457
10/22/2014  07:23:00      -77.348       -0.441       -4.098       25.456       17.166       15.039      648.022      294.659      226.173        0.358        0.058       77.349       14.109        0.033      334.522        4.549      863.440
10/22/2014  07:24:00      -74.410        0.679       -7.682       14.411       12.512        9.731      207.676      156.551       94.700        0.303        0.023       74.413        6.414        0.007      334.508        4.528      863.411
10/22/2014  07:25:00      -82.252        2.197       -8.212       15.766       16.010        8.492      248.569      256.327       72.114        0.371        0.029       82.281        6.597        0.006      334.555        4.605      863.386
10/22/2014  07:26:00      -70.413       -3.499       -2.766       15.674       13.260       14.749      245.665      175.823      217.530        0.281        0.032       70.500       11.701        0.028      334.552        4.601      863.373
10/22/2014  07:27:00      -72.353        0.460       -7.453       10.954       11.325        8.918      119.987      128.260       79.523        0.281        0.016       72.354        6.724        0.009      334.555        4.605      863.366
10/22/2014  07:28:00      -58.409        3.203       -8.584       14.780       10.445        8.271      218.454      109.103       68.413        0.195        0.020       58.497        4.551        0.006      334.553        4.601      863.363
10/22/2014  07:29:00      -75.594        7.164       -5.808       14.949       11.753        7.356      223.460      138.132       54.112        0.311        0.021       75.933        2.312        0.001      334.618        4.709      863.356
10/22/2014  07:30:00      -66.159       -6.464       -6.970       22.406       13.825       10.758      502.022      191.144      115.744        0.264        0.040       66.474       11.518        0.030      334.687        4.823      863.347
10/22/2014  07:31:00      -66.084      -11.039       -9.328       20.045       13.939       10.086      401.818      194.292      101.735        0.264        0.035       66.999        9.660        0.021      334.609        4.694      863.348
10/22/2014  07:32:00      -52.646      -21.773       -7.743       17.929       11.394        9.412      321.440      129.818       88.594        0.192        0.027       56.971        6.974        0.015      334.600        4.678      863.372
10/22/2014  07:33:00      -59.105      -24.654       -8.477       11.130        8.008        6.831      123.884       64.135       46.662        0.220        0.012       64.041        4.201        0.004      334.588        4.660      863.398
10/22/2014  07:34:00      -34.391      -19.257       -1.758       20.706       11.890       10.461      428.759      141.364      109.433        0.112        0.034       39.416        7.844        0.040      334.667        4.791      863.420
10/22/2014  07:35:00      -50.165      -21.278       -0.276       17.795       14.227       12.103      316.664      202.415      146.489        0.182        0.033       54.491        7.300        0.018      334.636        4.739      863.422
10/22/2014  07:36:00      -42.528      -10.705        0.270       17.650       20.302       11.913      311.525      412.183      141.919        0.139        0.043       43.854        9.305        0.045      334.652        4.766      863.428
10/22/2014  07:37:00      -61.988       -1.426       -1.901       16.478       10.196        8.229      271.516      103.958       67.720        0.215        0.022       62.004        4.448        0.005      334.682        4.818      863.444
10/22/2014  07:38:00      -42.880      -20.682       -2.588       19.571       13.559        8.885      383.015      183.859       78.948        0.146        0.032       47.607        9.515        0.040      334.749        4.927      863.470
10/22/2014  07:39:00      -32.320      -20.319       -3.712       12.496       15.220        8.709      156.149      231.649       75.842        0.097        0.023       38.176        7.068        0.034      334.821        5.048      863.483
10/22/2014  07:40:00      -47.808      -26.289       -6.586       12.224        7.837        9.212      149.425       61.416       84.858        0.166        0.015       54.559        7.576        0.019      334.820        5.046      863.478
10/22/2014  07:41:00      -17.055       -4.311       -6.996        8.485       17.451        7.980       71.995      304.524       63.675        0.040        0.022       17.592        7.280        0.171      334.818        5.042      863.457
10/22/2014  07:42:00      -23.702       20.419       -4.804        9.890       10.550        7.323       97.805      111.296       53.627        0.063        0.013       31.284        6.259        0.040      334.838        5.075      863.438
10/22/2014  07:43:00      -27.261       12.360       -3.077       10.956        8.482        4.588      120.041       71.938       21.053        0.056        0.011       29.932        2.707        0.008      334.839        5.079      863.436
10/22/2014  07:44:00      -29.887        1.014       -1.974       18.048        8.839        5.830      325.735       78.120       33.986        0.067        0.022       29.904        3.019        0.010      334.895        5.168      863.459
10/22/2014  07:45:00      -19.353        6.889        1.804       20.996       10.836        9.283      440.829      117.417       86.167        0.053        0.032       20.543        9.884        0.231      334.915        5.202      863.479
10/22/2014  07:46:00       -9.696        1.973        7.076        9.175        7.494        8.993       84.182       56.159       80.872        0.018        0.011        9.895        7.320        0.547      335.049        5.426      863.475
10/22/2014  07:47:00      -44.680        2.091       -2.004       23.150       15.616        9.902      535.945      243.863       98.053        0.144        0.044       44.729        8.717        0.038      334.869        5.126      863.470
10/22/2014  07:48:00      -36.287       13.861       -1.778       15.732       12.891        8.515      247.494      166.181       72.512        0.100        0.024       38.844        4.977        0.016      334.870        5.128      863.459
10/22/2014  07:49:00      -22.600       15.773       -5.110       16.857        9.338        7.880      284.166       87.207       62.096        0.061        0.022       27.560        8.993        0.106      334.937        5.240      863.453
10/22/2014  07:50:00      -28.227       22.812       -1.608       15.813       11.702       11.963      250.067      136.947      143.115        0.092        0.027       36.293       10.948        0.091      334.970        5.295      863.457
10/22/2014  07:51:00      -49.062       15.846       -5.631       15.351        9.958        8.857      235.661       99.157       78.444        0.155        0.021       51.557        6.047        0.014      335.004        5.353      863.470
10/22/2014  07:52:00      -51.298        1.405       -0.575       16.507       16.825        9.251      272.490      283.064       85.581        0.164        0.032       51.317        7.615        0.022      335.049        5.426      863.479
10/22/2014  07:53:00      -68.939      -11.282       -7.652       19.688       16.860       13.390      387.632      284.263      179.298        0.289        0.043       69.856       12.059        0.030      335.044        5.417      863.490
10/22/2014  07:54:00     -102.190       -7.294      -11.782       18.603       11.164        9.325      346.066      124.644       86.958        0.560        0.028      102.450        7.330        0.005      334.981        5.312      863.500
10/22/2014  07:55:00      -76.536      -12.923       -7.242       18.600       14.022       11.147      345.978      196.617      124.247        0.337        0.033       77.620        9.633        0.015      335.021        5.380      863.509
10/22/2014  07:56:00      -76.235       -7.162       -5.748       18.385       12.703       12.555      337.997      161.368      157.622        0.328        0.033       76.570       11.492        0.023      335.017        5.372      863.523
10/22/2014  07:57:00      -69.699      -13.622       -1.926       16.340       18.927       12.522      266.991      358.231      156.804        0.291        0.039       71.017        9.311        0.017      334.978        5.309      863.522
10/22/2014  07:58:00      -68.057       -5.241       -6.496       16.958       16.543       13.416      287.559      273.681      180.001        0.272        0.037       68.258       11.246        0.027      334.948        5.257      863.531
10/22/2014  07:59:00      -85.918       -6.175      -11.220        9.498        9.523        9.767       90.210       90.693       95.392        0.391        0.014       86.139        3.097        0.001      335.017        5.373      863.516
10/22/2014  08:00:00      -82.782      -11.813       -9.528       11.379       15.334        8.363      129.478      235.117       69.945        0.376        0.022       83.620        4.826        0.003      335.025        5.387      863.521
10/22/2014  08:01:00      -76.771      -21.896       -6.200       18.201       14.506       11.656      331.279      210.412      135.871        0.354        0.034       79.832        9.114        0.013      335.042        5.416      863.537
10/22/2014  08:02:00      -78.914      -18.653      -10.939       17.933       13.717       14.277      321.599      188.156      203.825        0.370        0.036       81.089       13.185        0.026      335.043        5.417      863.542
10/22/2014  08:03:00      -71.132      -12.168       -6.239       13.444       18.899       11.800      180.747      357.182      139.245        0.296        0.034       72.165        7.809        0.012      335.071        5.462      863.556
10/22/2014  08:04:00      -52.064       -7.513       -0.231       23.736       26.461       11.078      563.384      700.166      122.733        0.208        0.069       52.603       11.973        0.052      335.062        5.447      863.562
10/22/2014  08:05:00      -68.400        7.155       -8.949        8.596        8.978        6.425       73.891       80.608       41.282        0.250        0.010       68.773        3.194        0.002      335.057        5.438      863.570
10/22/2014  08:06:00      -61.173        8.668       -8.119       11.246        8.479        8.364      126.481       71.899       69.953        0.208        0.013       61.784        4.075        0.004      335.092        5.497      863.573
10/22/2014  08:07:00      -52.186       -6.987       -7.899       10.122       11.092        7.783      102.448      123.025       60.576        0.156        0.014       52.651        3.458        0.004      335.139        5.574      863.580
10/22/2014  08:08:00      -45.069       -3.536       -6.010       12.440       10.823        7.980      154.756      117.135       63.687        0.121        0.017       45.207        7.747        0.029      335.171        5.626      863.584
10/22/2014  08:09:00      -52.368       16.726       -8.938       14.317       12.026       10.098      204.976      144.616      101.979        0.178        0.023       54.974        4.048        0.005      335.164        5.616      863.601
10/22/2014  08:10:00      -61.682        5.880       -7.560        8.510        9.136        9.060       72.416       83.468       82.092        0.207        0.012       61.961        5.609        0.008      335.207        5.686      863.623
10/22/2014  08:11:00      -65.134       -0.440       -6.956       11.284       11.883        8.825      127.319      141.194       77.874        0.232        0.017       65.136        6.251        0.009      335.287        5.820      863.643
10/22/2014  08:12:00      -68.814      -10.920       -6.688       14.540       13.737       11.147      211.402      188.703      124.259        0.271        0.026       69.675        8.223        0.014      335.233        5.730      863.672
10/22/2014  08:13:00      -74.037      -13.946       -5.926       23.014       18.552       11.492      529.667      344.190      132.070        0.336        0.050       75.340       13.060        0.030      335.242        5.743      863.696
10/22/2014  08:14:00      -67.509      -13.822       -4.444       17.126       19.474       10.290      293.311      379.238      105.891        0.277        0.039       68.910        7.594        0.012      335.308        5.855      863.704
10/22/2014  08:15:00      -85.151       -1.213      -11.001       17.701       10.138       13.072      313.339      102.770      170.889        0.398        0.029       85.159       12.335        0.021      335.296        5.834      863.717
10/22/2014  08:16:00      -98.764      -13.480      -12.690       12.843       12.703       11.846      164.953      161.358      140.322        0.528        0.023       99.680        8.495        0.007      335.301        5.842      863.717
10/22/2014  08:17:00      -82.696      -14.406      -11.001       20.347       19.291       14.186      414.019      372.147      201.241        0.408        0.049       83.941        9.856        0.014      335.323        5.879      863.730
10/22/2014  08:18:00      -88.811      -14.855       -8.147       23.489       22.622       12.391      551.732      511.764      153.531        0.470        0.061       90.045        2.977        0.001      335.322        5.879      863.752
10/22/2014  08:19:00      -88.462      -10.820      -10.118       16.159       14.986       10.445      261.126      224.595      109.088        0.432        0.030       89.121        9.117        0.010      335.323        5.880      863.751
10/22/2014  08:20:00      -67.476       -3.715      -11.024       25.276       14.027       13.058      638.881      196.760      170.523        0.285        0.050       67.578       11.571        0.029      335.335        5.898      863.754
10/22/2014  08:21:00      -31.993      -15.989        0.660       16.562       16.934       11.203      274.307      286.774      125.517        0.098        0.034       35.766       10.351        0.084      335.370        5.958      863.736
10/22/2014  08:22:00      -60.414      -16.219      -10.990       19.903       20.580       10.207      396.127      423.539      104.173        0.248        0.046       62.553        7.377        0.014      335.403        6.012      863.717
10/22/2014  08:23:00      -61.606      -13.956       -5.811       18.624       20.210       13.086      346.852      408.461      171.245        0.248        0.046       63.167       10.637        0.028      335.456        6.101      863.699
10/22/2014  08:24:00      -92.614      -38.521      -11.633       16.293       18.135       12.761      265.472      328.893      162.832        0.548        0.038      100.306        8.452        0.007      335.480        6.141      863.676
10/22/2014  08:25:00      -63.130      -18.933        1.458       34.846       21.500       14.971     1214.258      462.259      224.141        0.312        0.095       65.908       16.093        0.060      335.505        6.183      863.658
10/22/2014  08:26:00      -57.323       -6.392       -7.283       24.364       14.892       15.115      593.607      221.767      228.474        0.221        0.052       57.678       14.656        0.065      335.521        6.210      863.635
10/22/2014  08:27:00      -56.933      -21.462       -4.663       21.352       12.456        9.668      455.913      155.146       93.477        0.221        0.035       60.844       10.774        0.031      335.526        6.218      863.645
10/22/2014  08:28:00      -48.518      -38.387       -8.160       18.099       10.348        9.736      327.570      107.073       94.798        0.221        0.026       61.867        5.839        0.009      335.561        6.277      863.646
10/22/2014  08:29:00      -51.560      -31.987       -6.608        8.765        8.254        7.084       76.826       68.134       50.186        0.196        0.010       60.676        4.302        0.005      335.617        6.372      863.658
10/22/2014  08:30:00      -42.242      -17.534        1.066        8.873        6.491        6.593       78.733       42.135       43.469        0.113        0.008       45.737        4.108        0.008      335.697        6.505      863.665
10/22/2014  08:31:00      -30.869      -10.313       -1.958       10.924        8.418        7.454      119.340       70.859       55.563        0.065        0.012       32.546        5.457        0.028      335.717        6.537      863.685
10/22/2014  08:32:00      -58.259       -4.619       -5.603       19.271       12.069       11.582      371.386      145.653      134.147        0.205        0.033       58.442        8.779        0.023      335.728        6.556      863.694
10/22/2014  08:33:00      -19.325      -25.886        3.280       18.867       16.115       15.910      355.969      259.705      253.130        0.096        0.043       32.304       10.702        0.110      335.845        6.751      863.705
10/22/2014  08:34:00       -3.400      -22.458        6.665       13.197       20.256       15.483      174.150      410.290      239.723        0.069        0.041       22.714       10.846        0.228      336.037        7.069      863.696
10/22/2014  08:35:00       -6.264       -4.269        7.995        9.961        8.066        9.163       99.215       65.059       83.964        0.018        0.012        7.580        7.253        0.916      336.262        7.446      863.691
10/22/2014  08:36:00      -23.241      -24.187        0.224       22.087       17.550       14.353      487.833      308.000      206.019        0.106        0.050       33.544       11.100        0.110      335.935        6.899      863.691
10/22/2014  08:37:00      -21.568      -62.010        1.748       16.776       30.344       12.211      281.440      920.773      149.097        0.283        0.068       65.654        5.301        0.007      335.788        6.657      863.683
10/22/2014  08:38:00      -20.539      -29.234        1.061       15.189       19.720       12.281      230.711      388.859      150.832        0.102        0.039       35.727        8.969        0.063      335.920        6.875      863.667
10/22/2014  08:39:00      -37.578       -6.964       -4.045       15.687       17.358        9.345      246.066      301.291       87.328        0.106        0.032       38.218        8.409        0.048      335.906        6.851      863.654
10/22/2014  08:40:00      -25.208      -27.969       -1.830       14.578       18.465       14.072      212.518      340.960      198.028        0.109        0.038       37.653       13.536        0.129      335.990        6.991      863.636
10/22/2014  08:41:00      -40.527      -26.578       -1.200       22.783       11.485       11.770      519.070      131.896      138.523        0.157        0.039       48.464       13.724        0.080      336.019        7.038      863.640
10/22/2014  08:42:00      -64.562      -18.903       -6.565       22.589       16.847       11.015      510.278      283.826      121.323        0.274        0.046       67.273        6.548        0.009      335.937        6.902      863.653
10/22/2014  08:43:00      -63.984      -25.252       -7.658       11.869       16.781       11.108      140.871      281.608      123.384        0.267        0.027       68.787       10.035        0.021      335.951        6.926      863.675
10/22/2014  08:44:00      -46.940      -40.063        3.474       25.385       16.449       14.988      644.377      270.553      224.630        0.248        0.057       61.712       10.841        0.031      336.031        7.059      863.688
10/22/2014  08:45:00      -59.009      -53.619       -2.302       28.994       20.164       12.973      840.657      406.577      168.298        0.389        0.071       79.731       11.085        0.019      336.007        7.019      863.710
10/22/2014  08:46:00      -79.559      -32.078       -0.076       23.836       15.965       14.885      568.174      254.884      221.561        0.420        0.052       85.783       14.575        0.029      336.041        7.076      863.710
10/22/2014  08:47:00      -50.767      -58.724       -2.802       16.782       25.104       14.748      281.649      630.204      217.489        0.358        0.056       77.626        8.146        0.011      336.010        7.025      863.707
10/22/2014  08:48:00      -31.054      -32.737       -4.297       15.808       18.281       12.368      249.895      334.178      152.971        0.140        0.037       45.123       10.205        0.051      336.036        7.069      863.706
10/22/2014  08:49:00      -30.262      -18.083       -5.819       12.961       18.001       10.551      167.983      324.029      111.329        0.094        0.030       35.253        4.340        0.015      336.169        7.290      863.702
10/22/2014  08:50:00      -37.027       -5.472       -5.033        5.971       10.323        7.400       35.655      106.555       54.767        0.081        0.010       37.429        4.129        0.012      336.099        7.173      863.704
10/22/2014  08:51:00      -38.662      -10.810       -4.201       14.766        9.369        9.890      218.030       87.783       97.820        0.102        0.020       40.144        3.990        0.010      336.118        7.203      863.710
10/22/2014  08:52:00      -34.958       -9.470       -6.866        4.024        6.034        4.816       16.196       36.410       23.191        0.072        0.004       36.218        1.276        0.001      336.183        7.314      863.733
10/22/2014  08:53:00      -19.217       -0.352       -2.920        8.868        7.966        8.739       78.646       63.462       76.362        0.030        0.011       19.220        5.943        0.096      336.304        7.516      863.751
10/22/2014  08:54:00      -23.955        7.578       -7.683        7.680        6.751        8.491       58.988       45.581       72.098        0.043        0.009       25.126        4.756        0.036      336.280        7.476      863.762
10/22/2014  08:55:00      -23.202        2.014      -12.695        7.720        6.896        5.639       59.598       47.551       31.795        0.042        0.007       23.289        2.389        0.011      336.347        7.587      863.771
10/22/2014  08:56:00       22.631       33.969       27.540       36.493       21.097       24.683     1331.762      445.066      609.250        0.240        0.119       40.817       17.180        0.177      336.617        8.039      863.769
10/22/2014  08:57:00       81.618       43.965       31.733       30.014       24.880       22.989      900.851      619.031      528.509        0.582        0.102       92.706       15.446        0.028      336.378        7.640      863.774
10/22/2014  08:58:00       15.336       44.718       47.713       29.783       25.135       22.959      887.053      631.768      527.131        0.328        0.102       47.274       18.398        0.151      336.578        7.974      863.781
10/22/2014  08:59:00       -0.829       23.279       34.830       18.210       21.395       14.467      331.607      457.744      209.302        0.138        0.050       23.294        6.780        0.085      336.743        8.249      863.792
10/22/2014  09:00:00        1.909       17.006       19.992       18.713       15.920       15.489      350.166      253.439      239.898        0.077        0.042       17.113       13.064        0.583      336.851        8.430      863.806
10/22/2014  09:01:00        2.402       32.360       37.296       28.577       25.052       13.911      816.630      627.580      193.529        0.204        0.082       32.449       10.517        0.105      336.781        8.314      863.816
10/22/2014  09:02:00       33.467       26.933       37.277       21.998       24.062       26.334      483.931      578.956      693.482        0.250        0.088       42.958       13.837        0.104      336.680        8.144      863.814
10/22/2014  09:03:00       41.308       36.429       18.803       22.747       27.726       14.739      517.411      768.712      217.229        0.244        0.075       55.077        7.427        0.018      336.575        7.968      863.802
10/22/2014  09:04:00       43.064       38.134       33.986       20.575       19.309       15.985      423.339      372.827      255.509        0.276        0.053       57.522       10.256        0.032      336.717        8.206      863.786
10/22/2014  09:05:00       15.013       20.354       43.136       29.281       21.699       10.487      857.381      470.828      109.982        0.197        0.072       25.291       11.922        0.222      337.029        8.727      863.768
10/22/2014  09:06:00       10.044       10.528       38.989       29.813       30.665       25.853      888.838      940.332      668.390        0.211        0.125       14.551       24.748        2.893      337.048        8.759      863.753
10/22/2014  09:07:00       58.427       26.223       28.530       52.301       27.929       30.403     2735.429      780.034      924.317        0.468        0.222       64.042       22.082        0.119      336.857        8.441      863.743
10/22/2014  09:08:00       42.090       33.529       24.204       37.806       30.905       29.748     1429.289      955.141      884.955        0.337        0.163       53.812       23.173        0.185      336.969        8.628      863.751
10/22/2014  09:09:00       98.685       39.160       20.658       42.155       37.624       38.268     1777.009     1415.531     1464.453        0.818        0.233      106.171       28.411        0.072      336.773        8.299      863.752
10/22/2014  09:10:00      117.791       75.699        9.261       27.704       24.150       31.586      767.539      583.243      997.705        1.102        0.117      140.018       12.767        0.008      336.505        7.852      863.760
10/22/2014  09:11:00       57.562       79.100        1.855       30.971       38.669       30.327      959.174     1495.255      919.740        0.647        0.169       97.828       20.948        0.046      336.697        8.173      863.769
10/22/2014  09:12:00       68.843       65.967       29.937       33.709       31.215       30.556     1136.267      974.345      933.654        0.652        0.152       95.347       16.109        0.029      336.869        8.460      863.781
10/22/2014  09:13:00       44.093       60.073       47.712       36.706       29.944       22.380     1347.318      896.635      500.884        0.529        0.137       74.518       14.764        0.039      337.051        8.764      863.814
10/22/2014  09:14:00       60.935       48.236       23.184       39.497       39.844       35.505     1559.983     1587.580     1260.631        0.549        0.220       77.716       25.319        0.106      337.273        9.134      863.839
10/22/2014  09:15:00        2.241       -5.783       38.851       23.260       45.162       32.791      541.007     2039.592     1075.261        0.260        0.183        6.202       24.976       16.218      337.575        9.642      863.850
10/22/2014  09:16:00       29.282       46.934       43.212       29.553       26.578       26.922      873.395      706.389      724.796        0.362        0.115       55.319       13.096        0.056      337.279        9.145      863.850
10/22/2014  09:17:00       45.041       39.768       36.519       47.690       38.833       31.466     2274.353     1507.982      990.099        0.486        0.239       60.084       27.561        0.210      337.172        8.966      863.826
10/22/2014  09:18:00      101.058       41.189       43.822       48.212       53.334       37.174     2324.356     2844.519     1381.895        1.019        0.328      109.130       30.000        0.076      337.014        8.702      863.803
10/22/2014  09:19:00       67.073       44.689       43.352       65.136       62.580       35.997     4242.644     3916.243     1295.753        0.891        0.473       80.597       30.049        0.139      337.092        8.833      863.782
10/22/2014  09:20:00       10.821       59.882       68.767       34.173       35.864       36.999     1167.802     1286.259     1368.910        0.613        0.191       60.852       28.178        0.214      337.285        9.154      863.786
10/22/2014  09:21:00       64.227       66.358       52.760       62.091       38.134       44.264     3855.292     1454.174     1959.332        0.929        0.363       92.350       39.786        0.186      337.121        8.880      863.778
10/22/2014  09:22:00       37.554       72.028       79.775       59.366       45.032       43.554     3524.359     2027.908     1896.908        1.020        0.372       81.231       34.290        0.178      337.318        9.210      863.764
10/22/2014  09:23:00      123.836       87.070       28.068       52.841       35.364       46.631     2792.140     1250.615     2174.461        1.496        0.311      151.382       32.096        0.045      336.865        8.452      863.735
10/22/2014  09:24:00       93.885       61.147       20.062       46.503       39.619       22.799     2162.535     1569.679      519.779        0.860        0.213      112.042       11.457        0.010      336.970        8.629      863.713
10/22/2014  09:25:00      142.819       95.558       32.709       79.634       54.670       42.493     6341.579     2988.838     1805.668        2.087        0.557      171.839       30.421        0.031      337.003        8.681      863.691
10/22/2014  09:26:00      133.856       83.603       32.878       41.323       33.487       42.832     1707.602     1121.364     1834.587        1.532        0.233      157.819       28.465        0.033      336.723        8.217      863.683
10/22/2014  09:27:00       84.213       66.727       41.589       29.217       19.877       29.324      853.638      395.099      859.874        0.769        0.105      107.445       15.424        0.021      336.768        8.292      863.682
10/22/2014  09:28:00       91.666       47.015       23.570       51.590       52.920       45.320     2661.512     2800.512     2053.880        0.934        0.376      103.020       36.041        0.122      337.028        8.726      863.677
10/22/2014  09:29:00      106.988       67.567       24.260       49.774       33.170       38.433     2477.434     1100.244     1477.079        1.083        0.253      126.538       33.945        0.072      337.078        8.808      863.671
10/22/2014  09:30:00       91.593       60.373       14.716       53.151       37.198       30.675     2825.031     1383.697      940.984        0.870        0.257      109.701       17.937        0.027      337.066        8.789      863.668
10/22/2014  09:31:00       36.341       39.351       11.362       32.553       35.375       27.468     1059.702     1251.362      754.510        0.303        0.153       53.565       10.556        0.039      337.234        9.071      863.677
10/22/2014  09:32:00       23.367       19.844       10.889       38.900       28.994       16.653     1513.246      840.631      277.315        0.184        0.132       30.656       12.849        0.176      337.402        9.352      863.688
10/22/2014  09:33:00       32.761        4.025       13.996       45.196       22.540       24.836     2042.712      508.041      616.803        0.223        0.158       33.007       23.050        0.488      337.741        9.920      863.685
10/22/2014  09:34:00       96.362       76.866       24.341       49.215       30.660       34.086     2422.102      940.041     1161.889        1.015        0.226      123.264       20.016        0.026      337.194        9.002      863.672
10/22/2014  09:35:00      110.920       82.399       11.275       39.861       29.585       30.398     1588.879      875.266      924.064        1.130        0.169      138.177       21.706        0.025      337.120        8.880      863.656
10/22/2014  09:36:00       87.396       55.752       18.072       37.803       39.886       33.232     1429.051     1590.862     1104.342        0.760        0.206      103.665       25.663        0.061      337.087        8.823      863.647
10/22/2014  09:37:00       98.789       52.172        0.745       22.594       22.892       24.291      510.506      524.040      590.070        0.705        0.081      111.719        5.872        0.003      337.203        9.018      863.638
10/22/2014  09:38:00       78.039       67.048        2.535       38.669       28.362       27.428     1495.310      804.377      752.312        0.682        0.153      102.886       24.733        0.058      337.312        9.201      863.638
10/22/2014  09:39:00       33.140       45.445       -7.905       28.102       26.398       19.832      789.748      696.867      393.310        0.255        0.094       56.245       13.033        0.054      337.439        9.414      863.641
10/22/2014  09:40:00       40.435       41.280       16.536       22.412       25.247       25.385      502.292      637.387      644.383        0.270        0.089       57.784       20.495        0.126      337.565        9.625      863.644
10/22/2014  09:41:00       21.958       54.838      -11.972       18.298       30.554       16.902      334.819      933.523      285.692        0.259        0.078       59.071        7.998        0.018      337.347        9.259      863.655
10/22/2014  09:42:00       40.888       30.622       21.449       37.024       32.051       24.835     1370.813     1027.284      616.773        0.304        0.151       51.083       20.173        0.156      337.768        9.965      863.652
10/22/2014  09:43:00       69.771       61.684       16.167       49.626       30.609       31.699     2462.731      936.930     1004.800        0.667        0.220       93.128       13.561        0.021      337.587        9.661      863.653
10/22/2014  09:44:00       74.289       47.691        9.974       50.873       41.162       38.326     2588.105     1694.324     1468.861        0.682        0.288       88.279       16.363        0.034      337.641        9.752      863.659
10/22/2014  09:45:00      103.269       33.189        8.002       43.469       35.412       37.368     1889.577     1254.026     1396.343        0.818        0.227      108.471       20.956        0.037      337.370        9.297      863.672
10/22/2014  09:46:00       65.826       67.233       -1.221       19.708       17.459       20.188      388.404      304.833      407.544        0.498        0.055       94.092       15.347        0.027      337.239        9.077      863.673
10/22/2014  09:47:00       66.119       38.764        8.077       26.606       19.435       21.114      707.866      377.708      445.815        0.374        0.077       76.645       13.286        0.030      337.480        9.482      863.692
10/22/2014  09:48:00       55.717       54.849       11.744       40.905       27.624       20.062     1673.245      763.092      402.478        0.454        0.142       78.185       14.347        0.034      337.655        9.776      863.697
10/22/2014  09:49:00       81.903       59.194       11.757       22.736       17.845       21.854      516.939      318.452      477.588        0.583        0.066      101.055        9.774        0.009      337.471        9.466      863.709
10/22/2014  09:50:00       47.780       41.076        3.032       22.802       25.816       23.489      519.913      666.482      551.735        0.286        0.087       63.009       13.298        0.045      337.468        9.463      863.727
10/22/2014  09:51:00       58.202       51.364        2.907       27.072       16.913       24.609      732.875      286.058      605.583        0.383        0.081       77.626       15.616        0.040      337.631        9.736      863.733
10/22/2014  09:52:00       20.660       54.384       -7.103       31.936       30.095       27.962     1019.921      905.690      781.895        0.307        0.135       58.176       14.270        0.060      337.675        9.810      863.739
10/22/2014  09:53:00        7.346       44.144        7.063       16.258       37.850       21.073      264.338     1432.637      444.066        0.210        0.107       44.751       23.653        0.279      338.061       10.456      863.736
10/22/2014  09:54:00       83.026       64.622       20.275       42.260       35.335       31.697     1785.907     1248.557     1004.707        0.776        0.202      105.211       11.544        0.012      337.960       10.286      863.740
10/22/2014  09:55:00       78.426       40.608        9.898       48.312       35.395       33.683     2334.058     1252.837     1134.530        0.631        0.236       88.316       13.511        0.023      337.895       10.179      863.744
10/22/2014  09:56:00       75.848       78.746        7.406       42.255       32.000       33.213     1785.518     1023.978     1103.089        0.796        0.196      109.334       19.882        0.033      337.941       10.256      863.737
10/22/2014  09:57:00       96.706       82.776       52.122       37.729       26.558       40.334     1423.465      705.352     1626.799        1.134        0.188      127.295       25.795        0.041      337.813       10.040      863.733
10/22/2014  09:58:00      113.492       63.293       16.978       31.729       19.252       22.293     1006.720      370.642      496.975        0.952        0.094      129.948       13.364        0.011      337.482        9.486      863.746
10/22/2014  09:59:00       48.988       45.490        2.484       38.353       38.778       22.513     1470.981     1503.752      506.828        0.398        0.174       66.852       19.818        0.088      337.969       10.303      863.747
10/22/2014  10:00:00      -31.046       31.830       19.218       24.429       26.254       21.369      596.781      689.298      456.624        0.204        0.087       44.464        8.284        0.035      338.196       10.684      863.744
10/22/2014  10:01:00        2.522       51.694       14.097       27.458       28.648       23.471      753.938      820.729      550.868        0.250        0.106       51.755       18.189        0.124      338.635       11.419      863.749
10/22/2014  10:02:00       -1.397       27.946       23.544       44.745       24.680       26.028     2002.143      609.106      677.475        0.231        0.164       27.981       17.746        0.402      338.207       10.702      863.742
10/22/2014  10:03:00      -13.613       16.601       18.764       13.503       18.647       18.201      182.332      347.695      331.273        0.084        0.043       21.468        5.864        0.075      338.414       11.049      863.736
10/22/2014  10:04:00       46.739       38.915       15.279       37.404       27.152       15.813     1399.047      737.215      250.047        0.316        0.119       60.819       10.332        0.029      338.248       10.770      863.722
10/22/2014  10:05:00       40.173       17.052       21.727       41.443       28.841       24.761     1717.543      831.780      613.089        0.277        0.158       43.642       15.941        0.133      338.343       10.930      863.699
10/22/2014  10:06:00       44.533       23.820       41.526       50.975       62.485       33.570     2598.418     3904.356     1126.931        0.595        0.381       50.504       31.396        0.386      338.063       10.459      863.679
10/22/2014  10:07:00       70.818       77.345       56.756       49.988       41.510       32.967     2498.826     1723.044     1086.851        0.976        0.265      104.868       22.166        0.045      338.095       10.514      863.673
10/22/2014  10:08:00       86.426       76.180       58.946       59.874       40.590       45.022     3584.901     1647.544     2026.940        1.200        0.363      115.208       31.199        0.073      337.774        9.975      863.678
10/22/2014  10:09:00       72.543       60.646       31.664       56.150       34.676       45.707     3152.841     1202.427     2089.159        0.819        0.322       94.553       25.328        0.072      337.816       10.045      863.672
10/22/2014  10:10:00       23.047       56.789       -3.879       28.032       26.283       19.354      785.810      690.778      374.595        0.281        0.093       61.288       15.634        0.065      337.976       10.312      863.667
10/22/2014  10:11:00       72.998       65.848        6.209       28.597       22.103       28.989      817.788      488.541      840.384        0.592        0.107       98.309       18.761        0.036      338.006       10.365      863.666
10/22/2014  10:12:00       32.091       46.694        3.319       27.047       25.690       28.976      731.533      659.964      839.590        0.273        0.112       56.658       17.783        0.099      338.030       10.404      863.662
10/22/2014  10:13:00        5.666       44.413        6.317       23.287       34.319       25.321      542.274     1177.790      641.176        0.220        0.118       44.773       23.386        0.273      338.214       10.712      863.669
10/22/2014  10:14:00       46.230       30.260        9.979       39.656       28.967       24.077     1572.600      839.095      579.685        0.307        0.150       55.253       24.398        0.195      338.342       10.928      863.678
10/22/2014  10:15:00       29.403       49.136       54.722       38.521       31.592       26.935     1483.876      998.041      725.505        0.474        0.160       57.261       20.413        0.127      338.510       11.211      863.678
10/22/2014  10:16:00       74.434       67.603       61.852       56.079       26.740       31.387     3144.889      715.033      985.160        0.939        0.242      100.551       25.806        0.066      338.159       10.621      863.674
10/22/2014  10:17:00       54.846       59.530       23.001       35.056       22.081       38.020     1228.934      487.568     1445.550        0.512        0.158       80.944       25.652        0.100      337.966       10.297      863.670
10/22/2014  10:18:00       63.848       47.062        5.898       44.699       34.353       27.667     1997.975     1180.129      765.479        0.513        0.197       79.318       13.570        0.029      338.163       10.629      863.665
10/22/2014  10:19:00       74.594       57.518        5.884       54.533       33.481       30.703     2973.871     1121.010      942.659        0.697        0.252       94.195       22.325        0.056      338.294       10.847      863.655
10/22/2014  10:20:00       60.514       44.016       -7.605       32.052       31.710       24.472     1027.301     1005.541      598.888        0.414        0.132       74.829        9.243        0.015      338.463       11.132      863.656
10/22/2014  10:21:00       57.030       53.020       11.271       34.654       47.638       34.626     1200.923     2269.414     1198.938        0.543        0.233       77.869       29.412        0.143      338.529       11.242      863.658
10/22/2014  10:22:00       43.836       24.914       22.308       60.059       94.282       35.606     3607.048     8889.014     1267.773        0.840        0.688       50.421       26.638        0.279      338.563       11.300      863.675
10/22/2014  10:23:00       92.498      -85.212       -8.252       32.196       29.114       25.531     1036.580      847.622      651.807        0.921        0.127      125.766       21.101        0.028      338.145       10.598      863.717
10/22/2014  10:24:00       35.900      -58.467       -7.157       42.983       32.666       20.733     1847.545     1067.093      429.861        0.405        0.167       68.609       21.303        0.096      338.030       10.406      863.741
10/22/2014  10:25:00       46.100       13.106       23.998       39.525       37.545       28.145     1562.206     1409.647      792.151        0.332        0.188       47.927       18.196        0.144      338.520       11.229      863.740
10/22/2014  10:26:00       40.743       32.655        1.819       52.694       37.273       23.396     2776.661     1389.268      547.350        0.372        0.236       52.214       14.080        0.073      338.362       10.961      863.735
10/22/2014  10:27:00       21.123       -9.457       42.866       29.906       52.057       26.091      894.371     2709.941      680.743        0.333        0.214       23.143       24.295        1.102      338.724       11.570      863.721
10/22/2014  10:28:00        6.755      -17.198       27.192       35.800       47.511       25.320     1281.612     2257.313      641.111        0.263        0.209       18.477       23.369        1.600      338.608       11.375      863.711
10/22/2014  10:29:00       10.107        8.305       43.514       24.547       31.671       22.182      602.532     1003.066      492.043        0.208        0.105       13.082       18.327        1.963      338.724       11.570      863.702
10/22/2014  10:30:00        8.984       -2.326       45.651       34.890       36.869       24.647     1217.305     1359.350      607.465        0.268        0.159        9.280       22.257        5.752      338.560       11.294      863.704
10/22/2014  10:31:00       46.072      -65.872       24.914       47.760       43.399       33.789     2280.993     1883.458     1141.730        0.619        0.265       80.384       30.326        0.142      338.340       10.924      863.699
10/22/2014  10:32:00        7.319       43.137       70.764       32.924       34.331       29.458     1083.982     1178.615      867.772        0.503        0.157       43.753       16.183        0.137      338.584       11.335      863.703
10/22/2014  10:33:00       32.033      -59.534       19.348       33.732       51.957       34.083     1137.834     2699.532     1161.618        0.497        0.250       67.605       36.582        0.293      338.566       11.304      863.698
10/22/2014  10:34:00       42.902      -47.587       19.785       33.886       51.522       34.964     1148.234     2654.491     1222.491        0.476        0.251       64.071       35.065        0.300      338.326       10.902      863.701
10/22/2014  10:35:00       70.098       58.823       43.643       19.413       38.568       41.293      376.879     1487.489     1705.142        0.692        0.178       91.509       19.270        0.044      338.153       10.610      863.683
10/22/2014  10:36:00       41.457       58.477       -7.145       30.481       28.401       17.212      929.072      806.623      296.265        0.361        0.102       71.682       13.875        0.037      338.122       10.560      863.662
10/22/2014  10:37:00       66.252       57.814        1.279       49.307       25.573       26.440     2431.145      654.000      699.054        0.576        0.189       87.930       17.255        0.039      338.226       10.732      863.639
10/22/2014  10:38:00       92.904       63.098       41.873       33.822       36.299       38.326     1143.929     1317.616     1468.872        0.915        0.197      112.305       22.581        0.040      338.342       10.929      863.607
10/22/2014  10:39:00       26.092       -8.775       24.035       42.769       48.210       34.061     1829.225     2324.195     1160.176        0.332        0.266       27.528       23.663        0.739      338.787       11.677      863.593
10/22/2014  10:40:00       21.520        5.080       59.716       38.451       61.515       28.564     1478.462     3784.080      815.919        0.507        0.304       22.111       33.384        2.280      338.795       11.689      863.592
10/22/2014  10:41:00       75.169       65.553       36.471       66.551       33.869       41.264     4429.062     1147.096     1702.737        0.928        0.364       99.737       39.614        0.158      338.949       11.948      863.590
10/22/2014  10:42:00       24.077       39.197       53.392       44.321       46.012       26.013     1964.353     2117.129      676.690        0.486        0.238       46.001       22.443        0.238      339.047       12.112      863.594
10/22/2014  10:43:00       32.516      -22.748       44.599       49.034       73.444       42.699     2404.291     5394.092     1823.241        0.659        0.481       39.683       46.169        1.354      338.914       11.890      863.598
10/22/2014  10:44:00      126.470       65.968       30.841       65.931       50.686       53.287     4346.904     2569.031     2839.530        1.552        0.488      142.641       41.122        0.083      338.744       11.603      863.588
10/22/2014  10:45:00      163.345       93.090       14.573       55.252       46.316       33.195     3052.818     2145.178     1101.938        2.093        0.315      188.009       16.035        0.007      338.469       11.139      863.582
10/22/2014  10:46:00      123.540       89.474        9.847       40.814       34.248       35.978     1665.808     1172.955     1294.404        1.375        0.207      152.538       16.399        0.012      338.536       11.254      863.574
10/22/2014  10:47:00       78.074       81.189        1.772       56.942       41.577       44.988     3242.375     1728.654     2023.892        0.984        0.350      112.638       32.626        0.084      338.597       11.356      863.557
10/22/2014  10:48:00       55.746       58.631       18.485       42.500       49.979       42.372     1806.264     2497.949     1795.374        0.649        0.305       80.903       36.653        0.205      338.781       11.665      863.553
10/22/2014  10:49:00       75.062       39.195        4.465       50.684       35.779       31.601     2568.851     1280.140      998.597        0.602        0.242       84.679       16.219        0.037      338.916       11.892      863.544
10/22/2014  10:50:00       43.694       38.920       13.972       49.680       35.309       33.958     2468.140     1246.736     1153.141        0.424        0.243       58.515       18.101        0.096      339.208       12.384      863.527
10/22/2014  10:51:00       20.344       29.255       44.373       40.037       35.221       40.855     1602.953     1240.497     1669.103        0.387        0.226       35.633       26.607        0.558      339.436       12.768      863.519
10/22/2014  10:52:00       32.901       45.981       66.505       37.689       42.007       51.654     1420.443     1764.574     2668.100        0.674        0.293       56.540       39.474        0.487      338.909       11.880      863.513
10/22/2014  10:53:00      -12.982       16.402      -11.780       39.000       46.357       27.663     1521.011     2149.000      765.264        0.251        0.222       20.918       21.506        1.057      338.838       11.760      863.511
10/22/2014  10:54:00       -6.243        6.036       34.423       39.062       49.190       41.009     1525.840     2419.656     1681.757        0.344        0.281        8.684       45.725       27.727      339.284       12.513      863.510
10/22/2014  10:55:00       87.201       66.604       63.658       45.246       39.413       38.400     2047.186     1553.368     1474.573        1.058        0.254      109.728       20.427        0.035      338.732       11.584      863.509
10/22/2014  10:56:00       85.359       79.341       50.709       98.534       57.663       55.366     9708.864     3325.012     3065.399        1.612        0.805      116.538       53.745        0.213      338.895       11.856      863.515
10/22/2014  10:57:00      174.598      109.006       35.901       38.767       40.289       34.118     1502.885     1623.238     1164.062        2.397        0.215      205.832       19.985        0.009      338.854       11.787      863.502
10/22/2014  10:58:00      101.265       50.464       15.399       57.714       39.828       30.929     3330.941     1586.242      956.632        0.946        0.294      113.142       18.042        0.025      339.192       12.358      863.498
10/22/2014  10:59:00      107.932       69.943       36.108       39.909       37.703       42.111     1592.763     1421.552     1773.312        1.132        0.239      128.613       18.726        0.021      338.950       11.950      863.481
10/22/2014  11:00:00       22.092       33.445       19.132       30.489       40.413       28.656      929.585     1633.220      821.191        0.268        0.169       40.083       25.877        0.417      339.371       12.658      863.466
10/22/2014  11:01:00        9.456       22.216       51.309       26.701       34.899       37.014      712.953     1217.951     1370.048        0.326        0.165       24.145       29.970        1.541      339.826       13.427      863.454
10/22/2014  11:02:00       53.224      104.462       80.012       63.343       51.736       50.669     4012.345     2676.594     2567.371        1.470        0.463      117.240       42.124        0.129      339.148       12.282      863.456
10/22/2014  11:03:00       49.080       89.284       90.917       60.926       54.635       39.139     3712.036     2984.962     1531.872        1.344        0.411      101.885       32.265        0.100      339.166       12.313      863.467
10/22/2014  11:04:00       66.081       52.962       54.183       48.379       39.448       43.354     2340.479     1556.132     1879.547        0.794        0.289       84.686       25.528        0.091      339.054       12.125      863.489
10/22/2014  11:05:00       55.528       39.688        6.357       21.487       33.190       37.965      461.677     1101.585     1441.373        0.385        0.150       68.253       31.569        0.214      338.843       11.769      863.500
10/22/2014  11:06:00      -12.142        8.956        8.621       33.408       16.367       26.729     1116.082      267.868      714.455        0.120        0.105       15.087       26.215        3.019      339.399       12.705      863.490
10/22/2014  11:07:00       22.973       16.848       13.984       47.227       42.452       28.012     2230.388     1802.202      784.688        0.291        0.241       28.488       13.132        0.212      339.264       12.478      863.490
10/22/2014  11:08:00       66.429     -116.810      -21.733       51.985       52.854       28.404     2702.436     2793.584      806.767        1.242        0.315      134.378       22.207        0.027      339.271       12.490      863.478
10/22/2014  11:09:00       41.537      -47.046        6.650       53.261       58.083       39.704     2836.712     3373.583     1576.397        0.588        0.389       62.759       43.574        0.482      339.538       12.941      863.465
10/22/2014  11:10:00        2.854       -2.071       42.086       22.693       49.226       28.664      514.983     2423.244      821.609        0.277        0.188        3.527       28.512       65.360      339.662       13.151      863.447
10/22/2014  11:11:00       37.153     -110.788        1.049       50.580       65.899       41.093     2558.353     4342.663     1688.674        1.112        0.429      116.852       30.805        0.069      339.493       12.863      863.426
10/22/2014  11:12:00       58.664     -125.679       -7.692       32.373       40.051       28.245     1048.033     1604.089      797.787        1.137        0.172      138.696       13.180        0.009      339.209       12.385      863.409
10/22/2014  11:13:00       52.094      -52.498       11.726       41.205       58.245       29.746     1697.847     3392.459      884.830        0.579        0.299       73.958       27.685        0.140      339.457       12.804      863.381
10/22/2014  11:14:00       65.127      -61.934       -5.244       52.152       60.504       36.712     2719.859     3660.744     1347.758        0.792        0.386       89.874       41.473        0.213      339.457       12.804      863.363
10/22/2014  11:15:00       48.641      -29.803       19.946       67.372       48.808       48.455     4538.986     2382.258     2347.925        0.646        0.463       57.045       40.282        0.499      339.728       13.259      863.346
10/22/2014  11:16:00        0.172      -70.534        8.073       36.234       43.844       27.779     1312.931     1922.319      771.686        0.452        0.200       70.534       17.214        0.060      339.628       13.091      863.351
10/22/2014  11:17:00      -36.105       -5.109      -10.928       20.580       19.695       24.632      423.525      387.895      606.758        0.143        0.071       36.465       13.291        0.133      339.298       12.535      863.345
10/22/2014  11:18:00       -4.934      -10.449       -3.222       36.677       27.330       29.936     1345.231      746.945      896.146        0.157        0.149       11.555       15.577        1.817      339.537       12.938      863.348
10/22/2014  11:19:00        6.561        9.541       35.179       17.955       31.919       24.620      322.397     1018.838      606.167        0.166        0.097       11.579       10.397        0.806      339.825       13.424      863.350
10/22/2014  11:20:00        4.215      -24.634       20.936       25.688       64.919       30.335      659.884     4214.419      920.213        0.343        0.290       24.992       31.512        1.590      339.574       13.001      863.346
10/22/2014  11:21:00       46.656      -80.319       -7.377       33.834       45.245       30.831     1144.762     2047.108      950.526        0.641        0.207       92.887       25.411        0.075      339.351       12.624      863.364
10/22/2014  11:22:00       40.306      -23.220        7.102       26.201       48.549       25.868      686.501     2356.996      669.135        0.296        0.186       46.516       27.176        0.341      339.350       12.623      863.361
10/22/2014  11:23:00       52.586        2.876       18.940       58.051       36.346       24.063     3369.931     1321.058      579.035        0.420        0.264       52.665       30.040        0.325      339.331       12.591      863.359
10/22/2014  11:24:00       29.983       -4.942       15.936       29.813       43.722       24.836      888.809     1911.594      616.818        0.230        0.171       30.387       27.279        0.806      339.322       12.576      863.374
10/22/2014  11:25:00       35.012      -30.119       35.444       49.421       51.187       39.922     2442.475     2620.145     1593.728        0.502        0.333       46.185       31.418        0.463      339.604       13.051      863.382
10/22/2014  11:26:00       32.885       -7.598       56.398       63.028       84.305       49.941     3972.542     7107.352     2494.118        0.894        0.679       33.751       55.008        2.656      339.529       12.924      863.388
10/22/2014  11:27:00       36.197       -2.976       42.731       47.251       56.706       38.500     2232.636     3215.595     1482.275        0.504        0.347       36.319       23.958        0.435      339.523       12.915      863.383
10/22/2014  11:28:00       95.659       97.656       53.123       61.673       32.083       34.381     3803.524     1029.317     1182.071        1.376        0.301      136.702       20.796        0.023      339.218       12.401      863.388
10/22/2014  11:29:00       74.793       78.449       26.150       30.426       23.176       23.302      925.755      537.141      542.962        0.722        0.100      108.389       14.887        0.019      339.170       12.321      863.392
10/22/2014  11:30:00       28.702       24.773       42.826       26.859       38.338       20.518      721.392     1469.784      420.971        0.294        0.131       37.914       12.914        0.116      339.524       12.918      863.413
10/22/2014  11:31:00       73.112       56.774       24.162       36.430       34.224       33.064     1327.160     1171.306     1093.259        0.637        0.180       92.567       26.458        0.082      339.152       12.290      863.435
10/22/2014  11:32:00       29.528       12.823       48.050       34.140       33.789       27.349     1165.531     1141.682      747.987        0.320        0.153       32.192       22.681        0.496      339.462       12.812      863.450
10/22/2014  11:33:00       17.986       35.497       68.966       34.870       38.120       25.572     1215.951     1453.140      653.934        0.483        0.166       39.793       19.814        0.248      339.547       12.954      863.453
10/22/2014  11:34:00       57.473      -20.227       19.015       43.628       43.445       37.104     1903.443     1887.490     1376.698        0.462        0.258       60.929       39.465        0.420      339.273       12.494      863.461
10/22/2014  11:35:00       65.074      -31.214        7.943       26.551       24.118       20.528      704.957      581.689      421.406        0.349        0.085       72.173        7.177        0.010      339.110       12.217      863.478
10/22/2014  11:36:00       10.584      -23.400       -1.376       17.168       23.657       19.711      294.732      559.652      388.513        0.095        0.062       25.682       16.751        0.425      339.460       12.808      863.491
10/22/2014  11:37:00        5.147      -10.655       11.308       10.804       21.034       20.847      116.725      442.431      434.579        0.063        0.050       11.833       11.096        0.879      339.874       13.508      863.505
10/22/2014  11:38:00       -1.663       16.321       39.190       16.428       18.605       15.300      269.868      346.136      234.081        0.133        0.043       16.405       11.953        0.531      339.962       13.655      863.502
10/22/2014  11:39:00        9.487       23.995       34.474       32.112       24.329       22.586     1031.188      591.900      510.126        0.199        0.107       25.803       15.301        0.352      339.890       13.534      863.493
10/22/2014  11:40:00       27.013       17.489       30.964       29.992       29.658       24.637      899.505      879.603      606.968        0.219        0.119       32.181       21.232        0.435      339.889       13.533      863.492
10/22/2014  11:41:00       85.590       46.057       13.653       43.523       36.069       32.403     1894.225     1300.984     1049.965        0.694        0.212       97.195       13.830        0.020      339.476       12.836      863.491
10/22/2014  11:42:00       95.627       74.635       26.334       31.632       24.934       25.129     1000.596      621.707      631.476        0.883        0.113      121.305        8.961        0.005      339.405       12.714      863.472
10/22/2014  11:43:00       78.582       50.322        6.621       50.409       39.791       29.279     2541.032     1583.325      857.278        0.687        0.249       93.314       19.305        0.043      339.561       12.978      863.444
10/22/2014  11:44:00       61.213       26.468        4.517       38.731       29.647       29.498     1500.103      878.964      870.130        0.386        0.162       66.690       22.652        0.115      339.642       13.115      863.407
10/22/2014  11:45:00      108.144       42.657        4.253       31.606       36.593       27.142      998.929     1339.028      736.683        0.830        0.154      116.253       13.074        0.013      339.510       12.892      863.376
10/22/2014  11:46:00       48.701       32.541        9.140       28.255       25.392       22.675      798.337      644.769      514.153        0.274        0.098       58.572       15.230        0.068      339.642       13.115      863.368
10/22/2014  11:47:00       68.309       45.829        6.850       41.243       36.308       30.190     1700.958     1318.286      911.464        0.537        0.197       82.258       20.760        0.064      339.704       13.219      863.361
10/22/2014  11:48:00       60.821       37.814       10.725       46.547       31.161       25.969     2166.662      971.027      674.394        0.453        0.191       71.618       22.118        0.095      339.795       13.374      863.367
10/22/2014  11:49:00       40.405       40.897       28.262       42.663       31.941       39.893     1820.141     1020.248     1591.423        0.427        0.222       57.490       34.343        0.357      339.811       13.400      863.385
10/22/2014  11:50:00       40.459       43.470       -7.479       38.176       26.044       26.694     1457.434      678.292      712.581        0.321        0.142       59.385       20.431        0.118      339.710       13.230      863.404
10/22/2014  11:51:00       49.709       53.927       -1.792       30.981       34.574       31.281      959.794     1195.392      978.513        0.426        0.157       73.342       21.381        0.085      339.618       13.072      863.401
10/22/2014  11:52:00       41.095       99.722       -5.472       27.237       41.941       25.970      741.844     1759.048      674.459        0.742        0.159      107.858       25.641        0.057      339.467       12.820      863.382
10/22/2014  11:53:00       38.569      120.598      -25.136       34.652       53.860       25.481     1200.740     2900.919      649.278        1.071        0.238      126.616       24.566        0.038      339.558       12.974      863.345
10/22/2014  11:54:00       -6.707       62.906       -5.714       23.767       45.387       19.307      564.851     2060.010      372.741        0.352        0.150       63.263       24.757        0.153      339.684       13.186      863.310
10/22/2014  11:55:00       11.721       41.372       13.887       37.313       41.771       23.645     1392.257     1744.816      559.097        0.287        0.185       43.001       21.753        0.256      339.962       13.654      863.286
10/22/2014  11:56:00       15.060       20.860       11.306       21.594       27.900       20.565      466.309      778.433      422.906        0.123        0.083       25.729        6.946        0.073      339.974       13.674      863.258
10/22/2014  11:57:00       15.832        6.434       11.667       21.624       33.934       27.811      467.608     1151.491      773.472        0.141        0.120       17.089       23.637        1.913      340.114       13.910      863.244
10/22/2014  11:58:00       52.439       50.388       14.269       46.137       35.124       31.774     2128.669     1233.714     1009.594        0.493        0.219       72.724       26.105        0.129      340.203       14.062      863.232
10/22/2014  11:59:00       71.170       65.249       30.987       41.815       27.268       26.828     1748.501      743.527      719.726        0.675        0.161       96.554       17.815        0.034      339.896       13.543      863.215
10/22/2014  12:00:00      129.419       91.001       15.558       40.607       34.242       34.690     1648.950     1172.535     1203.399        1.465        0.201      158.210       17.911        0.013      339.684       13.185      863.208
10/22/2014  12:01:00      129.520       70.485       13.364       43.127       35.176       29.470     1859.907     1237.355      868.493        1.294        0.198      147.457       14.173        0.009      339.771       13.333      863.209
10/22/2014  12:02:00      116.763       78.268       15.013       40.945       34.541       27.833     1676.480     1193.055      774.699        1.181        0.182      140.569       14.775        0.011      339.774       13.337      863.203
10/22/2014  12:03:00      126.559       76.504       10.334       29.385       32.174       24.460      863.470     1035.196      598.269        1.224        0.125      147.885       17.052        0.013      339.677       13.175      863.183
10/22/2014  12:04:00      109.810       69.846       11.752       39.889       31.203       31.324     1591.121      973.652      981.181        1.031        0.177      130.141       14.103        0.012      339.803       13.388      863.144
10/22/2014  12:05:00       68.277       51.554       15.409       56.253       31.909       34.955     3164.364     1018.216     1221.856        0.648        0.270       85.554       17.384        0.041      339.993       13.707      863.114
10/22/2014  12:06:00       84.588       36.338       17.299       38.298       37.869       33.985     1466.700     1434.087     1155.012        0.641        0.203       92.063       21.373        0.054      339.945       13.625      863.108
10/22/2014  12:07:00       36.517       46.872        1.639       19.564       26.321       23.566      382.754      692.783      555.379        0.258        0.082       59.418       13.653        0.053      339.890       13.534      863.120
10/22/2014  12:08:00       38.259       26.775       12.642       23.907       14.593       20.332      571.562      212.943      413.400        0.177        0.060       46.697        9.350        0.040      339.997       13.713      863.140
10/22/2014  12:09:00       11.102       45.596       -0.392       25.397       58.857       20.188      644.990     3464.204      407.536        0.336        0.226       46.928       24.179        0.265      340.185       14.031      863.156
10/22/2014  12:10:00        0.905       48.934        1.833       25.265       37.720       30.835      638.336     1422.819      950.769        0.270        0.151       48.942       24.559        0.252      340.227       14.101      863.169
10/22/2014  12:11:00      -21.716       90.561      -14.651       28.717       28.068       21.889      824.663      787.795      479.135        0.549        0.105       93.129       11.140        0.014      340.034       13.776      863.182
10/22/2014  12:12:00      -53.000       16.356      -18.578       12.662       43.493       22.907      160.335     1891.682      524.720        0.300        0.129       55.466       21.790        0.154      339.898       13.548      863.192
10/22/2014  12:13:00      -44.152       63.139      -22.953       20.844       28.129       16.909      434.459      791.224      285.924        0.399        0.076       77.045        9.518        0.015      339.838       13.445      863.200
10/22/2014  12:14:00      -84.840       19.996      -22.346       13.353       17.256       14.395      178.304      297.764      207.211        0.439        0.034       87.165        8.311        0.009      339.891       13.534      863.197
10/22/2014  12:15:00      -57.693       14.080      -24.707       25.764       13.113       13.696      663.805      171.958      187.571        0.258        0.051       59.386        5.243        0.008      339.911       13.569      863.176
10/22/2014  12:16:00       -7.711       38.272       11.044       21.007       34.371       21.191      441.287     1181.331      449.042        0.186        0.104       39.041       20.362        0.272      340.548       14.646      863.142
10/22/2014  12:17:00      -44.839       22.406      -12.011       30.697       43.880       21.660      942.296     1925.496      469.138        0.300        0.167       50.126       22.937        0.209      340.172       14.008      863.122
10/22/2014  12:18:00      -23.526      -59.107        8.327       28.542       19.674       16.857      814.639      387.070      284.150        0.280        0.074       63.617        7.803        0.015      340.054       13.809      863.111
10/22/2014  12:19:00        2.953      -15.005       12.190       12.647       17.727       15.157      159.955      314.256      229.727        0.054        0.035       15.293       10.931        0.511      340.695       14.892      863.102
10/22/2014  12:20:00       27.537       21.091       19.657       27.253       20.256       19.539      742.730      410.293      381.759        0.156        0.077       34.686       17.931        0.267      340.285       14.202      863.087
10/22/2014  12:21:00        6.706       29.042       23.123       16.174       22.973       15.853      261.584      527.775      251.332        0.123        0.052       29.807        9.404        0.100      340.486       14.541      863.080
10/22/2014  12:22:00       12.370       26.243       14.090       26.985       28.282       23.917      728.202      799.869      572.042        0.157        0.105       29.012       19.838        0.468      340.681       14.869      863.079
10/22/2014  12:23:00       22.028       67.960       11.770       31.892       41.913       35.285     1017.083     1756.711     1245.034        0.463        0.201       71.441       32.153        0.203      340.588       14.712      863.067
10/22/2014  12:24:00        9.018       55.522       -0.523       25.604       40.309       15.875      655.589     1624.839      252.024        0.285        0.127       56.249       17.535        0.097      340.503       14.568      863.056
10/22/2014  12:25:00       -4.743       56.893        3.197       22.555       31.854       17.446      508.747     1014.666      304.359        0.255        0.091       57.091       17.976        0.099      340.760       15.002      863.052
10/22/2014  12:26:00      -39.297      -11.974       10.840       24.814       14.954       18.951      615.756      223.620      359.122        0.150        0.060       41.081       16.519        0.162      340.846       15.149      863.056
10/22/2014  12:27:00       -3.559      -22.089       11.710       31.120       24.348       24.653      968.463      592.804      607.794        0.140        0.108       22.374       22.497        1.011      341.056       15.505      863.049
10/22/2014  12:28:00      -17.627      -24.804       18.522       38.030       37.998       17.607     1446.290     1443.840      310.019        0.223        0.160       30.429       23.347        0.589      340.832       15.125      863.048
10/22/2014  12:29:00      -44.803      -25.298        1.882       18.419       18.463       12.373      339.276      340.900      153.079        0.174        0.042       51.452       11.052        0.046      340.506       14.572      863.023
10/22/2014  12:30:00        3.336       -9.189        7.822       23.850       17.205       15.288      568.812      296.022      233.722        0.063        0.055        9.776       14.078        2.074      340.787       15.048      863.002
10/22/2014  12:31:00       -3.828      -12.636       -4.740       29.130       17.138       17.625      848.539      293.716      310.641        0.082        0.073       13.203       12.230        0.858      340.721       14.937      862.983
10/22/2014  12:32:00       36.251      -41.467       10.018       29.901       58.213       31.317      894.100     3388.809      980.738        0.420        0.263       55.078       33.913        0.379      340.455       14.487      862.960
10/22/2014  12:33:00       16.682      -25.418        9.831       30.823       43.007       27.648      950.054     1849.583      764.440        0.229        0.178       30.403       12.094        0.158      340.799       15.069      862.937
10/22/2014  12:34:00       -1.750       13.634       32.513       21.363       19.201       19.903      456.394      368.691      396.126        0.123        0.061       13.746       12.875        0.877      341.062       15.514      862.921
10/22/2014  12:35:00      -13.214       30.813       29.260       20.074       28.412       20.968      402.978      807.230      439.655        0.181        0.082       33.527       21.126        0.397      340.696       14.895      862.916
10/22/2014  12:36:00      -16.778      -17.998        1.514       36.783       17.822       16.650     1352.981      317.608      277.211        0.128        0.097       24.606        8.906        0.131      340.904       15.248      862.909
10/22/2014  12:37:00      -16.402       -7.098        8.141       18.969       16.495       15.928      359.830      272.088      253.716        0.064        0.044       17.872       13.009        0.530      341.142       15.651      862.905
10/22/2014  12:38:00       18.687      -51.250       17.038       22.757       42.138       31.709      517.869     1775.649     1005.457        0.328        0.165       54.551       29.631        0.295      341.139       15.644      862.892
10/22/2014  12:39:00      -10.700       16.023       25.735       20.246       25.345       13.845      409.900      642.358      191.676        0.114        0.062       19.267       15.517        0.649      341.288       15.896      862.892
10/22/2014  12:40:00      -16.742       34.465       11.691       17.730       21.160       20.015      314.338      447.742      400.616        0.138        0.058       38.316       15.441        0.162      341.031       15.461      862.871
10/22/2014  12:41:00       11.096       35.553       19.972       27.090       16.969       26.346      733.854      287.960      694.128        0.175        0.086       37.244       16.129        0.188      340.929       15.288      862.848
10/22/2014  12:42:00        1.992        5.199        5.576       22.146       24.761       19.060      490.430      613.103      363.300        0.076        0.073        5.568       10.212        3.365      340.882       15.211      862.832
10/22/2014  12:43:00        3.129       -3.920       16.364       32.522       21.340       19.170     1057.693      455.403      367.484        0.109        0.094        5.016       14.411        8.255      340.836       15.130      862.820
10/22/2014  12:44:00      -16.287      -20.970        2.301       49.104       33.875       27.536     2411.240     1147.505      758.208        0.251        0.216       26.552       16.346        0.379      340.908       15.255      862.820
10/22/2014  12:45:00      -20.682      -62.701        8.301       49.550       31.028       27.454     2455.170      962.741      753.699        0.430        0.209       66.024       22.383        0.115      340.973       15.364      862.830
10/22/2014  12:46:00      -35.409      -32.061        3.042       30.045       38.227       17.700      902.691     1461.278      313.296        0.248        0.134       47.767       15.506        0.105      340.890       15.223      862.838
10/22/2014  12:47:00      -39.513      -23.496       -3.103       33.245       28.934       15.717     1105.231      837.156      247.030        0.216        0.109       45.971        5.289        0.013      340.900       15.239      862.819
10/22/2014  12:48:00      -52.342      -23.486       -0.948       26.581       26.551       19.262      706.543      704.967      371.009        0.254        0.089       57.370        7.639        0.018      341.025       15.451      862.811
10/22/2014  12:49:00      -14.116       -1.575        7.345       14.432       21.836       18.413      208.291      476.810      339.053        0.064        0.051       14.204       12.178        0.735      341.426       16.132      862.791
10/22/2014  12:50:00      -14.227       -7.914       23.657       16.778       32.700       21.843      281.514     1069.277      477.124        0.133        0.091       16.280       21.399        1.728      341.586       16.401      862.760
10/22/2014  12:51:00       11.823        8.802       18.964       30.419       25.512       21.628      925.298      650.846      467.754        0.131        0.102       14.740       18.230        1.530      341.123       15.617      862.736
10/22/2014  12:52:00        2.283       21.796        0.507       24.550       18.239       17.313      602.691      332.664      299.750        0.086        0.062       21.915       11.333        0.267      340.848       15.152      862.721
10/22/2014  12:53:00      -12.149        5.096        7.025       11.143       15.240       13.066      124.177      232.254      170.710        0.037        0.026       13.175        5.704        0.187      341.150       15.664      862.690
10/22/2014  12:54:00        4.741        0.517       20.546       23.343       14.122       10.649      544.903      199.437      113.395        0.065        0.043        4.769        8.490        3.169      341.062       15.514      862.674
10/22/2014  12:55:00      -66.740      -28.011       -0.533       28.209       28.603       18.306      795.733      818.106      335.095        0.359        0.097       72.380       18.049        0.062      340.827       15.116      862.670
10/22/2014  12:56:00      -26.744       42.975       -5.907       13.940       15.990       13.497      194.324      255.694      182.174        0.161        0.032       50.617        6.971        0.019      340.912       15.260      862.673
10/22/2014  12:57:00      -10.354       19.170       25.617       13.806       21.433       19.553      190.606      459.374      382.325        0.108        0.052       21.788       17.017        0.610      341.093       15.568      862.667
10/22/2014  12:58:00      -18.445        2.968       -1.094       25.625       24.235       20.679      656.630      587.351      427.614        0.101        0.084       18.683       11.771        0.397      341.063       15.516      862.666
10/22/2014  12:59:00       26.896        9.121       31.123       24.206       25.665       19.907      585.911      658.684      396.293        0.171        0.082       28.400       18.387        0.419      340.924       15.280      862.672
10/22/2014  13:00:00       -9.829       27.200       -1.401       11.749       13.454       16.703      138.035      180.999      278.980        0.072        0.030       28.921        7.023        0.059      340.982       15.379      862.669
10/22/2014  13:01:00       28.676       16.839       13.903       25.438       15.824       18.920      647.110      250.386      357.954        0.128        0.063       33.255       13.897        0.175      341.145       15.657      862.644
10/22/2014  13:02:00        5.654        1.924       24.686       18.313       29.693       13.231      335.355      881.687      175.048        0.102        0.070        5.972        9.085        2.314      341.154       15.672      862.612
10/22/2014  13:03:00       20.046        1.800       26.981       17.982       21.594       17.945      323.367      466.296      322.015        0.112        0.056       20.127       13.380        0.442      341.065       15.519      862.577
10/22/2014  13:04:00       25.686        5.007        9.732       19.021       20.879       19.682      361.817      435.918      387.398        0.098        0.059       26.170       13.882        0.281      340.766       15.015      862.565
10/22/2014  13:05:00        3.749       27.753       10.662       13.748       19.659       22.308      189.013      386.466      497.667        0.099        0.054       28.005       18.547        0.439      341.028       15.458      862.561
10/22/2014  13:06:00      -24.228       68.887      -23.089       18.479       18.023        8.820      341.461      324.840       77.797        0.330        0.037       73.023        5.024        0.005      341.006       15.419      862.557
10/22/2014  13:07:00        7.070       27.090        2.953       35.605       24.740       23.673     1267.749      612.092      560.407        0.162        0.122       27.997       27.649        0.975      341.214       15.772      862.561
10/22/2014  13:08:00       -2.782       22.607       17.642       34.690       19.598       18.346     1203.393      384.074      336.560        0.138        0.096       22.778       16.990        0.556      341.351       16.004      862.550
10/22/2014  13:09:00       19.334       23.681       12.408       17.908       21.182       13.864      320.708      448.670      192.199        0.102        0.048       30.571        7.837        0.066      341.150       15.663      862.539
10/22/2014  13:10:00       45.310      -13.713        8.572       33.407       19.635       16.791     1116.032      385.524      281.930        0.205        0.089       47.339       11.161        0.056      340.533       14.620      862.526
10/22/2014  13:11:00       51.736      -23.438       -0.575       31.954       36.653       30.175     1021.059     1343.459      910.517        0.325        0.164       56.798       25.619        0.203      340.660       14.834      862.511
10/22/2014  13:12:00       31.993      -17.410        6.470       27.566       27.798       15.429      759.866      772.702      238.048        0.157        0.089       36.424       12.649        0.121      341.026       15.452      862.487
10/22/2014  13:13:00        4.681      -13.827       -0.241       29.211       33.306       15.942      853.294     1109.303      254.137        0.121        0.111       14.597       15.978        1.198      341.213       15.770      862.447
10/22/2014  13:14:00        3.340      -12.284       11.563       28.893       31.523       28.897      834.821      993.719      835.029        0.148        0.133       12.730       23.764        3.485      341.276       15.876      862.418
10/22/2014  13:15:00        2.267       -5.058       11.686       17.362       35.348       22.646      301.433     1249.472      512.832        0.112        0.103        5.543       14.432        6.779      341.388       16.066      862.401
10/22/2014  13:16:00       20.734       14.485        5.895       25.484       24.581       28.150      649.418      604.234      792.419        0.136        0.102       25.292        7.459        0.087      341.293       15.906      862.403
10/22/2014  13:17:00       -0.269       14.527       -1.156       22.077       18.369       14.539      487.377      337.413      211.384        0.062        0.052       14.529       10.221        0.495      341.370       16.037      862.410
10/22/2014  13:18:00       42.570      -65.834       -9.136       46.502       44.694       19.273     2162.473     1997.511      371.438        0.538        0.227       78.398       25.211        0.103      341.222       15.785      862.415
10/22/2014  13:19:00       61.596      -37.436       11.246       52.877       44.657       36.886     2795.932     1994.203     1360.573        0.574        0.308       72.080       36.840        0.261      341.248       15.830      862.406
10/22/2014  13:20:00       44.356      -49.447        0.895       40.777       37.706       25.984     1662.748     1421.760      675.155        0.409        0.188       66.426       20.800        0.098      340.894       15.229      862.397
10/22/2014  13:21:00        2.194      -46.052      -17.780       34.710       29.291       21.536     1204.766      857.959      463.804        0.248        0.126       46.104       15.529        0.113      341.111       15.596      862.382
10/22/2014  13:22:00       10.813      -35.056       10.103       19.423       26.484       24.686      377.243      701.382      609.383        0.157        0.084       36.685       17.885        0.238      341.530       16.307      862.367
10/22/2014  13:23:00       -5.529      -17.719       18.656       23.211       24.658       19.393      538.729      607.996      376.095        0.111        0.076       18.562       16.876        0.827      341.579       16.391      862.361
10/22/2014  13:24:00       21.686      -38.241       -1.208       38.349       24.472       27.731     1470.657      598.858      769.013        0.239        0.142       43.962       14.021        0.102      340.905       15.247      862.349
10/22/2014  13:25:00       37.082      -31.379        1.550       33.950       23.536       18.377     1152.604      553.933      337.721        0.220        0.102       48.577       11.154        0.053      341.130       15.630      862.338
10/22/2014  13:26:00      -20.523       13.340       -9.439       11.637       13.295       11.414      135.425      176.746      130.273        0.057        0.022       24.477        5.501        0.051      341.196       15.741      862.320
10/22/2014  13:27:00      -10.003       20.560       -2.957       12.301       11.180       11.523      151.305      124.986      132.779        0.047        0.020       22.864        7.927        0.120      341.323       15.957      862.306
10/22/2014  13:28:00        2.241       38.636       -8.696       22.591       15.763       14.272      510.365      248.483      203.691        0.127        0.048       38.700        9.929        0.066      341.291       15.903      862.286
10/22/2014  13:29:00       16.615       51.333       -6.914       27.449       21.013       17.842      753.440      441.546      318.334        0.224        0.076       53.955       14.200        0.069      341.285       15.891      862.271
10/22/2014  13:30:00       28.757       25.159        3.112       28.188       18.038       17.003      794.559      325.376      289.111        0.144        0.070       38.209       12.306        0.104      341.253       15.838      862.250
10/22/2014  13:31:00       26.216        3.948        3.650       21.486       16.369       17.116      461.638      267.949      292.952        0.087        0.051       26.512        5.794        0.048      341.039       15.476      862.235
10/22/2014  13:32:00        3.847       19.681        5.313       17.587       12.904       13.846      309.315      166.522      191.721        0.055        0.033       20.053        5.765        0.083      341.214       15.771      862.220
10/22/2014  13:33:00       -1.972       13.109        5.773       22.480       15.084       11.978      505.346      227.533      143.467        0.054        0.044       13.256       11.958        0.814      341.279       15.882      862.207
10/22/2014  13:34:00       19.336       10.862       28.688       33.238       22.590       19.236     1104.739      510.307      370.028        0.165        0.099       22.178       13.172        0.353      341.031       15.463      862.196
10/22/2014  13:35:00        2.643       -0.748       19.361       18.772       19.407       16.477      352.393      376.623      271.477        0.069        0.050        2.747        7.334        7.128      341.313       15.939      862.197
10/22/2014  13:36:00       21.739      -21.403       18.415       32.338       35.591       29.304     1045.758     1266.748      858.717        0.222        0.159       30.507       29.237        0.918      341.417       16.115      862.191
10/22/2014  13:37:00       -4.911        2.580       40.362       15.060       21.538       12.501      226.814      463.903      156.265        0.125        0.042        5.547       11.169        4.054      341.600       16.426      862.180
10/22/2014  13:38:00      -23.349      -14.923      -15.712       34.045       18.005       14.229     1159.052      324.172      202.461        0.135        0.084       27.711        7.120        0.066      341.359       16.017      862.185
10/22/2014  13:39:00        7.903        4.684       -6.286       30.179       28.728       17.837      910.754      825.274      318.149        0.109        0.103        9.186       17.248        3.526      341.393       16.075      862.183
10/22/2014  13:40:00       24.399       17.577      -12.016       29.072       31.252       20.547      845.181      976.699      422.178        0.165        0.112       30.071        7.998        0.071      341.163       15.685      862.180
10/22/2014  13:41:00      -23.576      -10.709      -14.011       16.762       35.075       12.872      280.977     1230.239      165.677        0.127        0.084       25.894       11.764        0.206      341.019       15.442      862.175
10/22/2014  13:42:00        4.259       14.159       -0.117       18.334       17.449       11.467      336.125      304.451      131.488        0.050        0.039       14.786        9.550        0.417      341.285       15.891      862.168
10/22/2014  13:43:00       46.966       -7.782        4.484       20.242       33.213       18.530      409.732     1103.134      343.372        0.207        0.093       47.606       14.561        0.094      340.951       15.327      862.151
10/22/2014  13:44:00       36.490      -26.236      -10.444       13.732       19.198       13.570      188.564      368.553      184.155        0.143        0.037       44.943        4.003        0.008      341.002       15.413      862.140
10/22/2014  13:45:00       17.518      -13.556       11.624       27.437       21.078       17.836      752.793      444.291      318.140        0.107        0.076       22.150       19.398        0.767      341.508       16.269      862.146
10/22/2014  13:46:00       11.065      -14.585       18.114       33.240       27.936       29.994     1104.899      780.441      899.663        0.172        0.139       18.307       22.098        1.457      341.574       16.381      862.149
10/22/2014  13:47:00       49.126      -20.935       16.084       33.013       28.574       21.957     1089.828      816.494      482.119        0.275        0.119       53.401       15.070        0.080      341.611       16.444      862.134
10/22/2014  13:48:00       45.608      -15.868        9.155       35.815       28.187       24.618     1282.745      794.510      606.061        0.255        0.134       48.289       23.048        0.228      341.405       16.094      862.117
10/22/2014  13:49:00       11.025       12.255       30.802       27.608       38.307       24.018      762.191     1467.433      576.854        0.201        0.140       16.485       15.576        0.893      341.771       16.716      862.093
10/22/2014  13:50:00        7.931      -16.244       23.884       29.972       28.202       21.513      898.308      795.369      462.813        0.153        0.108       18.077       15.850        0.769      341.886       16.911      862.070
10/22/2014  13:51:00        6.063      -33.013       -0.973       13.336       38.108       15.758      177.836     1452.185      248.317        0.150        0.094       33.565       10.350        0.095      341.607       16.437      862.032
10/22/2014  13:52:00       16.460      -19.629       18.733       19.276       36.796       21.732      371.553     1353.921      472.280        0.160        0.110       25.617       16.780        0.429      341.875       16.892      862.013
10/22/2014  13:53:00       -9.048        6.922       31.836       10.116       20.072       10.541      102.342      402.900      111.104        0.088        0.031       11.392        8.965        0.619      342.203       17.448      861.995
10/22/2014  13:54:00      -15.661      -18.640        0.815       29.920       28.810       21.775      895.215      829.991      474.142        0.140        0.110       24.345       18.262        0.563      341.893       16.922      861.984
10/22/2014  13:55:00      -33.901        5.186       -3.744       28.620       16.380       19.971      819.095      268.301      398.844        0.134        0.074       34.295       10.773        0.099      341.883       16.905      861.971
10/22/2014  13:56:00       24.522       -2.719       29.760       28.754       24.885       21.973      826.810      619.254      482.831        0.171        0.096       24.672       16.613        0.453      341.888       16.915      861.947
10/22/2014  13:57:00       49.044      -35.393       16.008       34.025       23.025       26.360     1157.718      530.150      694.848        0.315        0.119       60.482       14.754        0.060      341.361       16.019      861.929
10/22/2014  13:58:00       17.254      -53.846        8.569       44.784       55.019       41.684     2005.613     3027.045     1737.591        0.502        0.339       56.543       41.786        0.546      341.827       16.811      861.912
10/22/2014  13:59:00      -23.325      -32.564        4.710       52.606       36.008       26.061     2767.441     1296.542      679.173        0.318        0.237       40.056       15.268        0.145      341.991       17.088      861.891
10/22/2014  14:00:00       -0.748        2.883       16.959       33.930       16.125       24.659     1151.233      260.020      608.074        0.116        0.101        2.979       23.174       60.525      342.289       17.596      861.874
10/22/2014  14:01:00      -25.344      -34.597        5.790       31.641       35.215       20.730     1001.160     1240.118      429.737        0.227        0.134       42.887       18.624        0.189      342.236       17.505      861.870
10/22/2014  14:02:00       -3.547      -64.502        0.623       33.458       35.239       27.550     1119.463     1241.822      759.016        0.365        0.156       64.599       21.889        0.115      341.900       16.934      861.864
10/22/2014  14:03:00      -81.103      -15.181       -3.814       30.811       28.955       19.962      949.300      838.382      398.479        0.450        0.109       82.511       15.147        0.034      341.855       16.858      861.852
10/22/2014  14:04:00      -51.269      -42.506       -7.036       38.010       30.440       18.625     1444.726      926.614      346.883        0.360        0.136       66.598       10.842        0.027      342.075       17.231      861.848
10/22/2014  14:05:00      -44.590      -16.937       21.126       27.245       44.630       23.447      742.280     1991.881      549.758        0.300        0.164       47.699       20.808        0.190      342.130       17.325      861.845
10/22/2014  14:06:00      -64.797       19.429       11.491       33.400       22.770       22.050     1115.572      518.457      486.221        0.341        0.106       67.647       19.567        0.084      342.118       17.304      861.838
10/22/2014  14:07:00      -39.188      -23.345       -2.666       29.102       21.027       17.423      846.919      442.120      303.557        0.184        0.080       45.615       11.549        0.064      342.092       17.258      861.845
10/22/2014  14:08:00      -11.191       13.136       18.095       36.117       34.043       25.942     1304.456     1158.907      672.976        0.188        0.157       17.257       16.798        0.948      341.939       17.001      861.845
10/22/2014  14:09:00        0.137        7.930       15.486       15.600       25.307       22.498      243.370      640.419      506.143        0.085        0.069        7.931       19.224        5.876      342.105       17.282      861.825
10/22/2014  14:10:00      -30.127        9.769       -1.559       30.687       25.380       26.229      941.688      644.120      687.958        0.164        0.114       31.671       12.531        0.157      342.032       17.159      861.816
10/22/2014  14:11:00       14.200        8.154       28.595       23.669       26.078       22.095      560.239      680.064      488.200        0.141        0.086       16.375       11.258        0.473      341.958       17.033      861.802
10/22/2014  14:12:00       24.045       -7.825       33.966       34.493       39.983       29.521     1189.736     1598.610      871.486        0.273        0.183       25.286       17.728        0.492      342.118       17.303      861.775
10/22/2014  14:13:00        7.470       -2.060       34.755       22.485       40.100       30.366      505.567     1607.979      922.072        0.215        0.152        7.749       18.666        5.803      342.234       17.502      861.774
10/22/2014  14:14:00       20.546      -35.746       24.375       28.900       68.989       31.849      835.186     4759.455     1014.367        0.445        0.330       41.229       37.790        0.840      342.301       17.614      861.765
10/22/2014  14:15:00       -5.592       30.257       52.555       25.596       40.383       27.032      655.169     1630.808      730.736        0.336        0.151       30.769       11.328        0.136      342.219       17.475      861.751
10/22/2014  14:16:00       25.247      -10.024       35.973       45.731       49.776       36.952     2091.354     2477.694     1365.462        0.398        0.297       27.164       33.512        1.522      342.261       17.547      861.739
10/22/2014  14:17:00       70.184      -55.498       15.344       39.483       41.241       29.547     1558.934     1700.839      873.043        0.619        0.207       89.476       28.639        0.102      342.067       17.218      861.722
10/22/2014  14:18:00       13.676        3.367       32.313       29.035       31.445       25.366      843.017      988.781      643.455        0.186        0.124       14.085       21.252        2.277      342.204       17.449      861.701
10/22/2014  14:19:00        5.914        0.488       17.315       13.740       11.447       16.315      188.795      131.042      266.175        0.046        0.029        5.934        5.047        0.723      342.450       17.868      861.695
10/22/2014  14:20:00       38.401      -74.774       -2.297       46.826       37.685       31.276     2192.696     1420.196      978.177        0.583        0.230       84.058       21.109        0.063      342.117       17.304      861.672
10/22/2014  14:21:00       82.989     -138.288      -15.404       35.374       30.957       25.514     1251.314      958.325      650.955        1.455        0.143      161.278       17.832        0.012      342.036       17.166      861.662
10/22/2014  14:22:00       31.496      -81.936       -4.044       31.754       35.341       31.471     1008.347     1249.015      990.405        0.548        0.162       87.781       23.592        0.072      342.086       17.249      861.658
10/22/2014  14:23:00       -0.193       -0.166       26.521       17.334       24.623       19.676      300.477      606.308      387.163        0.100        0.065        0.254       16.528     4226.758      342.459       17.884      861.638
10/22/2014  14:24:00        8.622       11.300       23.982       28.423       20.838       17.672      807.857      434.214      312.308        0.117        0.078       14.214       17.106        1.448      342.309       17.628      861.611
10/22/2014  14:25:00       74.990       61.920       29.910       58.411       47.683       30.008     3411.818     2273.681      900.475        0.847        0.329       97.250       18.765        0.037      341.983       17.075      861.591
10/22/2014  14:26:00       50.367       48.736       13.510       47.054       40.389       35.948     2214.089     1631.262     1292.229        0.512        0.257       70.086       21.578        0.095      342.307       17.625      861.560
10/22/2014  14:27:00       17.063       93.874        2.124       44.669       68.699       32.042     1995.325     4719.503     1026.696        0.842        0.387       95.412       39.170        0.169      342.333       17.669      861.533
10/22/2014  14:28:00       20.121       41.475        7.054       30.594       40.148       34.545      936.020     1611.849     1193.353        0.296        0.187       46.098       11.942        0.067      342.534       18.010      861.534
10/22/2014  14:29:00       39.972       24.221       38.941       44.108       31.875       35.303     1945.545     1016.021     1246.331        0.395        0.210       46.738       27.347        0.342      342.372       17.735      861.534
10/22/2014  14:30:00       54.910      -12.097       18.708       35.835       19.828       29.934     1284.166      393.147      896.032        0.304        0.129       56.226       17.809        0.100      342.061       17.208      861.535
10/22/2014  14:31:00       27.258       16.028       17.142       25.765       21.317       19.515      663.813      454.418      380.840        0.140        0.075       31.621       14.315        0.205      342.245       17.521      861.530
10/22/2014  14:32:00       15.667       18.198        0.530       12.344       11.945       11.034      152.363      142.692      121.758        0.050        0.021       24.013        7.190        0.090      342.162       17.379      861.509
10/22/2014  14:33:00      -10.935      -15.584      -12.958       20.172       17.586       12.525      406.909      309.264      156.886        0.070        0.044       19.038        3.714        0.038      342.488       17.933      861.507
10/22/2014  14:34:00       -8.515      -78.272       12.245       33.595       42.671       34.545     1128.616     1820.818     1193.329        0.525        0.207       78.734       20.939        0.071      342.493       17.941      861.490
10/22/2014  14:35:00       32.617      -25.904       40.697       39.543       57.460       41.118     1563.683     3301.623     1690.653        0.497        0.328       41.652       24.395        0.343      342.523       17.992      861.472
10/22/2014  14:36:00       -8.990        9.545       30.138       15.324       19.955       28.387      234.832      398.183      805.845        0.126        0.072       13.112       17.480        1.777      342.644       18.198      861.457
10/22/2014  14:37:00      -19.071      -31.728        6.477       56.177       51.364       30.273     3155.847     2638.228      916.444        0.406        0.336       37.019       32.302        0.761      342.601       18.124      861.413
10/22/2014  14:38:00      -22.868      -47.214       11.889       35.489       54.677       40.496     1259.476     2989.602     1639.906        0.439        0.294       52.460       42.310        0.650      342.744       18.369      861.388
10/22/2014  14:39:00      -24.873        8.318       15.255       32.017       29.799       21.276     1025.096      887.984      452.673        0.164        0.118       26.227       10.296        0.154      342.889       18.616      861.356
10/22/2014  14:40:00       16.145      -35.600       -2.014       53.098       40.790       31.176     2819.358     1663.829      971.968        0.349        0.273       39.090       25.217        0.416      342.506       17.963      861.356
10/22/2014  14:41:00       17.843      -33.305        9.859       46.016       40.443       32.960     2117.499     1635.667     1086.342        0.318        0.242       37.784       12.627        0.112      342.449       17.866      861.367
10/22/2014  14:42:00      -24.662      -46.372       11.399       84.955       39.447       37.239     7217.332     1556.028     1386.746        0.652        0.508       52.522       47.983        0.835      342.368       17.729      861.376
10/22/2014  14:43:00     -107.213      -74.327       -8.559       52.367       33.906       22.090     2742.292     1149.630      487.955        1.074        0.219      130.458       16.338        0.016      342.386       17.758      861.389
10/22/2014  14:44:00      -69.980      -19.023        0.531       33.686       30.674       16.699     1134.745      940.874      278.858        0.381        0.118       72.519       12.697        0.031      342.495       17.944      861.399
10/22/2014  14:45:00       16.949       11.457       18.778       27.259       18.418       19.517      743.071      339.206      380.930        0.112        0.073       20.458       11.939        0.341      342.197       17.437      861.403
10/22/2014  14:46:00       78.378       79.573       32.221       30.392       35.243       34.754      923.698     1242.040     1207.873        0.844        0.169      111.692       20.048        0.032      342.019       17.136      861.403
10/22/2014  14:47:00       55.328      -51.462        4.887       57.786       56.543       30.790     3339.186     3197.155      948.018        0.661        0.374       75.561       37.537        0.247      342.510       17.968      861.397
10/22/2014  14:48:00        1.077      -55.060        1.292       33.184       53.086       29.291     1101.161     2818.142      857.974        0.391        0.239       55.071       31.944        0.336      342.846       18.544      861.394
10/22/2014  14:49:00      -15.598        7.549       20.480       34.981       24.061       24.626     1223.668      578.940      606.422        0.156        0.120       17.329       23.003        1.762      342.942       18.705      861.404
10/22/2014  14:50:00      -78.072        3.278      -17.154       27.204       25.661       16.759      740.066      658.467      280.852        0.404        0.084       78.141       15.714        0.040      342.783       18.436      861.414
10/22/2014  14:51:00      -69.588      -16.444        2.482       51.434       37.309       25.472     2645.424     1391.993      648.821        0.490        0.234       71.504       30.622        0.183      343.212       19.165      861.422
10/22/2014  14:52:00      -39.786        3.073        5.708       40.706       24.887       21.475     1656.959      619.383      461.155        0.218        0.137       39.905       25.358        0.404      343.248       19.227      861.409
10/22/2014  14:53:00      -28.631       27.270       14.594       20.580       25.518       21.585      423.540      651.153      465.924        0.166        0.077       39.540       17.872        0.204      343.251       19.231      861.389
10/22/2014  14:54:00       44.160       18.663       21.950       20.415       21.240       29.195      416.778      451.151      852.346        0.225        0.086       47.942       12.744        0.071      342.893       18.622      861.349
10/22/2014  14:55:00       31.086       67.898       -3.609       28.327       38.880       24.457      802.396     1511.617      598.159        0.425        0.146       74.676       22.147        0.088      342.755       18.386      861.334
10/22/2014  14:56:00       28.420       80.475      -13.364       20.844       25.197       19.840      434.460      634.899      393.612        0.446        0.073       85.346        9.287        0.012      342.595       18.116      861.342
10/22/2014  14:57:00       -9.497      120.528      -14.459       22.135       28.630       29.363      489.954      819.692      862.157        0.850        0.109      120.901       15.407        0.016      342.640       18.193      861.376
10/22/2014  14:58:00     -109.667       56.461       -4.431       40.533       45.915       31.412     1642.927     2108.230      986.742        0.999        0.237      123.348       24.288        0.039      342.898       18.631      861.382
10/22/2014  14:59:00      -29.388        7.161       11.506       33.006       18.160       18.321     1089.428      329.791      335.644        0.140        0.088       30.248       13.714        0.206      343.489       19.638      861.378
10/22/2014  15:00:00       19.615       31.952        1.625       46.726       25.976       19.218     2183.279      674.727      369.318        0.232        0.161       37.493       24.339        0.421      342.864       18.574      861.369
10/22/2014  15:01:00       67.868       -2.175       20.338       33.524       29.107       27.857     1123.848      847.222      776.030        0.389        0.137       67.903       13.897        0.042      342.325       17.657      861.351
10/22/2014  15:02:00       18.478       -1.125       22.010       43.724       45.966       24.411     1911.828     2112.846      595.901        0.272        0.231       18.512       26.629        2.069      342.448       17.865      861.349
10/22/2014  15:03:00       78.913      -36.007       12.029       51.839       48.589       37.714     2687.289     2360.911     1422.339        0.707        0.324       86.739       30.033        0.120      342.343       17.686      861.345
10/22/2014  15:04:00       45.121      -37.615       25.662       31.410       68.248       34.762      986.588     4657.756     1208.378        0.548        0.343       58.743       37.766        0.413      342.686       18.270      861.352
10/22/2014  15:05:00       -3.433       20.800       47.657       25.095       42.421       27.758      629.751     1799.519      770.503        0.296        0.160       21.082       26.138        1.537      342.882       18.603      861.340
10/22/2014  15:06:00       -6.233        4.191        4.781       26.376       37.206       18.269      695.672     1384.269      333.771        0.125        0.121        7.511       18.444        6.031      342.848       18.546      861.357
10/22/2014  15:07:00       18.982       12.621        4.077       29.623       23.510       23.045      877.498      552.733      531.077        0.125        0.098       22.795        4.976        0.048      342.922       18.669      861.366
10/22/2014  15:08:00        7.583      -37.733       -7.228       38.052       32.254       22.972     1447.967     1040.341      527.733        0.227        0.151       38.487       18.993        0.244      342.544       18.027      861.365
10/22/2014  15:09:00       67.352       64.053       50.515       30.912       28.799       30.660      955.541      829.375      940.058        0.696        0.136       92.947       16.572        0.032      342.609       18.138      861.363
10/22/2014  15:10:00       95.622       63.657       36.131       13.878       13.493       17.438      192.586      182.060      304.066        0.759        0.034      114.873        6.318        0.003      342.729       18.342      861.353
10/22/2014  15:11:00       45.007       34.509       -1.035       30.816       19.152       17.444      949.643      366.792      304.288        0.242        0.081       56.714        8.766        0.024      342.806       18.472      861.345
10/22/2014  15:12:00        9.529       36.325        3.408       22.335       27.151       13.960      498.843      737.150      194.870        0.143        0.072       37.554       10.918        0.085      342.901       18.635      861.332
10/22/2014  15:13:00       20.398       16.729        2.439       13.335       21.586       12.808      177.832      465.954      164.049        0.075        0.040       26.380        5.746        0.047      342.794       18.452      861.313
10/22/2014  15:14:00      -24.460       10.475       -9.196       14.816       16.817       12.673      219.520      282.808      160.617        0.073        0.033       26.609        9.774        0.135      342.915       18.660      861.313
10/22/2014  15:15:00       -6.365       -5.792        8.902       28.965       24.031       22.071      838.984      577.487      487.107        0.103        0.095        8.605       12.111        1.981      343.287       19.294      861.312
10/22/2014  15:16:00       32.236      -25.753       -2.222       26.127       18.947       23.294      682.625      358.973      542.625        0.165        0.079       41.260       12.752        0.096      342.244       17.519      861.331
10/22/2014  15:17:00       15.654       -1.328       22.447       15.338       16.129       16.506      235.249      260.158      272.443        0.076        0.038       15.710       10.530        0.449      342.776       18.423      861.350
10/22/2014  15:18:00       35.442        7.122        2.370       17.841       11.619       16.591      318.284      134.994      275.259        0.102        0.036       36.150        8.131        0.051      342.726       18.339      861.362
10/22/2014  15:19:00       24.634       19.142        8.647       19.618       36.291       33.420      384.875     1317.016     1116.880        0.193        0.141       31.197       24.914        0.638      342.640       18.191      861.370
10/22/2014  15:20:00       39.077       -1.784        2.374       25.516       27.932       15.041      651.090      780.220      226.218        0.160        0.083       39.118        9.649        0.061      342.514       17.977      861.380
10/22/2014  15:21:00       34.910       -5.727        3.020       16.649       14.858       15.083      277.199      220.771      227.502        0.099        0.036       35.376       11.160        0.100      342.625       18.166      861.388
10/22/2014  15:22:00       15.191       14.036       -2.396       36.856       19.851       15.476     1358.351      394.053      239.504        0.121        0.100       20.682       15.414        0.555      342.859       18.562      861.381
10/22/2014  15:23:00      -70.607      -23.603       -2.559       18.375       28.023       16.231      337.622      785.292      263.436        0.347        0.069       74.447       10.893        0.021      343.094       18.963      861.368
10/22/2014  15:24:00      -13.808       11.642       26.917       16.119       23.994       17.341      259.821      575.695      300.705        0.109        0.057       18.061       17.155        0.902      343.084       18.946      861.369
10/22/2014  15:25:00       28.603      -35.577       11.480       35.079       28.430       18.488     1230.561      808.280      341.792        0.230        0.119       45.649       16.438        0.130      342.766       18.406      861.360
10/22/2014  15:26:00       42.494      -12.443       25.342       35.434       19.406       18.793     1255.599      376.609      353.183        0.229        0.099       44.278       14.603        0.109      342.590       18.106      861.349
10/22/2014  15:27:00       36.723      -35.602       -1.698       25.954       40.491       22.910      673.603     1639.509      524.848        0.273        0.142       51.148       22.172        0.188      342.426       17.828      861.361
10/22/2014  15:28:00       20.129       -9.371       10.087       22.015       54.878       26.919      484.652     3011.545      724.652        0.241        0.211       22.204       21.159        0.908      342.612       18.143      861.365
10/22/2014  15:29:00       32.635       14.286       33.290       37.357       52.969       38.413     1395.572     2805.752     1475.588        0.403        0.284       35.625       41.939        1.386      342.607       18.135      861.382
10/22/2014  15:30:00       46.209        2.019       -1.164       37.610       42.791       22.650     1414.528     1831.044      513.000        0.295        0.188       46.253       13.032        0.079      342.535       18.013      861.389
10/22/2014  15:31:00       56.849      -67.646       -1.489       42.591       44.543       33.420     1814.032     1984.092     1116.920        0.636        0.246       88.362       26.338        0.089      342.856       18.559      861.395
10/22/2014  15:32:00       65.819      -66.945       -3.493       40.608       47.206       30.182     1648.970     2228.375      910.937        0.681        0.239       93.881       35.088        0.140      343.075       18.932      861.407
10/22/2014  15:33:00       32.517      -52.256       12.979       39.485       48.212       23.066     1559.035     2324.406      532.041        0.419        0.221       61.548       26.634        0.187      343.176       19.103      861.409
10/22/2014  15:34:00       15.639       -0.218       33.576       35.084       46.270       24.144     1230.916     2140.938      582.955        0.266        0.198       15.640       30.489        3.800      342.924       18.675      861.403
10/22/2014  15:35:00       49.177      -18.914       19.255       27.575       25.237       18.483      760.399      636.885      341.607        0.244        0.087       52.688       14.732        0.078      343.027       18.850      861.404
10/22/2014  15:36:00       27.053       19.661      -13.286       12.110        9.859       12.493      146.653       97.198      156.063        0.085        0.020       33.443        8.224        0.060      343.033       18.860      861.405
10/22/2014  15:37:00        6.625       26.672       -4.048       13.223        9.567       12.080      174.854       91.536      145.934        0.059        0.021       27.482        9.666        0.124      343.076       18.934      861.399
10/22/2014  15:38:00        3.972        5.217        2.100        7.667       21.563        6.255       58.780      464.948       39.124        0.031        0.028        6.557        7.547        1.325      343.327       19.362      861.387
10/22/2014  15:39:00       31.646       -3.452       -3.484       21.983       18.324       23.607      483.274      335.756      557.289        0.120        0.069       31.834       18.971        0.355      343.013       18.826      861.366
10/22/2014  15:40:00       56.263       -7.821        9.743       27.736       25.767       16.919      769.308      663.954      286.249        0.252        0.086       56.804        8.949        0.025      342.861       18.567      861.352
10/22/2014  15:41:00       56.486       -6.177       14.601       42.865       26.310       31.364     1837.389      692.232      983.684        0.348        0.176       56.823       31.131        0.300      342.897       18.628      861.322
10/22/2014  15:42:00       88.118       -6.053       26.237       27.919       23.333       24.466      779.454      544.438      598.589        0.521        0.096       88.326       19.490        0.049      342.616       18.150      861.287
10/22/2014  15:43:00       65.245      -38.573       23.180       25.979       20.462       20.245      674.916      418.683      409.847        0.389        0.075       75.795       17.022        0.050      342.923       18.673      861.260
10/22/2014  15:44:00       19.504       -7.399       22.889       27.949       36.844       21.845      781.172     1357.448      477.192        0.179        0.131       20.860       13.459        0.416      343.048       18.885      861.231
10/22/2014  15:45:00       33.856       -5.266       37.226       25.239       42.368       22.331      637.001     1795.005      498.686        0.274        0.147       34.263       19.355        0.319      343.095       18.965      861.218
10/22/2014  15:46:00       73.714       54.361       20.339       35.067       26.042       28.549     1229.683      678.193      815.036        0.576        0.136       91.591       11.294        0.015      343.040       18.872      861.208
10/22/2014  15:47:00       67.784       58.935        8.789       39.061       35.770       31.215     1525.726     1279.511      974.375        0.596        0.189       89.823       16.296        0.033      343.246       19.221      861.203
10/22/2014  15:48:00       24.763       45.868        2.961       24.922       28.089       19.903      621.099      789.018      396.130        0.227        0.090       52.125       17.217        0.109      343.383       19.455      861.198
10/22/2014  15:49:00       55.638       57.288        8.422       41.753       30.354       32.153     1743.288      921.347     1033.807        0.507        0.185       79.859       20.354        0.065      343.381       19.452      861.207
10/22/2014  15:50:00       45.160       50.611        3.682       42.142       27.430       23.276     1775.949      752.428      541.779        0.384        0.154       67.830       16.264        0.057      343.380       19.452      861.199
10/22/2014  15:51:00      -15.589       69.628       -8.806       27.967       20.624       15.580      782.128      425.352      242.748        0.331        0.073       71.352        9.134        0.016      343.443       19.559      861.192
10/22/2014  15:52:00      -18.090       63.883      -11.658       18.999       15.611        9.540      360.977      243.704       91.017        0.262        0.035       66.395        7.051        0.011      343.426       19.529      861.174
10/22/2014  15:53:00        2.332       98.019      -16.104       18.782       26.720        9.217      352.749      713.939       84.947        0.551        0.058       98.047        7.911        0.007      343.390       19.465      861.174
10/22/2014  15:54:00        2.334       57.735      -11.886       19.928       30.147       14.212      397.141      908.813      201.984        0.249        0.075       57.782       13.400        0.054      343.455       19.579      861.181
10/22/2014  15:55:00       41.664       30.913       10.219       55.373       24.102       21.821     3066.147      580.888      476.150        0.346        0.206       51.880       13.358        0.066      343.477       19.616      861.179
10/22/2014  15:56:00       69.314       22.290       17.721       26.180       24.437       22.601      685.366      597.154      510.818        0.370        0.090       72.809       12.168        0.028      343.114       18.999      861.188
10/22/2014  15:57:00       34.499       23.405        5.950       21.440       22.001       16.460      459.676      484.054      270.916        0.149        0.061       41.689        4.333        0.011      343.217       19.173      861.195
10/22/2014  15:58:00       -5.421      101.565      -10.433       21.590       23.380       20.128      466.145      546.638      405.121        0.594        0.071      101.710       13.431        0.017      343.567       19.768      861.193
10/22/2014  15:59:00       -1.218       12.215        8.910       13.763       22.002       14.760      189.410      484.069      217.860        0.056        0.045       12.275       11.015        0.805      343.829       20.216      861.184
10/22/2014  16:00:00       -4.038       60.493       -1.984       15.017       37.196       13.175      225.514     1383.530      173.594        0.273        0.089       60.627       16.247        0.072      343.726       20.039      861.172
10/22/2014  16:01:00      -21.346       77.329      -10.903       17.799       33.214       19.973      316.820     1103.200      398.912        0.419        0.091       80.221       18.103        0.051      343.503       19.660      861.162
10/22/2014  16:02:00      -23.852       77.532      -17.157       13.064       19.724       11.137      170.663      389.045      124.038        0.378        0.034       81.118        5.955        0.005      343.534       19.712      861.154
10/22/2014  16:03:00       -4.658       62.288       -9.609       13.087       19.200       17.749      171.276      368.646      315.025        0.242        0.043       62.462        9.796        0.025      343.585       19.799      861.149
10/22/2014  16:04:00      -42.232       24.213        2.396       24.301       22.673       20.709      590.562      514.081      428.842        0.195        0.077       48.681       16.411        0.114      343.955       20.431      861.145
10/22/2014  16:05:00      -73.025       42.784      -14.136       18.807       22.100       15.660      353.689      488.430      245.229        0.422        0.054       84.635       11.509        0.018      343.775       20.126      861.132
10/22/2014  16:06:00      -60.553       32.883      -16.711       24.181       25.528       17.430      584.733      651.690      303.808        0.328        0.077       68.905       15.807        0.053      343.741       20.067      861.122
10/22/2014  16:07:00      -57.702       29.192      -14.257       10.976       20.218       13.054      120.474      408.787      170.403        0.254        0.035       64.666        9.072        0.020      343.627       19.872      861.109
10/22/2014  16:08:00       -8.278       25.584      -17.781       28.473       28.566       12.575      810.690      816.002      158.125        0.141        0.089       26.890       14.979        0.310      343.716       20.023      861.109
10/22/2014  16:09:00      -15.100       29.057       -0.176       23.118       34.955       11.191      534.461     1221.884      125.238        0.148        0.094       32.746       12.140        0.137      343.741       20.066      861.108
10/22/2014  16:10:00      -48.300       65.459       -7.121       19.490       18.239       16.146      379.851      332.651      260.688        0.382        0.049       81.350       11.369        0.020      343.663       19.933      861.100
10/22/2014  16:11:00      -29.734       25.027      -10.172       12.682       19.066       15.559      160.824      363.502      242.090        0.119        0.038       38.865       13.325        0.118      343.794       20.157      861.091
10/22/2014  16:12:00        1.534       46.669        5.207       18.552       17.956       19.862      344.165      322.406      394.503        0.163        0.053       46.694       15.144        0.105      343.472       19.607      861.080
10/22/2014  16:13:00      -10.984       26.610        8.270       17.438       17.420       10.950      304.084      303.466      119.905        0.081        0.036       28.788        6.969        0.059      342.973       18.759      861.073
10/22/2014  16:14:00       -0.344       36.886        9.229       26.322       14.142       19.164      692.866      200.009      367.273        0.135        0.063       36.888       16.401        0.198      343.295       19.306      861.069
10/22/2014  16:15:00       21.873       -3.880       20.816       28.869       20.614       24.225      833.443      424.950      586.833        0.139        0.092       22.214       15.444        0.483      343.417       19.513      861.054
10/22/2014  16:16:00       27.873       10.262       -1.885       14.340       14.928       13.075      205.626      222.831      170.953        0.074        0.030       29.702        9.509        0.102      343.515       19.681      861.036
10/22/2014  16:17:00       35.328       31.806        5.928       29.628       21.397       17.370      877.815      457.842      301.732        0.197        0.082       47.537        8.503        0.032      343.490       19.638      861.011
10/22/2014  16:18:00       43.539       75.647      -11.595       28.563       46.488       15.968      815.834     2161.118      254.986        0.549        0.162       87.282       21.724        0.062      343.608       19.841      860.990
10/22/2014  16:19:00       76.074       36.318       11.162       23.173       33.860       30.356      536.984     1146.512      921.489        0.492        0.130       84.299       22.718        0.073      343.469       19.600      860.971
10/22/2014  16:20:00       20.590       82.391      -10.856       25.641       31.935       18.855      657.486     1019.853      355.519        0.468        0.102       84.925       20.626        0.059      343.603       19.833      860.947
10/22/2014  16:21:00      -48.046      100.601      -11.939       49.268       56.678       23.917     2427.345     3212.390      572.044        0.939        0.311      111.485       26.700        0.057      343.724       20.036      860.934
10/22/2014  16:22:00     -121.098       74.577      -20.211       49.648       30.902       21.182     2464.949      954.961      448.675        1.225        0.193      142.220       21.308        0.022      343.737       20.059      860.936
10/22/2014  16:23:00     -107.975       40.564      -17.067       59.428       36.827       18.476     3531.719     1356.206      341.379        0.941        0.261      115.343       19.670        0.029      343.689       19.977      860.947
10/22/2014  16:24:00      -67.091       -6.151      -14.079       35.862       21.835       19.298     1286.092      476.763      372.422        0.344        0.107       67.372       17.432        0.067      343.683       19.969      860.943
10/22/2014  16:25:00       10.163       13.998        4.447        7.427        7.458       11.683       55.167       55.617      136.498        0.028        0.012       17.298        5.337        0.095      343.742       20.068      860.922
10/22/2014  16:26:00       32.436        0.915        2.188       22.558       18.673       15.745      508.869      348.699      247.893        0.108        0.055       32.449        9.087        0.078      343.291       19.298      860.902
10/22/2014  16:27:00       10.802       40.675        3.697       18.290       17.126       12.146      334.532      293.303      147.534        0.128        0.039       42.085       10.025        0.057      343.508       19.669      860.896
10/22/2014  16:28:00       11.862       45.339        2.635       29.527       38.627       14.389      871.819     1492.076      207.045        0.239        0.129       46.865       17.079        0.133      343.731       20.048      860.878
10/22/2014  16:29:00       20.191       34.052        4.447       23.981       23.253       14.218      575.087      540.723      202.162        0.145        0.066       39.588       13.722        0.120      343.735       20.055      860.867
10/22/2014  16:30:00       -4.158       27.326       -0.240       12.833       19.814       11.498      164.674      392.609      132.212        0.073        0.034       27.640        7.994        0.084      343.811       20.186      860.866
10/22/2014  16:31:00      -45.139      -35.503        1.267       44.522       43.667       18.722     1982.212     1906.802      350.512        0.377        0.212       57.428       21.761        0.144      343.986       20.483      860.855
10/22/2014  16:32:00      -84.984      -18.435        3.347       43.150       30.743       21.842     1861.955      945.131      477.062        0.543        0.164       86.960       22.775        0.069      343.928       20.386      860.838
10/22/2014  16:33:00     -103.361      -49.729      -13.998       21.215       16.894       15.028      450.061      285.405      225.850        0.716        0.048      114.702        5.750        0.003      343.884       20.308      860.828
10/22/2014  16:34:00      -86.001      -21.247       -9.010       19.277       27.339       11.425      371.613      747.420      130.530        0.459        0.062       88.587       11.446        0.017      343.890       20.320      860.821
10/22/2014  16:35:00      -48.944      -29.760       -1.083       44.568       37.703       18.943     1986.288     1421.497      358.831        0.352        0.188       57.281       15.362        0.072      343.829       20.216      860.813
10/22/2014  16:36:00        1.518        6.445       18.637       19.249       21.793       12.347      370.507      474.955      152.453        0.069        0.050        6.621       11.588        3.063      343.579       19.791      860.812
10/22/2014  16:37:00       17.550       -2.991       16.302       37.084       19.989       16.030     1375.250      399.544      256.951        0.131        0.102       17.803       10.994        0.381      343.347       19.395      860.813
10/22/2014  16:38:00     -126.898      -90.567      -10.995       47.954       43.379       29.317     2299.612     1881.753      859.466        1.473        0.252      155.902       25.639        0.027      343.884       20.311      860.820
10/22/2014  16:39:00     -181.423     -122.671      -15.011       40.200       40.828       28.658     1616.074     1666.915      821.285        2.615        0.205      219.003       21.672        0.010      343.861       20.268      860.823
10/22/2014  16:40:00     -140.709     -117.810       -4.831       88.584       55.784       34.163     7847.128     3111.847     1167.133        2.291        0.606      183.517       30.618        0.028      343.916       20.362      860.820
10/22/2014  16:41:00     -156.587      -93.055      -10.193       48.475       30.312       20.146     2349.819      918.799      405.881        1.848        0.184      182.150       11.531        0.004      343.966       20.449      860.818
10/22/2014  16:42:00      -58.271      -57.063        5.300       52.019       30.685       27.522     2705.930      941.548      757.470        0.554        0.220       81.558       22.708        0.078      344.143       20.752      860.810
10/22/2014  16:43:00      -54.960       -2.097        0.759       20.081       20.649       13.904      403.246      426.401      193.331        0.202        0.051       55.000       11.419        0.043      344.170       20.799      860.792
10/22/2014  16:44:00      -16.364       36.387       11.371       25.835       34.464       22.952      667.465     1187.786      526.811        0.205        0.119       39.898       14.664        0.135      344.099       20.679      860.771
10/22/2014  16:45:00        3.835      -26.041       11.872       55.407       36.363       28.659     3069.986     1322.249      821.312        0.302        0.261       26.322       23.104        0.770      343.759       20.097      860.772
10/22/2014  16:46:00      -49.177        6.075       17.537       48.101       41.578       28.967     2313.706     1728.758      839.095        0.382        0.244       49.551       13.965        0.079      344.093       20.667      860.779
10/22/2014  16:47:00        4.320      -44.875       10.391       27.461       29.675       25.418      754.101      880.630      646.053        0.221        0.114       45.082       17.191        0.145      343.854       20.260      860.780
10/22/2014  16:48:00       -0.095      -16.698       13.289       16.759       33.840       15.222      280.876     1145.173      231.709        0.106        0.083       16.699       16.362        0.960      344.041       20.580      860.787
10/22/2014  16:49:00       -3.061        7.642       22.689       24.331       30.863       14.716      592.016      952.496      216.560        0.117        0.088        8.233        7.336        0.794      343.770       20.116      860.782
10/22/2014  16:50:00      -36.586       -8.306       13.417       47.716       31.801       20.353     2276.809     1011.292      414.249        0.264        0.185       37.517       21.083        0.316      343.942       20.410      860.779
10/22/2014  16:51:00       23.635      -35.352        1.156       41.894       25.583       20.337     1755.124      654.500      413.579        0.232        0.141       42.525       19.228        0.204      343.621       19.862      860.787
10/22/2014  16:52:00      -13.735      -31.732        3.478       31.509       33.721       22.158      992.830     1137.138      490.995        0.191        0.131       34.578       19.032        0.303      344.058       20.608      860.803
10/22/2014  16:53:00        2.716        6.211       23.138       32.279       25.140       20.814     1041.946      632.021      433.227        0.134        0.105        6.779       16.424        5.870      343.744       20.071      860.826
10/22/2014  16:54:00      -18.054      -27.046       -3.170       23.072       34.190       23.274      532.338     1168.980      541.667        0.165        0.112       32.519       20.080        0.381      343.581       19.794      860.848
10/22/2014  16:55:00       17.650      -36.667        5.943       33.892       27.230       27.772     1148.701      741.474      771.276        0.218        0.133       40.693       24.274        0.356      343.938       20.402      860.871
10/22/2014  16:56:00       -5.797       10.152       23.567       18.343       22.515       14.885      336.468      506.910      221.573        0.088        0.053       11.690       10.551        0.815      344.084       20.652      860.882
10/22/2014  16:57:00       -0.072      -26.484        9.133       24.249       31.297       24.576      588.007      979.477      603.970        0.148        0.109       26.484       15.490        0.342      343.668       19.942      860.881
10/22/2014  16:58:00       26.755      -79.534      -13.446       29.054       42.094       33.093      844.148     1771.936     1095.131        0.547        0.186       83.914       29.776        0.126      343.861       20.271      860.871
10/22/2014  16:59:00       28.867        3.278       25.139       33.613       21.946       17.682     1129.810      481.618      312.657        0.170        0.096       29.053       10.687        0.135      343.844       20.240      860.858
10/22/2014  17:00:00       33.748       -3.301       11.787       24.701       14.185       13.206      610.127      201.206      174.411        0.114        0.049       33.909        7.679        0.051      343.334       19.373      860.830
10/22/2014  17:01:00       22.008      -18.340        9.687       26.724       16.845       12.029      714.192      283.764      144.698        0.103        0.057       28.648        8.607        0.090      343.704       20.003      860.807
10/22/2014  17:02:00       54.292      -56.743        7.981       41.912       34.903       23.195     1756.630     1218.232      537.990        0.487        0.176       78.533       21.563        0.075      343.923       20.376      860.785
10/22/2014  17:03:00       29.361      -16.870       25.751       34.630       28.610       18.114     1199.258      818.559      328.105        0.208        0.117       33.862       19.159        0.320      343.747       20.076      860.762
10/22/2014  17:04:00        8.279      -12.040       10.055       25.902       24.587       23.262      670.894      604.512      541.120        0.107        0.091       14.612       13.853        0.899      343.544       19.731      860.748
10/22/2014  17:05:00       35.805       13.160       -4.516       25.944       29.860       24.704      673.076      891.627      610.273        0.182        0.109       38.146       18.081        0.225      343.360       19.415      860.747
10/22/2014  17:06:00       87.454       38.727       -4.626       33.086       27.994       19.875     1094.664      783.652      395.024        0.572        0.114       95.645       12.181        0.016      343.667       19.941      860.733
10/22/2014  17:07:00       25.520      -50.946      -20.523       25.062       19.261       14.141      628.112      370.998      199.964        0.243        0.060       56.980       10.106        0.031      343.159       19.075      860.735
10/22/2014  17:08:00      -12.492      -21.420        0.957       36.200       13.304       12.582     1310.418      176.999      158.314        0.113        0.082       24.797       11.807        0.227      343.707       20.007      860.743
10/22/2014  17:09:00      -27.592       -1.194        5.215       20.339       22.429       12.264      413.658      503.073      150.414        0.093        0.053       27.618       10.111        0.134      343.812       20.188      860.733
10/22/2014  17:10:00       -5.342      -36.334        0.973       15.567       29.558       16.375      242.347      873.670      268.129        0.137        0.069       36.724       11.227        0.093      344.058       20.607      860.711
10/22/2014  17:11:00       13.832      -28.526        8.732       24.075       18.799       16.638      579.593      353.417      276.838        0.115        0.060       31.703       12.228        0.149      343.558       19.756      860.681
10/22/2014  17:12:00      -89.729      -62.433        3.667       61.431       29.242       15.065     3773.817      855.071      226.945        0.841        0.243      109.312       11.269        0.011      343.842       20.239      860.671
10/22/2014  17:13:00     -137.038      -33.289       -5.419       51.571       55.543       30.802     2659.576     3085.056      948.733        1.330        0.335      141.023       20.351        0.021      344.128       20.725      860.661
10/22/2014  17:14:00      -49.772       -8.619        8.853       45.083       39.120       24.071     2032.499     1530.356      579.402        0.339        0.207       50.512       18.368        0.132      344.078       20.641      860.638
10/22/2014  17:15:00        6.953      -21.845       23.753       19.881       48.307       22.766      395.239     2333.579      518.307        0.217        0.162       22.925       24.675        1.159      343.588       19.805      860.614
10/22/2014  17:16:00       -0.249      -55.946        3.576       38.766       34.902       26.051     1502.815     1218.154      678.677        0.327        0.170       55.946       14.559        0.068      344.081       20.647      860.599
10/22/2014  17:17:00      -60.852      -31.711      -13.824       42.834       29.045       20.304     1834.761      843.603      412.262        0.399        0.155       68.619       17.541        0.065      344.262       20.956      860.584
10/22/2014  17:18:00      -73.825      -70.994       -0.268       87.641       66.760       20.513     7681.015     4456.923      420.771        1.152        0.628      102.422       28.367        0.077      344.214       20.871      860.599
10/22/2014  17:19:00     -112.293      -81.691        9.187       84.049       53.674       32.579     7064.297     2880.876     1061.386        1.519        0.550      138.864       38.578        0.077      344.233       20.906      860.623
10/22/2014  17:20:00       14.721      -60.028        5.282       36.286       29.083       22.304     1316.687      845.829      497.452        0.325        0.133       61.807       14.649        0.056      344.029       20.556      860.638
10/22/2014  17:21:00       70.337      -54.041       -3.240       53.190       52.149       41.250     2829.162     2719.565     1701.562        0.756        0.363       88.700       36.033        0.165      343.848       20.249      860.639
10/22/2014  17:22:00       10.253       17.567       42.970       41.960       44.692       28.085     1760.634     1997.341      788.755        0.340        0.227       20.340       24.441        1.444      343.796       20.158      860.621
10/22/2014  17:23:00       42.452      -64.129       -0.470       35.450       36.183       23.203     1256.681     1309.225      538.384        0.451        0.155       76.907       17.731        0.053      343.709       20.012      860.592
10/22/2014  17:24:00       -1.903      -61.092      -14.954       39.061       35.529       23.004     1525.785     1262.316      529.206        0.364        0.166       61.122       14.925        0.060      344.034       20.568      860.558
10/22/2014  17:25:00       -1.590      -88.041       11.538       34.646       83.038       23.844     1200.360     6895.333      568.548        0.827        0.433       88.055       23.253        0.070      344.144       20.752      860.538
10/22/2014  17:26:00      -25.548     -109.226        7.615       46.731       35.872       22.571     2183.788     1286.812      509.443        0.831        0.199      112.174       18.473        0.027      344.216       20.879      860.523
10/22/2014  17:27:00      -70.173      -91.495        4.218       41.823       40.691       28.989     1749.124     1655.752      840.348        0.878        0.212      115.306       28.353        0.060      344.210       20.867      860.518
10/22/2014  17:28:00     -105.531     -113.086      -17.296       33.131       34.769       22.027     1097.675     1208.855      485.169        1.351        0.140      154.678       18.068        0.014      344.197       20.845      860.514
10/22/2014  17:29:00      -40.402      -41.585        4.348       40.529       21.203       22.899     1642.593      449.547      524.360        0.300        0.131       57.979       17.138        0.087      344.259       20.951      860.504
10/22/2014  17:30:00      -82.977     -158.076        2.718       43.101       78.402       27.190     1857.709     6146.798      739.270        2.031        0.437      178.531       18.516        0.011      344.221       20.882      860.489
10/22/2014  17:31:00      -26.884     -158.931        8.001       34.222       76.818       23.825     1171.123     5901.071      567.632        1.684        0.382      161.189       25.922        0.026      344.200       20.848      860.463
10/22/2014  17:32:00      -93.252     -113.010       -2.304       68.118       94.396       33.070     4640.039     8910.647     1093.609        1.806        0.732      146.517       40.938        0.078      344.196       20.842      860.453
10/22/2014  17:33:00     -171.542     -100.983       -3.262       74.302       48.220       37.970     5520.756     2325.214     1441.754        2.446        0.464      199.058       36.363        0.033      344.144       20.752      860.462
10/22/2014  17:34:00     -141.308     -104.062       -0.991       80.946       61.289       32.702     6552.254     3756.306     1069.433        2.109        0.569      175.491       39.859        0.052      344.156       20.773      860.474
10/22/2014  17:35:00     -121.710     -150.729        2.075       70.088       86.269       41.220     4912.359     7442.369     1699.085        2.579        0.703      193.733       41.386        0.046      344.172       20.800      860.482
10/22/2014  17:36:00      -89.172     -111.312       -0.094       80.752       65.039       39.958     6520.806     4230.061     1596.675        1.634        0.617      142.625       45.607        0.102      344.188       20.829      860.457
10/22/2014  17:37:00      -29.164      -72.460        2.124       77.694       72.011       40.237     6036.323     5185.540     1619.005        0.947        0.642       78.109       29.441        0.142      344.126       20.724      860.454
10/22/2014  17:38:00      -74.462      -51.174       -3.806       46.517       58.995       31.863     2163.857     3480.416     1015.225        0.742        0.333       90.351       10.428        0.013      344.186       20.825      860.449
10/22/2014  17:39:00       -9.566      -31.715       21.799       49.993       30.679       21.838     2499.321      941.210      476.902        0.274        0.196       33.127       24.190        0.533      344.045       20.584      860.431
10/22/2014  17:40:00      -71.517      -56.263       -2.256       42.735       29.834       20.579     1826.286      890.059      423.493        0.571        0.157       90.996       19.160        0.044      344.156       20.774      860.431
10/22/2014  17:41:00      -50.844      -21.702        4.593       35.325       27.799       20.353     1247.879      772.784      414.231        0.276        0.122       55.282       13.354        0.058      344.177       20.811      860.439
10/22/2014  17:42:00      -95.400      -66.084       -2.483       65.140       58.203       30.693     4243.245     3387.629      942.077        1.102        0.429      116.052       25.042        0.047      344.117       20.708      860.456
10/22/2014  17:43:00      -72.294     -116.089       -3.555       60.527       46.498       27.816     3663.561     2162.025      773.711        1.266        0.330      136.759       30.342        0.049      344.120       20.713      860.450
10/22/2014  17:44:00     -254.454     -150.526        2.137      108.815       80.188       54.277    11840.648     6430.119     2946.003        5.431        1.061      295.643       47.894        0.026      344.061       20.609      860.443
10/22/2014  17:45:00     -245.524     -177.839        3.475      101.523       84.024       54.505    10307.015     7060.060     2970.777        5.613        1.017      303.165       55.869        0.034      344.025       20.547      860.441
10/22/2014  17:46:00      -94.191     -145.195        5.619       81.203       87.022       42.219     6593.923     7572.788     1782.424        2.296        0.797      173.071       43.677        0.064      344.051       20.594      860.455
10/22/2014  17:47:00      -80.960      -80.110       27.280      124.390      103.336       57.411    15472.920    10678.332     3295.997        2.158        1.472      113.895       65.136        0.327      343.961       20.441      860.420
10/22/2014  17:48:00      -56.400     -112.485        6.831       58.087       92.231       37.712     3374.089     8506.584     1422.165        1.459        0.665      125.833       38.228        0.092      344.022       20.546      860.411
10/22/2014  17:49:00      -42.890     -117.636       19.238       55.676       64.311       40.866     3099.867     4135.873     1669.998        1.248        0.445      125.211       36.565        0.085      344.037       20.573      860.408
10/22/2014  17:50:00     -153.010     -221.158      -15.014       53.891       65.516       32.943     2904.212     4292.368     1085.242        4.041        0.414      268.929       31.031        0.013      344.032       20.560      860.421
10/22/2014  17:51:00     -122.843      -82.572      -10.337       38.348       56.457       33.669     1470.583     3187.386     1133.599        1.390        0.290      148.016       35.862        0.059      344.029       20.559      860.448
10/22/2014  17:52:00     -107.061      -75.485        4.891       56.923       43.011       31.127     3240.191     1849.957      968.890        1.162        0.303      130.996       25.480        0.038      344.033       20.565      860.487
10/22/2014  17:53:00      -90.931      -56.911        3.482       61.181       50.122       28.222     3743.152     2512.218      796.457        0.928        0.353      107.272       27.870        0.067      343.907       20.348      860.519
10/22/2014  17:54:00      -96.274      -54.600        5.421       51.020       44.108       23.929     2603.015     1945.479      572.595        0.870        0.256      110.679       20.407        0.034      343.963       20.445      860.534
10/22/2014  17:55:00     -122.975      -87.308       -2.892       42.225       46.794       27.098     1782.978     2189.686      734.328        1.373        0.235      150.816       24.711        0.027      343.905       20.345      860.535
10/22/2014  17:56:00      -72.708     -115.944       -0.958       47.098       46.115       26.135     2218.204     2126.584      683.044        1.188        0.251      136.855       21.853        0.025      343.929       20.387      860.543
10/22/2014  17:57:00     -160.926     -179.272      -14.669      108.555       62.562       40.631    11784.145     3913.987     1650.884        3.780        0.867      240.906       36.990        0.024      343.930       20.384      860.537
10/22/2014  17:58:00     -146.283     -122.492        9.158       80.383       91.473       42.333     6461.378     8367.362     1792.105        2.655        0.831      190.796       43.547        0.052      343.855       20.257      860.544
10/22/2014  17:59:00     -123.040      -61.951       10.026       89.066       61.902       44.254     7932.776     3831.889     1958.456        1.640        0.686      137.756       45.886        0.111      343.835       20.226      860.530
10/22/2014  18:00:00     -100.259      -70.099        3.176       78.087       53.661       33.090     6097.573     2879.528     1094.940        1.252        0.504      122.335       38.149        0.097      343.806       20.175      860.503
10/22/2014  18:01:00     -122.561     -155.388       12.944       98.365       96.596       38.526     9675.747     9330.741     1484.229        2.991        1.025      197.906       40.626        0.042      343.797       20.160      860.484
10/22/2014  18:02:00     -179.030     -188.761      -14.913       45.174       85.714       36.552     2040.710     7346.890     1336.023        3.931        0.536      260.159       21.889        0.007      343.810       20.180      860.459
10/22/2014  18:03:00     -129.951      -52.413       -0.980       61.881       37.140       34.282     3829.230     1379.371     1175.236        1.301        0.319      140.123       33.275        0.056      343.735       20.055      860.432
10/22/2014  18:04:00      -86.684      -64.909        9.950       92.737       44.080       31.048     8600.197     1943.043      963.976        1.166        0.575      108.293       39.636        0.134      343.720       20.030      860.423
10/22/2014  18:05:00     -137.867     -162.811       -2.829       67.174       69.321       36.608     4512.290     4805.461     1340.143        2.809        0.533      213.342       40.066        0.035      343.741       20.063      860.442
10/22/2014  18:06:00     -107.945     -129.161        9.787      106.899      101.697       52.439    11427.326    10342.256     2749.848        2.647        1.226      168.329       61.085        0.132      343.819       20.196      860.436
10/22/2014  18:07:00      -46.936      -80.465       -4.114       27.847       27.858       23.766      775.460      776.064      564.833        0.541        0.106       93.153       14.504        0.024      343.768       20.112      860.449
10/22/2014  18:08:00      -31.460      -59.084       18.563       79.906       71.610       29.589     6385.016     5127.948      875.532        0.860        0.619       66.937       12.888        0.037      343.712       20.015      860.465
10/22/2014  18:09:00       -7.420      -54.728       14.923       45.428       57.854       41.369     2063.700     3347.135     1711.415        0.520        0.356       55.229       34.948        0.400      343.600       19.825      860.438
10/22/2014  18:10:00      -40.587      -24.369        0.497       45.035       40.779       18.876     2028.172     1662.929      356.320        0.314        0.202       47.341       20.950        0.196      343.598       19.823      860.438
10/22/2014  18:11:00      -48.907     -126.285       -0.557       57.272       48.850       33.725     3280.135     2386.315     1137.358        1.257        0.340      135.424       24.916        0.034      343.711       20.014      860.464
10/22/2014  18:12:00      -92.374      -83.002        3.563       72.680       63.912       34.406     5282.429     4084.700     1183.757        1.299        0.528      124.187       42.664        0.118      343.646       19.903      860.458
10/22/2014  18:13:00      -64.505     -127.795        8.903       68.280       97.074       38.031     4662.134     9423.413     1446.376        1.805        0.777      143.152       50.244        0.123      343.708       20.009      860.462
10/22/2014  18:14:00      -63.291      -20.451        3.235       67.929       34.783       31.619     4614.413     1209.858      999.786        0.563        0.341       66.513       33.259        0.250      343.584       19.798      860.470
10/22/2014  18:15:00     -119.019     -172.384       -9.179       62.039      101.886       31.124     3848.871    10380.712      968.733        2.958        0.760      209.480       36.016        0.030      343.686       19.968      860.480
10/22/2014  18:16:00      -70.427      -77.288        2.414       57.112       63.452       42.906     3261.796     4026.152     1840.964        1.003        0.456      104.563       23.374        0.050      343.610       19.843      860.457
10/22/2014  18:17:00      -93.043      -97.423       -3.735       62.409       62.439       38.016     3894.919     3898.596     1445.242        1.370        0.462      134.715       33.370        0.061      343.652       19.914      860.465
10/22/2014  18:18:00     -103.380     -136.815        1.275       84.098       65.426       37.548     7072.451     4280.534     1409.869        2.108        0.638      171.481       28.786        0.028      343.692       19.981      860.456
10/22/2014  18:19:00      -92.677     -113.362       13.436       82.563       59.541       43.792     6816.650     3545.116     1917.764        1.695        0.614      146.424       45.495        0.097      343.637       19.888      860.472
10/22/2014  18:20:00      -53.790      -24.336       22.000       43.894       71.268       26.767     1926.647     5079.138      716.465        0.584        0.386       59.039       28.201        0.228      343.589       19.807      860.489
10/22/2014  18:21:00      -58.574     -127.804        7.314       59.851       48.484       38.037     3582.170     2350.661     1446.777        1.360        0.369      140.587       30.926        0.048      343.681       19.965      860.504
10/22/2014  18:22:00     -130.124     -147.065       -6.181       55.383       72.522       34.490     3067.226     5259.491     1189.544        2.406        0.476      196.368       18.230        0.009      343.682       19.962      860.503
10/22/2014  18:23:00     -111.501     -165.032       -4.932       53.303       79.588       36.739     2841.246     6334.238     1349.788        2.511        0.526      199.169       31.611        0.025      343.651       19.910      860.524
10/22/2014  18:24:00     -110.972      -40.760        4.802       54.577       58.299       28.805     2978.673     3398.752      829.731        1.060        0.360      118.221       34.562        0.085      343.578       19.788      860.573
10/22/2014  18:25:00      -90.091      -78.218       -2.607       59.986       56.447       27.786     3598.348     3186.317      772.052        1.090        0.378      119.308       28.419        0.057      343.546       19.732      860.617
10/22/2014  18:26:00     -100.478      -72.961        3.672       50.456       54.783       26.542     2545.773     3001.131      704.470        1.084        0.313      124.174       27.771        0.050      343.533       19.711      860.647
10/22/2014  18:27:00     -101.678      -71.363       -1.351       81.499       47.929       32.720     6642.016     2297.159     1070.570        1.272        0.500      124.222       36.597        0.087      343.548       19.736      860.663
10/22/2014  18:28:00     -146.745     -110.336        4.230       83.786       73.156       45.743     7020.096     5351.838     2092.452        2.409        0.723      183.597       48.469        0.070      343.549       19.735      860.678
10/22/2014  18:29:00     -115.864     -118.665       -4.996       66.400       71.971       31.902     4408.895     5179.811     1017.748        1.907        0.530      165.849       33.599        0.041      343.502       19.657      860.693
10/22/2014  18:30:00      -97.553      -73.107       14.922       82.028       62.491       32.386     6728.568     3905.080     1048.824        1.338        0.584      121.907       25.310        0.043      343.474       19.610      860.724
10/22/2014  18:31:00     -187.436     -140.328       -1.704       95.453       78.253       41.139     9111.227     6123.545     1692.426        3.587        0.846      234.145       34.975        0.022      343.552       19.740      860.766
10/22/2014  18:32:00     -246.538     -143.639        0.564      171.330      121.788       66.365    29353.853    14832.212     4404.359        6.499        2.430      285.330       78.544        0.076      343.546       19.732      860.789
10/22/2014  18:33:00     -209.210     -132.752        5.977      119.687       74.588       54.094    14325.060     5563.386     2926.151        4.212        1.141      247.774       58.464        0.056      343.525       19.695      860.828
10/22/2014  18:34:00     -211.870     -170.682       -8.126      106.442       85.186       54.397    11329.943     7256.647     2958.984        4.781        1.077      272.069       55.048        0.041      343.507       19.666      860.877
10/22/2014  18:35:00     -170.614     -112.049        6.795       81.425       72.840       42.473     6630.021     5305.614     1803.961        2.772        0.687      204.118       39.406        0.037      343.443       19.556      860.909
10/22/2014  18:36:00     -153.583     -132.069       -3.895       82.973       56.031       38.426     6884.469     3139.511     1476.536        2.627        0.575      202.559       41.524        0.042      343.446       19.560      860.918
10/22/2014  18:37:00     -148.570     -112.612        2.715      101.436       80.200       38.090    10289.199     6432.040     1450.884        2.646        0.909      186.426       43.672        0.055      343.441       19.554      860.910
10/22/2014  18:38:00     -161.639      -82.450        3.586      117.888       70.989       49.389    13897.592     5039.395     2439.295        2.715        1.069      181.453       54.794        0.091      343.446       19.564      860.882
10/22/2014  18:39:00     -222.345      -62.430      -12.813       90.763       93.523       45.104     8237.880     8746.487     2034.350        3.626        0.951      230.944       40.700        0.031      343.397       19.476      860.868
10/22/2014  18:40:00     -276.479     -166.306      -10.494      137.731       96.768       66.691    18969.704     9364.046     4447.731        6.849        1.639      322.642       59.343        0.034      343.493       19.639      860.868
10/22/2014  18:41:00     -190.581     -130.796        9.717      117.760       87.490       50.120    13867.364     7654.473     2511.980        3.877        1.202      231.146       52.567        0.052      343.457       19.578      860.857
10/22/2014  18:42:00     -240.347     -147.202       -4.829       87.712       81.894       52.856     7693.474     6706.563     2793.764        4.832        0.860      281.842       52.230        0.034      343.464       19.592      860.873
10/22/2014  18:43:00     -155.936      -81.560       -1.419       95.268       88.356       42.431     9075.921     7806.773     1800.387        2.482        0.934      175.978       47.533        0.073      343.396       19.476      860.878
10/22/2014  18:44:00     -168.493      -74.536       -5.970       67.145       62.495       38.885     4508.469     3905.687     1512.070        2.195        0.496      184.244       32.408        0.031      343.370       19.432      860.866
10/22/2014  18:45:00     -169.684      -72.234        0.085      112.108       82.034       46.436    12568.133     6729.508     2156.289        2.773        1.073      184.419       53.025        0.083      343.354       19.405      860.855
10/22/2014  18:46:00     -185.888     -138.202        2.483       89.993      114.793       45.783     8098.713    13177.455     2096.069        3.851        1.169      231.634       51.809        0.050      343.328       19.360      860.862
10/22/2014  18:47:00     -169.841     -141.349       -1.548       86.169       60.913       36.698     7425.063     3710.356     1346.739        3.065        0.624      220.965       32.300        0.021      343.331       19.364      860.889
10/22/2014  18:48:00     -143.656      -52.986        1.571       57.448       46.361       26.252     3300.305     2149.349      689.153        1.479        0.307      153.116       20.524        0.018      343.264       19.253      860.908
10/22/2014  18:49:00     -117.624     -138.630        2.773       64.754       81.583       38.490     4193.022     6655.773     1481.459        2.269        0.617      181.807       35.973        0.039      343.281       19.281      860.913
10/22/2014  18:50:00     -204.644      -91.879      -10.930       50.106       56.119       41.268     2510.595     3149.393     1703.023        2.890        0.368      224.324       31.063        0.019      343.255       19.233      860.919
10/22/2014  18:51:00     -198.239     -121.581      -19.945       57.753       67.699       37.205     3335.355     4583.133     1384.246        3.189        0.465      232.552       33.265        0.020      343.246       19.219      860.914
10/22/2014  18:52:00     -173.253      -11.138        1.572       63.642       82.564       29.240     4050.246     6816.831      854.991        2.093        0.586      173.611       29.457        0.029      343.214       19.166      860.906
10/22/2014  18:53:00     -163.508      -62.661       -3.972       60.205       75.650       38.689     3624.635     5722.940     1496.827        2.076        0.542      175.103       30.272        0.030      343.212       19.163      860.898
10/22/2014  18:54:00     -194.972      -90.550       -2.747      125.507      121.377       52.720    15752.067    14732.471     2779.445        3.974        1.663      214.973       66.569        0.096      343.097       18.966      860.880
10/22/2014  18:55:00     -152.952      -94.537       -1.515       65.838       60.712       43.823     4334.701     3685.989     1920.455        2.114        0.497      179.809       40.172        0.050      343.081       18.941      860.870
10/22/2014  18:56:00     -246.634      -76.626      -13.485      104.511       70.529       43.251    10922.493     4974.381     1870.642        4.232        0.888      258.263       27.275        0.011      343.034       18.860      860.861
10/22/2014  18:57:00     -297.568      -57.213      -19.682      123.752       89.654       56.070    15314.533     8037.798     3143.839        5.935        1.325      303.018       55.480        0.034      343.037       18.863      860.868
10/22/2014  18:58:00     -210.383      -19.360       -6.622       76.340       84.805       52.743     5827.790     7191.922     2781.783        3.024        0.790      211.272       50.694        0.058      342.981       18.768      860.897
10/22/2014  18:59:00     -289.848      -58.397      -18.715       95.097       77.605       51.497     9043.368     6022.560     2651.905        5.274        0.886      295.672       50.765        0.029      343.054       18.893      860.931
10/22/2014  19:00:00     -323.551      -55.984      -18.348      116.971       96.582       62.547    13682.116     9328.111     3912.167        6.753        1.346      328.358       65.835        0.040      343.092       18.955      860.958
10/22/2014  19:01:00     -322.478      -63.628      -20.530      141.552      114.952       60.172    20037.004    13213.931     3620.680        7.266        1.844      328.695       69.282        0.044      343.027       18.846      860.989
10/22/2014  19:02:00     -342.069      -23.867      -33.587      173.412      121.785       56.549    30071.739    14831.497     3197.780        8.340        2.405      342.900       67.306        0.039      343.050       18.886      861.014
10/22/2014  19:03:00     -131.668      -22.083       -4.916       87.940       95.035       46.512     7733.431     9031.712     2163.399        1.839        0.946      133.507       45.171        0.114      342.920       18.665      860.994
10/22/2014  19:04:00     -263.324      -13.787       -0.796      167.204      108.564       70.992    27957.063    11786.079     5039.878        5.715        2.239      263.685       90.007        0.117      342.956       18.727      860.961
10/22/2014  19:05:00     -308.939      -96.131      -18.135      107.718       98.601       58.732    11603.201     9722.147     3449.465        6.489        1.239      323.550       56.582        0.031      342.942       18.700      860.954
10/22/2014  19:06:00     -233.030      -17.840       -4.105      116.735       79.511       53.280    13627.019     6321.986     2838.764        3.871        1.139      233.712       60.104        0.066      342.893       18.620      860.950
10/22/2014  19:07:00     -279.112      -49.300       -9.430      120.326       94.508       56.217    14478.239     8931.709     3160.349        5.349        1.329      283.432       56.625        0.040      342.925       18.673      860.958
10/22/2014  19:08:00     -232.608       -6.811      -15.949      131.955       76.429       49.204    17412.025     5841.388     2421.079        4.004        1.284      232.707       66.895        0.083      342.867       18.575      860.974
10/22/2014  19:09:00     -263.494      -53.177       -5.208       99.876      112.949       59.710     9975.250    12757.569     3565.314        4.929        1.315      268.806       49.049        0.033      342.870       18.579      860.994
10/22/2014  19:10:00     -242.017      -62.976        0.436      128.906       91.689       61.367    16616.755     8406.815     3765.965        4.566        1.439      250.076       58.269        0.054      342.846       18.539      861.003
10/22/2014  19:11:00     -267.473      -96.827      -11.154      157.552      139.815       73.447    24822.681    19548.272     5394.450        6.540        2.488      284.459       85.126        0.090      342.901       18.632      860.977
10/22/2014  19:12:00     -358.517      -66.598      -14.427      147.305      120.504       61.979    21698.687    14521.160     3841.346        8.661        2.003      364.650       61.022        0.028      342.916       18.656      860.978
10/22/2014  19:13:00     -234.125      -39.847       -2.325      132.146      103.411       53.184    17462.637    10693.763     2828.503        4.369        1.549      237.492       60.458        0.065      342.863       18.566      860.975
10/22/2014  19:14:00     -201.166      -70.366        0.752      128.954       85.856       54.082    16629.189     7371.286     2924.861        3.617        1.346      213.118       53.684        0.063      342.844       18.536      860.975
10/22/2014  19:15:00     -155.432      -81.402       15.283      115.989       87.845       63.196    13453.345     7716.830     3993.770        2.809        1.258      175.458       65.170        0.138      342.841       18.528      860.973
10/22/2014  19:16:00     -292.808     -119.344        0.408      109.880       98.229       58.044    12073.684     9648.997     3369.096        6.253        1.255      316.195       54.088        0.029      342.859       18.561      860.976
10/22/2014  19:17:00     -220.891      -52.621        4.235      110.925       78.610       49.662    12304.432     6179.494     2466.284        3.626        1.048      227.072       54.550        0.058      342.831       18.511      860.989
10/22/2014  19:18:00     -219.021     -107.955       -0.716      117.401       81.684       50.924    13783.053     6672.196     2593.283        4.133        1.152      244.181       63.770        0.068      342.810       18.477      861.014
10/22/2014  19:19:00     -130.910      -74.966        9.990       90.115       69.895       46.453     8120.660     4885.320     2157.912        1.901        0.758      150.855       49.180        0.106      342.760       18.392      861.014
10/22/2014  19:20:00     -148.448     -108.384       -3.479       85.093       69.500       41.076     7240.885     4830.310     1687.213        2.377        0.688      183.804       39.221        0.046      342.747       18.371      861.001
10/22/2014  19:21:00     -152.128      -72.322        1.148       73.936       65.669       38.132     5466.477     4312.393     1454.044        1.980        0.562      168.444       41.402        0.060      342.741       18.360      860.992
10/22/2014  19:22:00      -78.767      -40.890       17.295       60.989       61.488       30.358     3719.621     3780.833      921.591        0.830        0.421       88.748       36.566        0.170      342.627       18.167      860.989
10/22/2014  19:23:00     -184.516      -11.487      -12.291       81.582       59.662       34.862     6655.677     3559.553     1215.357        2.288        0.572      184.874       27.188        0.022      342.763       18.397      860.984
10/22/2014  19:24:00     -172.272      -75.296        0.998      106.068       71.374       42.847    11250.370     5094.240     1835.831        2.676        0.909      188.008       51.465        0.075      342.682       18.258      861.001
10/22/2014  19:25:00       -4.634      -84.338       27.412       42.510       65.166       33.809     1807.092     4246.569     1143.063        0.754        0.360       84.465       27.595        0.107      342.676       18.251      861.020
10/22/2014  19:26:00       -2.701     -118.895        2.298       29.215       77.505       29.243      853.536     6006.996      855.156        1.093        0.386      118.926       16.431        0.019      342.812       18.483      861.009
10/22/2014  19:27:00     -100.752      -82.488        1.293       65.694       41.007       28.871     4315.642     1681.534      833.526        1.189        0.342      130.213       33.734        0.067      342.700       18.292      861.010
10/22/2014  19:28:00     -150.368     -111.113      -12.022       51.505       62.498       34.438     2652.810     3905.965     1186.000        2.142        0.387      186.966       30.607        0.027      342.699       18.288      861.022
10/22/2014  19:29:00     -108.184      -35.324        1.054       88.462       54.691       38.279     7825.542     2991.142     1465.274        1.262        0.614      113.805       38.834        0.116      342.544       18.027      860.979
10/22/2014  19:30:00     -130.759      -34.518        4.434       75.070       56.568       44.155     5635.514     3199.912     1949.675        1.455        0.539      135.238       43.133        0.102      342.591       18.108      860.918
10/22/2014  19:31:00     -118.080      -32.052        9.413       93.067       60.470       37.388     8661.399     3656.633     1397.872        1.439        0.686      122.353       48.998        0.160      342.483       17.922      860.891
10/22/2014  19:32:00      -32.934     -133.719       20.107       65.627       40.264       36.425     4306.932     1621.166     1326.792        1.331        0.363      137.715       39.509        0.082      342.628       18.169      860.907
10/22/2014  19:33:00      -12.731      -31.012        0.806       25.105       41.375       17.724      630.284     1711.855      314.134        0.189        0.133       33.524       14.492        0.187      342.559       18.053      860.923
10/22/2014  19:34:00      -53.095       -1.554       13.386       54.706       36.396       26.443     2992.721     1324.654      699.257        0.401        0.251       53.118       28.281        0.283      342.427       17.828      860.945
10/22/2014  19:35:00      -70.822      -63.056        9.812       70.745       45.036       36.463     5004.819     2028.244     1329.551        0.872        0.418       94.825       38.230        0.163      342.541       18.022      860.969
10/22/2014  19:36:00      -68.229      -80.590        4.351       56.303       41.714       26.492     3170.071     1740.044      701.837        0.839        0.281      105.593       20.109        0.036      342.550       18.040      860.999
10/22/2014  19:37:00      -61.644     -140.848        0.936       63.829       45.923       30.071     4074.153     2108.936      904.269        1.536        0.354      153.747       29.970        0.038      342.621       18.157      861.043
10/22/2014  19:38:00      -62.750     -118.814        5.049       46.535       47.840       27.633     2165.537     2288.678      763.589        1.165        0.261      134.367       27.403        0.042      342.556       18.047      861.071
10/22/2014  19:39:00      -42.320     -185.895       -0.394       43.290       36.797       31.389     1874.001     1353.983      985.249        2.028        0.211      190.651       13.756        0.005      342.566       18.063      861.081
10/22/2014  19:40:00       -2.088      -39.846       -9.313       52.549       48.416       27.960     2761.358     2344.111      781.737        0.378        0.294       39.901       28.038        0.494      342.350       17.697      861.100
10/22/2014  19:41:00      -48.629      -11.564        2.977       37.818       48.497       27.345     1430.191     2351.965      747.750        0.352        0.226       49.985       24.758        0.245      342.429       17.832      861.135
10/22/2014  19:42:00      -49.544      -55.247       -6.122       45.642       41.462       28.129     2083.160     1719.120      791.221        0.507        0.230       74.208       21.189        0.082      342.391       17.766      861.164
10/22/2014  19:43:00       17.268      -33.636       21.076       39.449       46.290       35.428     1556.205     2142.749     1255.172        0.341        0.248       37.810       27.876        0.544      342.216       17.471      861.183
10/22/2014  19:44:00       15.229      -48.343       -0.954       34.415       50.762       36.819     1184.371     2576.799     1355.623        0.384        0.256       50.685       28.388        0.314      341.972       17.056      861.178
10/22/2014  19:45:00       24.657      -40.197        6.292       56.052       54.183       34.891     3141.868     2935.784     1217.402        0.478        0.365       47.157       19.079        0.164      342.074       17.230      861.174
10/22/2014  19:46:00        6.943      -58.046        9.115       32.347       63.870       30.286     1046.345     4079.367      917.242        0.477        0.302       58.460       26.610        0.207      342.268       17.559      861.203
10/22/2014  19:47:00        3.947     -102.757       10.597       36.686       68.745       25.272     1345.853     4725.814      638.695        0.870        0.336      102.833       16.390        0.025      342.352       17.702      861.264
10/22/2014  19:48:00      -43.876     -103.220        0.844       28.785       70.821       23.304      828.565     5015.619      543.077        0.948        0.319      112.158       28.130        0.063      342.444       17.859      861.308
10/22/2014  19:49:00      -12.010      -24.293      -15.405       23.516       22.344       26.689      553.022      499.249      712.321        0.137        0.088       27.099       13.746        0.257      342.174       17.398      861.345
10/22/2014  19:50:00      -17.962        4.698       11.770       36.944       17.072       22.322     1364.882      291.469      498.268        0.132        0.108       18.566       21.852        1.385      342.239       17.509      861.363
10/22/2014  19:51:00      -58.501      -40.000        7.060       46.835       27.813       26.339     2193.531      773.573      693.721        0.437        0.183       70.868       19.909        0.079      342.191       17.428      861.370
10/22/2014  19:52:00      -69.205      -51.753        3.099       36.868       26.881       17.549     1359.266      722.603      307.969        0.493        0.119       86.416       17.470        0.041      342.222       17.480      861.389
10/22/2014  19:53:00      -90.700      -51.638        5.704       39.783       41.981       23.627     1582.671     1762.373      558.244        0.741        0.195      104.370       18.623        0.032      342.199       17.442      861.411
10/22/2014  19:54:00      -79.413      -60.421        6.110       64.823       30.600       22.918     4202.044      936.334      525.245        0.783        0.283       99.785       27.793        0.078      342.198       17.439      861.457
10/22/2014  19:55:00     -114.021     -111.034        1.748       82.812       54.631       38.114     6857.896     2984.531     1452.641        1.831        0.565      159.152       42.505        0.071      342.285       17.585      861.516
10/22/2014  19:56:00     -178.579     -164.360      -13.307       64.576      105.014       38.623     4170.046    11028.028     1491.710        3.788        0.834      242.703       43.092        0.032      342.350       17.695      861.539
10/22/2014  19:57:00      -79.219      -13.126        2.054       49.877       36.682       22.139     2487.717     1345.560      490.127        0.539        0.216       80.299       18.551        0.053      342.206       17.455      861.535
10/22/2014  19:58:00      -60.007       12.124       -1.866       53.728       31.178       17.438     2886.659      972.098      304.091        0.396        0.208       61.220       21.618        0.125      342.141       17.342      861.509
10/22/2014  19:59:00     -113.328       -3.572       -7.972       38.651       31.694       23.778     1493.926     1004.486      565.408        0.799        0.153      113.384       22.072        0.038      342.296       17.606      861.521
10/22/2014  20:00:00     -170.957      -14.465       -6.764       62.597       87.674       34.904     3918.438     7686.737     1218.324        2.115        0.641      171.567       32.789        0.037      342.298       17.610      861.547
10/22/2014  20:01:00     -258.399      -83.363       -6.417       79.681       56.177       32.722     6349.022     3155.804     1070.758        4.217        0.529      271.513       32.624        0.014      342.260       17.540      861.608
10/22/2014  20:02:00     -161.887      -89.576      -16.988       65.773       72.333       29.789     4326.096     5232.120      887.375        2.248        0.522      185.017       18.928        0.010      342.251       17.527      861.678
10/22/2014  20:03:00     -117.225      -32.200        4.014      114.184       66.641       46.171    13037.935     4440.981     2131.791        1.720        0.981      121.567       58.081        0.228      342.252       17.529      861.696
10/22/2014  20:04:00      -68.396      -11.271       15.178       78.157       51.110       32.269     6108.550     2612.228     1041.319        0.740        0.488       69.318       34.071        0.242      342.271       17.564      861.691
10/22/2014  20:05:00     -306.273      -51.433      -11.584      123.719       97.039       58.751    15306.497     9416.536     3451.714        6.237        1.409      310.562       58.021        0.035      342.402       17.783      861.695
10/22/2014  20:06:00     -251.337      -35.633      -19.310      105.682       58.238       45.764    11168.613     3391.706     2094.353        4.073        0.833      253.850       44.831        0.031      342.355       17.704      861.692
10/22/2014  20:07:00     -308.959      -73.283      -20.221       80.926       86.707       45.215     6549.026     7518.097     2044.367        5.867        0.806      317.531       39.776        0.016      342.351       17.695      861.704
10/22/2014  20:08:00     -174.808      -22.730      -18.001       87.792       49.874       28.980     7707.488     2487.397      839.846        2.121        0.552      176.279       31.473        0.032      342.425       17.823      861.692
10/22/2014  20:09:00     -104.281        5.900       -6.644       48.281       44.298       26.954     2331.098     1962.283      726.543        0.799        0.251      104.448       24.944        0.057      342.294       17.603      861.704
10/22/2014  20:10:00      -94.311      -28.518        4.238       77.160       55.203       42.296     5953.715     3047.371     1788.929        1.026        0.540       98.528       50.012        0.258      342.188       17.422      861.731
10/22/2014  20:11:00      -59.371      -24.175        2.676       74.772       48.351       27.094     5590.778     2337.824      734.087        0.639        0.433       64.104       33.992        0.281      342.173       17.396      861.745
10/22/2014  20:12:00     -102.372     -106.688       -0.906       70.911       51.763       38.677     5028.329     2679.363     1495.876        1.553        0.460      147.860       41.835        0.080      342.208       17.457      861.729
10/22/2014  20:13:00      -74.225     -130.016       -5.808       39.276       47.487       25.143     1542.635     2255.029      632.189        1.344        0.221      149.712       19.580        0.017      342.284       17.586      861.708
10/22/2014  20:14:00     -133.958      -89.012       -0.318       64.712       51.046       26.416     4187.624     2605.688      697.791        1.668        0.375      160.835       23.935        0.022      342.212       17.462      861.704
10/22/2014  20:15:00     -153.642      -83.765       -0.223       81.062       81.811       47.423     6571.063     6693.067     2248.950        2.307        0.776      174.992       55.186        0.099      342.169       17.389      861.715
10/22/2014  20:16:00     -141.423     -102.604       -4.870       57.013       50.470       31.163     3250.430     2547.223      971.159        1.866        0.338      174.723       24.021        0.019      342.174       17.399      861.696
10/22/2014  20:17:00     -124.650     -103.748      -16.838       93.980       48.229       38.033     8832.253     2326.011     1446.487        1.959        0.630      162.177       46.699        0.083      342.202       17.444      861.684
10/22/2014  20:18:00     -127.455     -104.956        8.701       69.585       72.212       36.368     4842.074     5214.620     1322.608        1.936        0.569      165.108       36.431        0.049      342.137       17.335      861.696
10/22/2014  20:19:00     -196.986      -93.935       -4.977       72.834       73.698       40.478     5304.734     5431.455     1638.497        3.001        0.619      218.236       36.146        0.027      342.154       17.360      861.714
10/22/2014  20:20:00     -223.778      -27.429      -25.927       79.472       85.751       42.491     6315.769     7353.192     1805.471        3.349        0.774      225.453       38.685        0.029      342.178       17.401      861.687
10/22/2014  20:21:00     -227.020      -50.090      -20.958       95.598       75.114       42.021     9138.911     5642.164     1765.756        3.551        0.827      232.481       38.637        0.028      342.109       17.286      861.659
10/22/2014  20:22:00     -244.623     -107.669      -17.631       84.656       97.909       50.929     7166.581     9586.176     2593.807        4.554        0.967      267.269       47.837        0.032      342.061       17.203      861.675
10/22/2014  20:23:00     -314.730      -87.100      -15.757      163.772      100.124       63.744    26821.196    10024.883     4063.294        7.389        2.045      326.559       84.189        0.066      342.083       17.242      861.708
10/22/2014  20:24:00     -191.551      -70.347       -3.341      121.056       80.114       56.759    14654.559     6418.202     3221.634        3.297        1.215      204.060       61.085        0.090      342.107       17.283      861.730
10/22/2014  20:25:00     -333.660      -74.696      -17.943      136.340      130.367       66.797    18588.683    16995.444     4461.814        7.863        2.002      341.919       66.512        0.038      342.112       17.290      861.753
10/22/2014  20:26:00     -416.439      -63.661      -19.135      162.120      142.051       83.310    26283.012    20178.443     6940.511       11.561        2.670      421.277       91.556        0.047      342.116       17.298      861.775
10/22/2014  20:27:00     -415.398       -0.849      -37.282      131.198      107.622       67.419    17212.894    11582.519     4545.372       10.364        1.667      415.399       69.164        0.028      342.127       17.316      861.767
10/22/2014  20:28:00     -333.053      -34.598      -11.743      133.397       97.458       64.933    17794.843     9498.009     4216.264        7.188        1.575      334.845       59.569        0.032      342.080       17.236      861.781
10/22/2014  20:29:00     -298.430      -13.765      -13.719      117.012       92.416       54.432    13691.732     8540.674     2962.790        5.731        1.260      298.748       58.114        0.038      342.059       17.201      861.790
10/22/2014  20:30:00     -303.466      -92.834       -7.135      144.760       97.616       62.262    20955.553     9528.950     3876.521        6.756        1.718      317.348       68.597        0.047      342.069       17.216      861.779
10/22/2014  20:31:00     -235.417      -43.481       -2.659      130.622      102.886       71.624    17062.146    10585.531     5130.054        4.504        1.639      239.398       66.661        0.078      342.045       17.178      861.732
10/22/2014  20:32:00     -209.608      -39.595        6.670      137.058      109.265       54.731    18784.841    11938.819     2995.482        3.963        1.686      213.314       71.924        0.114      341.989       17.083      861.676
10/22/2014  20:33:00     -302.039       -7.080      -12.177      122.981      117.327       58.202    15124.322    13765.723     3387.424        6.185        1.614      302.122       57.986        0.037      341.998       17.097      861.664
10/22/2014  20:34:00     -332.096      -47.038      -29.984      103.718       91.596       57.890    10757.505     8389.871     3351.306        6.795        1.125      335.410       50.375        0.023      342.039       17.165      861.640
10/22/2014  20:35:00     -312.726      -36.596      -14.621      171.677      118.403       65.671    29472.857    14019.347     4312.692        7.357        2.390      314.860       78.360        0.062      342.029       17.149      861.620
10/22/2014  20:36:00     -329.777     -104.706      -10.633      145.069      127.823       76.848    21044.993    16338.606     5905.601        8.155        2.164      346.000       69.020        0.040      342.020       17.133      861.609
10/22/2014  20:37:00     -385.961      -55.730      -24.851      149.655      127.125       72.247    22396.645    16160.764     5219.558        9.823        2.189      389.963       68.638        0.031      342.010       17.117      861.664
10/22/2014  20:38:00     -435.458      -29.650      -23.127      155.521      129.355       72.009    24186.755    16732.840     5185.359       11.856        2.305      436.466       82.042        0.035      342.021       17.134      861.690
10/22/2014  20:39:00     -327.535      -85.788      -28.565      169.973      151.834       71.221    28890.946    23053.481     5072.361        8.623        2.851      338.583       71.508        0.045      342.004       17.107      861.687
10/22/2014  20:40:00     -268.520      -65.511       -1.080      160.041      101.079       66.294    25613.081    10216.985     4394.937        5.830        2.011      276.396       81.103        0.086      341.964       17.038      861.738
10/22/2014  20:41:00     -111.691       -4.247       17.727       89.588      100.094       55.955     8025.991    10018.723     3131.009        1.699        1.059      111.771       43.833        0.154      341.863       16.871      861.745
10/22/2014  20:42:00     -244.260      -87.965       -7.422      125.176      120.579       62.132    15669.095    14539.385     3860.358        5.076        1.703      259.616       67.014        0.067      341.969       17.047      861.751
10/22/2014  20:43:00     -244.930       -0.322        7.832      258.835      118.610       69.805    66995.512    14068.399     4872.802        7.298        4.297      244.930      105.094        0.184      341.973       17.055      861.761
10/22/2014  20:44:00      -95.777      -89.465       15.379      105.319      112.367       49.977    11092.178    12626.245     2497.728        2.181        1.311      131.061       62.312        0.226      341.941       17.003      861.736
10/22/2014  20:45:00     -305.974      -53.103      -26.928      161.788      117.270       60.220    26175.314    13752.188     3626.465        7.035        2.178      310.548       66.550        0.046      341.999       17.098      861.724
10/22/2014  20:46:00     -288.150     -102.884       -8.087       84.016      108.651       55.543     7058.678    11804.979     3085.038        5.781        1.097      305.966       40.060        0.017      341.978       17.061      861.692
10/22/2014  20:47:00     -274.846      -41.910      -14.703      123.145      102.361       54.018    15164.706    10477.738     2917.988        5.303        1.428      278.023       53.086        0.036      341.989       17.081      861.727
10/22/2014  20:48:00     -146.861       -5.845       -5.753      112.390       76.613       50.607    12631.615     5869.565     2561.056        2.135        1.053      146.978       50.821        0.120      341.908       16.946      861.740
10/22/2014  20:49:00      -91.850       -0.323        2.857       94.428       93.721       43.894     8916.661     8783.711     1926.720        1.403        0.981       91.851       24.265        0.070      341.954       17.025      861.768
10/22/2014  20:50:00      -20.563      -66.235       19.930       96.349       64.702       51.535     9283.117     4186.316     2655.810        1.066        0.806       69.353       50.700        0.534      341.933       16.988      861.792
10/22/2014  20:51:00     -139.444      -49.072      -11.503       88.266       71.617       52.014     7790.967     5129.011     2705.438        1.880        0.781      147.827       45.462        0.095      341.994       17.093      861.763
10/22/2014  20:52:00     -101.351      -63.977       -4.529       84.295      135.143       46.827     7105.617    18263.765     2192.786        2.097        1.378      119.854       37.722        0.099      341.941       17.001      861.821
10/22/2014  20:53:00     -155.212     -124.287       -6.583      196.506      122.682       68.099    38614.453    15050.880     4637.445        4.893        2.915      198.841       86.386        0.189      342.032       17.157      861.889
10/22/2014  20:54:00      -67.363      -75.503        1.373       50.576       39.849       28.351     2557.890     1587.905      803.798        0.759        0.247      101.185       23.218        0.053      342.005       17.111      861.917
10/22/2014  20:55:00     -135.440     -115.829        0.195      101.773       82.124       49.873    10357.740     6744.279     2487.313        2.567        0.979      178.215       53.317        0.090      342.002       17.103      861.971
10/22/2014  20:56:00      -82.610      -78.161       -9.023      112.311       55.367       41.805    12613.836     3065.555     1747.689        1.522        0.871      113.725       54.566        0.230      342.057       17.198      861.987
10/22/2014  20:57:00      -54.416      -24.390       23.830       81.959       59.951       38.617     6717.274     3594.140     1491.290        0.796        0.590       59.632       39.604        0.441      341.953       17.026      861.965
10/22/2014  20:58:00      -55.044     -105.474       -2.133       34.710       43.785       27.667     1204.770     1917.083      765.489        0.902        0.194      118.974       25.400        0.046      342.013       17.129      861.937
10/22/2014  20:59:00      -15.230      -14.722        5.405       31.475       50.067       19.991      990.697     2506.684      399.632        0.219        0.195       21.182       13.647        0.415      341.946       17.014      861.935
10/22/2014  21:00:00       70.369       53.528       30.648       27.652       31.543       27.949      764.617      994.981      781.119        0.565        0.127       88.414       22.975        0.068      341.390       16.070      861.886
10/22/2014  21:01:00       30.562       77.899       -8.008       27.741       40.413       28.973      769.588     1633.199      839.436        0.515        0.162       83.680       21.692        0.067      341.494       16.244      861.826
10/22/2014  21:02:00       -2.197       23.973      -14.785       57.012       69.086       20.568     3250.329     4772.937      423.040        0.462        0.422       24.073       17.479        0.527      341.743       16.668      861.773
10/22/2014  21:03:00       -5.611      -18.963       12.403       77.096       59.094       31.001     5943.760     3492.080      961.051        0.547        0.520       19.775       32.119        2.638      341.523       16.295      861.787
10/22/2014  21:04:00      -86.516        0.978        2.895       84.834       73.627       42.472     7196.839     5420.920     1803.842        1.096        0.721       86.522       43.841        0.257      341.656       16.519      861.808
10/22/2014  21:05:00      -49.198      -19.391       26.512       76.178       74.673       44.270     5803.040     5576.034     1959.871        0.842        0.667       52.881       37.800        0.511      341.719       16.627      861.800
10/22/2014  21:06:00      -82.481        2.769       -7.214       40.655       49.626       28.424     1652.796     2462.713      807.912        0.589        0.246       82.528       22.557        0.075      341.815       16.790      861.808
10/22/2014  21:07:00      -27.478      -18.023       -7.220       66.007       37.641       30.482     4356.956     1416.862      929.166        0.392        0.335       32.861       40.729        1.536      341.808       16.777      861.876
10/22/2014  21:08:00      -36.584      -57.152       -6.676       72.354       62.023       29.713     5235.128     3846.876      882.890        0.731        0.498       67.858       23.701        0.122      341.603       16.431      861.913
10/22/2014  21:09:00      -80.728      -92.326        7.680       64.557      103.067       33.145     4167.614    10622.715     1098.560        1.549        0.794      122.642       42.891        0.122      341.717       16.622      861.972
10/22/2014  21:10:00       -2.393      -73.616        3.803       38.792       57.525       40.767     1504.802     3309.157     1661.954        0.596        0.324       73.655       27.337        0.138      341.629       16.473      862.041
10/22/2014  21:11:00       -4.315      -70.935        1.474       36.461       44.203       40.841     1329.417     1953.875     1668.011        0.500        0.248       71.066       25.259        0.126      341.531       16.308      862.063
10/22/2014  21:12:00        1.195        9.285       19.466       25.502       17.937       18.633      650.344      321.731      347.189        0.089        0.066        9.362       11.562        1.525      341.279       15.882      862.035
10/22/2014  21:13:00      -65.294      -10.391       -9.549       62.399       62.129       26.416     3893.680     3860.056      697.818        0.646        0.423       66.116       21.135        0.102      341.657       16.521      862.008
10/22/2014  21:14:00      -66.177      -54.914       20.067       92.446       82.587       46.870     8546.213     6820.688     2196.774        1.268        0.878       85.994       50.310        0.342      341.658       16.522      861.991
10/22/2014  21:15:00     -101.211      -97.569        1.988      116.190       65.035       39.690    13500.086     4229.534     1575.334        1.953        0.965      140.583       41.312        0.086      341.750       16.677      862.000
10/22/2014  21:16:00      -62.663     -148.286      -10.463       90.839       52.326       45.538     8251.669     2738.047     2073.666        1.954        0.653      160.982       26.189        0.026      341.780       16.729      861.969
10/22/2014  21:17:00     -170.124      -22.821      -12.629       56.928       39.570       27.333     3240.757     1565.746      747.079        1.759        0.278      171.647       11.798        0.005      341.766       16.706      861.955
10/22/2014  21:18:00      -34.275      -68.933        5.658       94.369       48.496       42.313     8905.451     2351.899     1790.430        0.950        0.652       76.984       48.154        0.391      341.660       16.527      861.914
10/22/2014  21:19:00     -145.860      -37.176       -3.255       80.563       40.003       29.617     6490.380     1600.254      877.184        1.582        0.448      150.524       38.913        0.067      341.717       16.623      861.955
10/22/2014  21:20:00      -71.929       -5.990       13.793       76.748       68.990       42.638     5890.307     4759.651     1818.030        0.893        0.623       72.178       50.881        0.497      341.625       16.468      861.962
10/22/2014  21:21:00     -135.567      -22.980        1.224      116.726       92.491       51.657    13624.958     8554.502     2668.468        2.187        1.242      137.501       57.925        0.177      341.719       16.625      861.996
10/22/2014  21:22:00     -142.674        5.160       -6.253      112.039       54.465       37.790    12552.693     2966.383     1428.057        1.868        0.847      142.768       37.479        0.069      341.703       16.599      862.028
10/22/2014  21:23:00      -81.538      -25.165       -6.078      105.341       87.034       44.125    11096.773     7574.929     1947.039        1.397        1.031       85.333       49.636        0.338      341.660       16.525      862.044
10/22/2014  21:24:00      -47.657      -54.603       -6.119      126.725       56.703       41.331    16059.282     3215.208     1708.268        1.313        1.049       72.475       30.513        0.177      341.556       16.350      862.081
10/22/2014  21:25:00       36.093     -119.522      -20.941       41.354       71.109       36.615     1710.128     5056.525     1340.671        1.207        0.405      124.853       29.722        0.057      341.445       16.163      862.062
10/22/2014  21:26:00        7.907      -99.910       17.062       53.507       65.037       39.118     2863.019     4229.819     1530.193        0.948        0.431      100.222       20.912        0.044      341.695       16.586      862.109
10/22/2014  21:27:00      -17.602      -31.712       35.591       44.796       48.594       38.517     2006.667     2361.357     1483.597        0.422        0.293       36.269       18.724        0.267      341.276       15.877      862.093
10/22/2014  21:28:00       63.530       -1.302       16.606       46.415       73.103       38.016     2154.387     5344.090     1445.242        0.663        0.447       63.543       33.400        0.276      341.273       15.872      862.106
10/22/2014  21:29:00       68.334      -14.507       15.495       71.428       64.163       41.955     5101.995     4116.948     1760.195        0.805        0.549       69.857       42.432        0.369      341.240       15.816      862.117
10/22/2014  21:30:00       73.376     -134.262        1.725       82.945       83.473       53.125     6879.876     6967.716     2822.313        2.004        0.833      153.005       56.658        0.137      341.652       16.510      862.173
10/22/2014  21:31:00       34.795      -38.143       42.497       64.897      137.021       96.385     4211.586    18774.874     9290.007        1.837        1.614       51.629      105.368        4.165      341.438       16.150      862.229
10/22/2014  21:32:00       40.508       54.475       70.958       50.449       77.419       66.817     2545.118     5993.776     4464.523        1.132        0.650       67.885       69.596        1.051      341.067       15.522      862.235
10/22/2014  21:33:00       39.649        2.537       15.590       31.270       28.892       18.158      977.806      834.721      329.707        0.198        0.107       39.730       11.614        0.085      341.300       15.917      862.265
10/22/2014  21:34:00       53.036       14.504       20.848       37.396       48.922       28.227     1398.466     2393.378      796.737        0.402        0.229       54.984       22.034        0.161      340.992       15.394      862.247
10/22/2014  21:35:00       41.055      -49.822       -1.840       19.877       26.568       20.160      395.085      705.867      406.431        0.284        0.075       64.558        3.800        0.003      340.942       15.311      862.291
10/22/2014  21:36:00       76.160       26.871       19.322       43.892       51.065       40.140     1926.470     2607.587     1611.214        0.652        0.307       80.762       31.839        0.155      340.827       15.117      862.307
10/22/2014  21:37:00       42.685       20.743       28.078       43.123       54.235       36.386     1859.569     2941.395     1323.955        0.458        0.306       47.459       29.971        0.399      340.904       15.248      862.294
10/22/2014  21:38:00       53.548      -64.219       -4.494       39.965       59.045       34.786     1597.189     3486.261     1210.041        0.665        0.315       83.615       26.947        0.104      341.210       15.764      862.311
10/22/2014  21:39:00      -55.163      -76.522      -11.479       59.200       38.019       25.412     3504.692     1445.430      645.778        0.731        0.280       94.333       14.351        0.023      341.645       16.501      862.332
10/22/2014  21:40:00       15.617       -7.494        9.056       17.636       25.235       24.315      311.013      636.798      591.219        0.096        0.077       17.322       12.806        0.547      340.958       15.337      862.331
10/22/2014  21:41:00       35.165       21.407       17.927       26.577       18.517       22.915      706.359      342.896      525.119        0.180        0.079       41.168       20.689        0.253      341.160       15.680      862.342
10/22/2014  21:42:00      133.137       82.601       18.610       53.259       38.030       29.368     2836.514     1446.261      862.455        1.502        0.257      156.680       14.941        0.009      341.255       15.842      862.322
10/22/2014  21:43:00       51.132       20.607       34.802       75.210       45.041       40.656     5656.611     2028.658     1652.875        0.679        0.467       55.128       37.540        0.464      341.242       15.818      862.341
10/22/2014  21:44:00       28.062      -81.541       -6.004       50.171       48.837       29.211     2517.096     2385.095      853.272        0.661        0.288       86.235       24.289        0.079      341.017       15.439      862.383
10/22/2014  21:45:00       65.060      -18.729       16.859       34.650       41.588       35.532     1200.640     1729.550     1262.504        0.453        0.210       67.702       26.209        0.150      340.805       15.080      862.334
10/22/2014  21:46:00       41.323       41.223       20.778       28.993       37.177       26.149      840.589     1382.129      683.755        0.337        0.145       58.369        4.814        0.007      340.778       15.032      862.238
10/22/2014  21:47:00       20.181       26.737        6.678       37.698       26.010       18.749     1421.112      676.535      351.508        0.181        0.122       33.498       18.931        0.319      340.987       15.386      862.209
10/22/2014  21:48:00      -17.839      -47.314       -0.676       29.266       47.069       23.488      856.488     2215.524      551.691        0.309        0.181       50.565       24.004        0.225      340.857       15.168      862.257
10/22/2014  21:49:00        9.236      -96.348       -2.378       45.606       46.002       25.182     2079.917     2116.171      634.142        0.710        0.242       96.789       26.540        0.075      341.340       15.985      862.296
10/22/2014  21:50:00       20.088      -91.053        3.075       43.904       63.119       36.226     1927.529     3984.002     1312.303        0.796        0.361       93.242       33.825        0.132      341.518       16.288      862.308
10/22/2014  21:51:00       11.260       59.177       39.313       46.741       54.182       33.134     2184.766     2935.670     1097.856        0.570        0.311       60.239       16.684        0.077      340.677       14.862      862.259
10/22/2014  21:52:00      -30.614        5.442       16.873       34.465       30.536       38.666     1187.802      932.423     1495.083        0.243        0.181       31.094       20.983        0.455      341.054       15.500      862.249
10/22/2014  21:53:00       -0.654      -28.524       -0.292       31.794       25.608       18.375     1010.861      655.760      337.654        0.141        0.100       28.532        9.215        0.104      341.311       15.937      862.269
10/22/2014  21:54:00       71.181        8.484        2.166       46.360       31.657       33.578     2149.282     1002.175     1127.474        0.471        0.214       71.685       17.628        0.060      340.622       14.770      862.263
10/22/2014  21:55:00       78.834       60.976       19.225       27.586       27.080       30.878      760.989      733.320      953.469        0.637        0.122       99.664       18.184        0.033      340.806       15.081      862.206
10/22/2014  21:56:00       15.688      -34.538       18.904       36.691       39.959       25.434     1346.233     1596.755      646.878        0.269        0.179       37.934       21.538        0.322      340.692       14.888      862.174
10/22/2014  21:57:00       19.887        0.428      -11.822       18.578       27.193       13.592      345.140      739.475      184.752        0.090        0.063       19.891       12.115        0.371      340.824       15.111      862.168
10/22/2014  21:58:00      -30.950       -1.999       -0.279       20.779       20.679       11.146      431.776      427.620      124.232        0.097        0.049       31.014        6.478        0.044      341.227       15.791      862.176
10/22/2014  21:59:00       18.902      -31.757        5.236       31.796       11.877       12.537     1010.993      141.069      157.170        0.135        0.065       36.957        5.420        0.022      341.146       15.656      862.207
10/22/2014  22:00:00       30.444      -14.261       12.805       24.323       15.400       16.478      591.609      237.165      271.512        0.120        0.055       33.619        9.817        0.085      340.874       15.196      862.245
10/22/2014  22:01:00       -8.137       11.989       10.860       14.561        9.766        9.810      212.009       95.368       96.236        0.037        0.020       14.489        6.885        0.226      340.833       15.128      862.267
10/22/2014  22:02:00        9.524        0.279      -10.348       20.399       10.632       10.625      416.123      113.049      112.888        0.042        0.032        9.528        6.152        0.417      341.051       15.496      862.254
10/22/2014  22:03:00       12.693      -22.939        0.422       23.543       19.236       12.144      554.257      370.017      147.481        0.088        0.054       26.216        5.168        0.039      340.970       15.358      862.253
10/22/2014  22:04:00       32.734      -11.178       17.138       37.144       32.276       25.009     1379.704     1041.761      625.451        0.227        0.152       34.589       24.386        0.497      340.519       14.596      862.247
10/22/2014  22:05:00       38.579       -2.079       18.441       45.354       41.343       30.498     2056.966     1709.237      930.112        0.326        0.235       38.635       30.078        0.606      340.376       14.353      862.215
10/22/2014  22:06:00       27.041       18.693       25.890       42.845       43.132       32.239     1835.673     1860.327     1039.378        0.324        0.237       32.873       34.317        1.090      340.411       14.412      862.191
10/22/2014  22:07:00       32.240       -0.818       17.172       45.069       41.697       27.513     2031.203     1738.637      756.980        0.293        0.226       32.251       27.400        0.722      340.485       14.539      862.194
10/22/2014  22:08:00        6.659      -45.828       12.631       46.384       28.369       19.907     2151.431      804.783      396.286        0.283        0.168       46.309       13.296        0.082      341.060       15.512      862.264
10/22/2014  22:09:00      -36.424      -28.433       15.765       50.203       34.105       33.475     2520.365     1163.162     1120.561        0.359        0.240       46.208       26.988        0.341      341.002       15.413      862.378
10/22/2014  22:10:00      -29.126     -140.494       10.178       36.263       65.797       23.305     1315.014     4329.264      543.107        1.344        0.309      143.481       27.866        0.038      341.265       15.858      862.431
10/22/2014  22:11:00      -24.896      -18.188       11.692       46.568       63.592       37.818     2168.555     4043.883     1430.219        0.436        0.382       30.832       23.899        0.601      340.870       15.188      862.397
10/22/2014  22:12:00        9.454       12.530       24.552       19.650       20.781       17.315      386.127      431.835      299.804        0.098        0.056       15.696       13.386        0.727      340.561       14.669      862.397
10/22/2014  22:13:00      -26.503     -101.247        6.816       47.977       38.031       24.725     2301.818     1446.367      611.343        0.768        0.218      104.659       22.872        0.048      341.386       16.065      862.436
10/22/2014  22:14:00        8.760       21.337       12.942       26.088       55.574       22.898      680.571     3088.497      524.310        0.250        0.215       23.065       28.871        1.567      341.060       15.511      862.488
10/22/2014  22:15:00       34.350        6.347       10.808       22.806       22.038       14.421      520.095      485.673      207.976        0.128        0.061       34.932        5.558        0.025      340.644       14.807      862.517
10/22/2014  22:16:00       33.606        9.870       11.471       27.321       11.610        9.496      746.443      134.786       90.179        0.116        0.049       35.025        9.879        0.080      340.549       14.647      862.495
10/22/2014  22:17:00       52.475        1.489       14.362       29.141       14.340       19.964      849.176      205.625      398.568        0.221        0.073       52.496        7.814        0.022      340.685       14.876      862.447
10/22/2014  22:18:00      -39.694      -15.348       -1.083       24.075       14.738        8.504      579.629      217.218       72.312        0.134        0.043       42.558       10.458        0.060      340.857       15.166      862.469
10/22/2014  22:19:00      -55.079        0.187       -2.125       22.893       18.918       13.364      524.087      357.887      178.605        0.205        0.053       55.079       14.006        0.065      340.826       15.116      862.477
10/22/2014  22:20:00      -32.461       -6.933        6.940       31.450       15.659       14.513      989.122      245.192      210.624        0.130        0.072       33.193       16.391        0.244      340.882       15.211      862.431
10/22/2014  22:21:00      -33.788      -46.564        6.233       31.641       39.024       16.661     1001.175     1522.888      277.594        0.307        0.140       57.531        7.819        0.018      341.186       15.723      862.373
10/22/2014  22:22:00        2.723     -102.823        8.583       54.576       40.768       20.884     2978.497     1662.025      436.150        0.786        0.254      102.859       20.035        0.038      341.368       16.033      862.388
10/22/2014  22:23:00      -21.053      -53.868        9.494       42.847       41.816       22.411     1835.865     1748.568      502.274        0.376        0.204       57.836       21.869        0.143      341.188       15.729      862.415
10/22/2014  22:24:00       -3.565      -22.580       13.240       22.460       28.120       14.147      504.459      790.718      200.131        0.110        0.075       22.860       12.779        0.312      340.886       15.218      862.384
10/22/2014  22:25:00        9.491      -51.570       17.589       47.013       39.914       24.361     2210.235     1593.156      593.465        0.373        0.220       52.436       26.189        0.249      341.075       15.538      862.347
10/22/2014  22:26:00      -16.059      -65.824       22.699       46.123       46.915       24.913     2127.310     2200.975      620.648        0.503        0.247       67.755       30.911        0.208      341.013       15.431      862.339
10/22/2014  22:27:00      -68.108      -55.585        7.205       58.698       47.255       29.911     3445.496     2232.994      894.662        0.718        0.329       87.912       37.130        0.178      341.007       15.420      862.368
10/22/2014  22:28:00      -27.232      -56.570       11.076       25.567       33.215       13.401      653.649     1103.215      179.590        0.300        0.097       62.784       11.281        0.032      341.070       15.528      862.368
10/22/2014  22:29:00      -35.345      -95.368       13.560       61.115       65.033       27.134     3735.035     4229.325      736.228        0.961        0.435      101.707       31.301        0.095      341.139       15.645      862.366
10/22/2014  22:30:00      -40.099      -89.224        7.672       37.558       43.279       34.885     1410.631     1873.106     1216.931        0.706        0.225       97.820       14.168        0.021      341.208       15.759      862.340
10/22/2014  22:31:00      -44.149      -34.466        1.949       34.149       33.600       22.248     1166.169     1128.975      494.951        0.297        0.140       56.009       24.442        0.190      341.006       15.420      862.357
10/22/2014  22:32:00      -91.942      -50.172       -6.123       51.687       48.722       22.933     2671.587     2373.822      525.904        0.829        0.279      104.741       22.159        0.045      341.143       15.651      862.362
10/22/2014  22:33:00      -60.711     -137.270       -2.403       18.421       31.927       19.808      339.326     1019.306      392.351        1.214        0.088      150.096       14.375        0.009      341.292       15.905      862.336
10/22/2014  22:34:00      -41.639      -37.456        6.222       14.513       33.516       15.864      210.618     1123.327      251.665        0.238        0.079       56.007       13.206        0.056      341.182       15.718      862.280
10/22/2014  22:35:00      -50.198       27.158       -2.033       24.495       22.214       16.307      599.986      493.452      265.908        0.231        0.068       57.074       15.892        0.078      341.018       15.441      862.226
10/22/2014  22:36:00     -116.129       20.428      -11.893       27.439       24.907       20.916      752.901      620.359      437.474        0.793        0.091      117.912       17.277        0.021      341.220       15.782      862.200
10/22/2014  22:37:00      -40.019      -17.733       -7.224       38.741       32.871       17.620     1500.868     1080.494      310.482        0.243        0.145       43.772       19.005        0.189      341.131       15.632      862.208
10/22/2014  22:38:00       31.932      -39.473       -5.380       17.957       24.785       14.243      322.462      614.320      202.857        0.187        0.057       50.772       11.336        0.050      340.519       14.595      862.228
10/22/2014  22:39:00      -15.820      -37.239       15.763       40.639       44.924       24.896     1651.526     2018.170      619.831        0.309        0.214       40.460       30.982        0.586      340.524       14.605      862.252
10/22/2014  22:40:00      -45.157      -56.310        8.866       71.171       38.191       25.470     5065.300     1458.531      648.740        0.623        0.359       72.180       31.760        0.194      341.016       15.436      862.242
10/22/2014  22:41:00     -165.565      -38.821       -2.879       57.335       52.044       28.039     3287.267     2708.536      786.195        1.785        0.339      170.055       19.656        0.013      341.177       15.708      862.237
10/22/2014  22:42:00     -169.405      -47.221        3.585       60.072       32.054       22.088     3608.586     1027.428      487.862        1.803        0.256      175.864       21.298        0.015      340.927       15.285      862.295
10/22/2014  22:43:00      -80.811      -41.499        6.962       59.650       35.312       22.365     3558.181     1246.929      500.176        0.680        0.265       90.843       28.003        0.095      340.861       15.175      862.337
10/22/2014  22:44:00      -99.017      -31.436        0.348       41.764       31.051       21.641     1744.226      964.160      468.321        0.698        0.159      103.887       19.983        0.037      341.002       15.413      862.350
10/22/2014  22:45:00      -32.026       -1.404        4.522       36.367       30.268       15.439     1322.560      916.146      238.357        0.176        0.124       32.056       18.190        0.322      340.765       15.012      862.320
10/22/2014  22:46:00       21.114       45.469        4.168       15.514       22.115       11.304      240.681      489.085      127.783        0.169        0.043       50.132        9.687        0.037      340.413       14.417      862.276
10/22/2014  22:47:00       11.597       41.512       -8.531       19.534       17.680       11.194      381.588      312.588      125.316        0.137        0.041       43.101       11.158        0.067      340.657       14.829      862.266
10/22/2014  22:48:00       24.098      -16.789       11.464       26.005       23.790       11.693      676.275      565.965      136.721        0.119        0.069       29.370        8.670        0.087      340.052       13.806      862.305
10/22/2014  22:49:00       -8.614       -7.175       16.330       20.318       30.601       14.711      412.817      936.395      216.409        0.098        0.078       11.211       15.553        1.925      340.222       14.094      862.371
10/22/2014  22:50:00      -15.732      -23.389       16.719       29.599       31.877       21.261      876.090     1016.135      452.041        0.171        0.117       28.187       19.634        0.485      340.542       14.636      862.421
10/22/2014  22:51:00      -35.231      -14.820       -5.294       18.950       21.049       30.281      359.117      443.069      916.951        0.160        0.086       38.221       12.742        0.111      340.686       14.877      862.447
10/22/2014  22:52:00      -17.630      -12.161        0.619       19.027       28.077       16.386      362.028      788.310      268.496        0.094        0.071       21.418       17.392        0.659      340.261       14.159      862.432
10/22/2014  22:53:00      -60.039       44.068       -3.129       43.304       33.517       17.551     1875.269     1123.365      308.026        0.443        0.165       74.476       20.746        0.078      340.534       14.621      862.421
10/22/2014  22:54:00      -88.090      -29.668       -5.242       55.181       31.246       22.121     3044.898      976.283      489.330        0.659        0.226       92.952       29.651        0.102      340.845       15.147      862.469
10/22/2014  22:55:00      -74.613      -68.551        6.896       55.718       35.717       24.106     3104.501     1275.726      581.087        0.764        0.248      101.323       28.433        0.079      340.547       14.643      862.548
10/22/2014  22:56:00     -122.845      -92.009       -7.165       54.393       36.279       29.656     2958.623     1316.149      879.478        1.438        0.258      153.481       28.441        0.034      340.905       15.247      862.579
10/22/2014  22:57:00      -57.538      -35.480       -0.596       57.263       32.407       25.390     3279.077     1050.240      644.633        0.477        0.249       67.598       26.261        0.151      340.636       14.794      862.577
10/22/2014  22:58:00     -106.708      -14.168       -5.347       39.606       34.576       18.776     1568.627     1195.531      352.553        0.737        0.156      107.644       13.416        0.016      340.685       14.875      862.527
10/22/2014  22:59:00     -262.346       25.709      -28.031       75.806       81.442       45.712     5746.616     6632.730     2089.633        4.237        0.723      263.603       40.539        0.024      341.161       15.680      862.482
10/22/2014  23:00:00     -219.917      -31.366      -13.262       97.408       53.729       35.927     9488.357     2886.797     1290.717        3.159        0.683      222.143       30.359        0.019      341.024       15.446      862.521
10/22/2014  23:01:00     -209.181       30.146      -23.888       67.404       67.101       35.832     4543.258     4502.517     1283.924        2.778        0.516      211.342       28.765        0.019      341.323       15.953      862.574
10/22/2014  23:02:00      -59.119      -72.647        3.757       66.853       61.491       40.758     4469.343     3781.199     1661.249        0.935        0.496       93.662       40.461        0.187      341.129       15.628      862.598
10/22/2014  23:03:00      -50.593      -49.212       -0.399       55.162       45.522       28.094     3042.877     2072.291      789.274        0.544        0.295       70.580       24.121        0.117      341.150       15.663      862.566
10/22/2014  23:04:00      -18.334        3.706       -0.772       33.487       37.900       20.160     1121.409     1436.403      406.438        0.166        0.148       18.705       22.632        1.464      341.120       15.612      862.507
10/22/2014  23:05:00     -101.041       27.635      -12.846       28.202       24.256       16.105      795.325      588.346      259.368        0.639        0.082      104.752        7.927        0.006      341.117       15.606      862.515
10/22/2014  23:06:00      -77.777      -12.218       -4.070       38.443       34.701       23.072     1477.863     1204.154      532.327        0.471        0.161       78.731       20.205        0.066      340.850       15.155      862.586
10/22/2014  23:07:00     -114.727      -37.585        0.819       52.123       37.064       23.708     2716.820     1373.776      562.064        0.961        0.233      120.727       22.079        0.033      340.643       14.806      862.657
10/22/2014  23:08:00     -115.088      -86.792        0.644       76.811       60.395       36.013     5899.984     3647.578     1296.934        1.581        0.542      144.146       43.353        0.090      340.894       15.230      862.684
10/22/2014  23:09:00     -191.494      -45.635      -16.500       80.917       68.773       43.299     6547.590     4729.687     1874.845        2.609        0.658      196.856       45.276        0.053      341.016       15.434      862.646
10/22/2014  23:10:00     -154.251      -25.342       -3.518       88.829       52.606       27.055     7890.588     2767.440      731.994        1.792        0.570      156.319       26.795        0.029      340.904       15.245      862.631
10/22/2014  23:11:00     -140.803      -43.372       -5.426       41.223       64.388       22.637     1699.360     4145.773      512.432        1.405        0.318      147.332       20.972        0.020      340.799       15.068      862.611
10/22/2014  23:12:00      -78.421      -17.832        3.319       38.396       36.911       21.017     1474.226     1362.441      441.718        0.488        0.164       80.422       20.618        0.066      340.704       14.909      862.594
10/22/2014  23:13:00     -133.106      -50.748        4.356       56.859       33.923       23.055     3232.943     1150.758      531.512        1.261        0.246      142.452       25.793        0.033      340.842       15.141      862.564
10/22/2014  23:14:00      -69.203      -48.853        2.690       55.508       29.336       24.502     3081.192      860.629      600.350        0.586        0.227       84.709       30.446        0.129      340.855       15.164      862.511
10/22/2014  23:15:00      -94.272      -11.087       -3.233       30.996       36.592       18.854      960.726     1338.962      355.486        0.584        0.133       94.922       17.640        0.035      340.790       15.055      862.461
10/22/2014  23:16:00     -117.338      -32.633        6.903       67.522       61.848       36.457     4559.242     3825.160     1329.101        1.230        0.486      121.792       39.781        0.107      340.730       14.951      862.470
10/22/2014  23:17:00     -101.132      -27.290        7.506       70.452       30.665       28.255     4963.510      940.333      798.344        0.886        0.335      104.749       32.944        0.099      340.804       15.077      862.504
10/22/2014  23:18:00      -66.939      -28.195        3.603       49.318       41.522       23.766     2432.305     1724.095      564.829        0.500        0.236       72.635       22.436        0.095      340.877       15.202      862.557
10/22/2014  23:19:00     -134.176      -69.359       -4.333       63.215       61.971       31.109     3996.099     3840.370      967.797        1.582        0.440      151.042       27.663        0.034      340.867       15.184      862.597
10/22/2014  23:20:00     -134.684      -78.363        1.120       64.167       55.617       32.665     4117.420     3093.296     1067.020        1.628        0.414      155.822       38.244        0.060      340.875       15.196      862.598
10/22/2014  23:21:00     -173.477      -39.154      -12.582       57.692       65.805       28.237     3328.330     4330.320      797.329        2.012        0.423      177.840       24.383        0.019      340.974       15.363      862.558
10/22/2014  23:22:00     -160.604      -35.711      -12.568       53.459       64.615       36.246     2857.835     4175.077     1313.788        1.779        0.417      164.526       32.337        0.039      340.941       15.308      862.491
10/22/2014  23:23:00     -190.755      -25.152      -13.398       50.434       57.490       30.101     2543.549     3305.118      906.061        2.198        0.338      192.406       22.138        0.013      340.919       15.271      862.418
10/22/2014  23:24:00      -66.770      -33.726       18.200      104.563       55.284       47.474    10933.367     3056.273     2253.753        1.108        0.812       74.804       57.707        0.595      340.781       15.037      862.375
10/22/2014  23:25:00     -118.145      -70.301      -11.931       62.652       34.608       26.175     3925.247     1197.739      685.149        1.242        0.290      137.479       23.979        0.030      341.009       15.423      862.411
10/22/2014  23:26:00     -102.852     -100.133        1.015       70.559       56.660       36.969     4978.503     3210.302     1366.736        1.508        0.478      143.545       31.499        0.048      340.974       15.362      862.433
10/22/2014  23:27:00       -2.850     -130.632       19.817       28.644       41.169       24.395      820.475     1694.866      595.096        1.029        0.156      130.663       17.279        0.017      341.099       15.578      862.426
10/22/2014  23:28:00      -19.808     -103.962       -9.137       24.123       49.482       19.848      581.912     2448.480      393.940        0.735        0.171      105.832       12.108        0.013      341.004       15.416      862.388
10/22/2014  23:29:00       -8.074        3.711       -3.945       34.028       26.889       24.569     1157.933      723.019      603.635        0.129        0.124        8.886       14.984        2.844      340.652       14.820      862.368
10/22/2014  23:30:00       29.964       -2.482        2.393       24.910       20.715       18.079      620.531      429.128      326.838        0.114        0.069       30.067        7.273        0.059      339.987       13.697      862.354
10/22/2014  23:31:00       18.213      -47.374       -5.463       49.075       28.122       19.074     2408.372      790.844      363.804        0.308        0.178       50.754       10.219        0.041      340.169       14.004      862.357
10/22/2014  23:32:00     -101.499      -21.241       -3.562       57.278       21.576       18.050     3280.825      465.505      325.818        0.742        0.204      103.698       12.280        0.014      340.816       15.099      862.424
10/22/2014  23:33:00      -60.621      -23.345        6.206       47.049       26.355       15.262     2213.602      694.588      232.915        0.370        0.157       64.961       14.153        0.047      340.586       14.708      862.447
10/22/2014  23:34:00      -19.798      -20.762       13.425       36.100       41.803       21.395     1303.243     1747.482      457.766        0.226        0.175       28.688       24.095        0.705      340.325       14.268      862.432
10/22/2014  23:35:00      -54.346      -71.357       -2.875       28.166       24.494       20.352      793.321      599.950      414.219        0.493        0.090       89.695       13.768        0.024      341.102       15.582      862.423
10/22/2014  23:36:00      -97.862     -116.815      -11.752       55.889       40.435       23.787     3123.605     1634.952      565.836        1.434        0.266      152.390       26.246        0.030      340.934       15.297      862.388
10/22/2014  23:37:00       -8.669      -17.543       14.023       48.641       61.556       22.286     2365.933     3789.106      496.664        0.361        0.333       19.568       32.715        2.795      340.731       14.954      862.279
10/22/2014  23:38:00       24.339       -9.070       -8.666       13.908       26.482       14.636      193.433      701.303      214.204        0.093        0.055       25.974        8.722        0.113      340.327       14.272      862.267
10/22/2014  23:39:00       17.910      -38.215       13.667       45.575       25.155       22.941     2077.100      632.759      526.291        0.260        0.162       42.204       17.972        0.181      340.198       14.053      862.322
10/22/2014  23:40:00      -59.292      -97.889       -9.255       34.556       38.906       22.915     1194.129     1513.691      525.103        0.821        0.162      114.446       16.551        0.021      340.700       14.900      862.364
10/22/2014  23:41:00     -102.938      -71.244       -8.767       58.964       38.379       26.930     3476.715     1472.973      725.239        1.071        0.284      125.187       19.420        0.024      340.623       14.771      862.378
10/22/2014  23:42:00      -66.592      -42.914        2.010       55.210       37.997       25.008     3048.151     1443.774      625.418        0.570        0.256       79.221       25.489        0.104      340.464       14.501      862.371
10/22/2014  23:43:00     -121.434      -29.768      -13.923       47.210       37.760       19.765     2228.760     1425.810      390.666        0.994        0.202      125.029        8.438        0.005      340.329       14.274      862.367
10/22/2014  23:44:00      -65.910      -47.140       -4.651       44.973       43.250       23.126     2022.581     1870.592      534.832        0.551        0.221       81.033       19.584        0.058      340.355       14.316      862.361
10/22/2014  23:45:00      -57.487      -85.553       -1.938       39.817       24.331       13.643     1585.406      592.012      186.130        0.650        0.118      103.073       15.894        0.024      340.472       14.515      862.327
10/22/2014  23:46:00      -69.925      -38.954       -3.730       35.497       19.549       15.295     1260.014      382.164      233.946        0.415        0.094       80.043       10.231        0.016      340.423       14.431      862.294
10/22/2014  23:47:00      -35.128      -78.128        7.545       31.624       26.285       17.910     1000.076      690.887      320.783        0.470        0.101       85.662       20.116        0.055      340.499       14.563      862.248
10/22/2014  23:48:00      -68.096      -77.191       -5.845       41.859       30.143       22.360     1752.182      908.592      499.957        0.689        0.158      102.934       12.849        0.016      340.536       14.625      862.274
10/22/2014  23:49:00     -158.481     -123.969        0.740       84.144       72.980       37.362     7080.288     5326.022     1395.887        2.714        0.690      201.207       37.001        0.034      340.653       14.820      862.297
10/22/2014  23:50:00      -69.629     -150.790        3.595       80.391       53.084       31.794     6462.793     2817.935     1010.889        1.894        0.515      166.090       21.234        0.016      340.879       15.203      862.263
10/22/2014  23:51:00       -0.172      -14.802       17.657       26.866       38.461       14.889      721.771     1479.255      221.685        0.148        0.121       14.803       12.601        0.725      340.425       14.436      862.181
10/22/2014  23:52:00      -15.047       56.233       12.556       30.469       23.247       18.948      928.332      540.423      359.009        0.269        0.091       58.211       15.285        0.069      340.560       14.665      862.141
10/22/2014  23:53:00       14.374        9.568       14.211       44.394       26.289       19.379     1970.830      691.095      375.537        0.177        0.152       17.267       11.051        0.410      340.400       14.395      862.179
10/22/2014  23:54:00       14.021       21.769       23.610       33.716       37.517       37.112     1136.781     1407.492     1377.319        0.257        0.196       25.894       28.776        1.235      339.750       13.297      862.218
10/22/2014  23:55:00       48.632       -7.361       18.177       41.103       43.629       28.837     1689.476     1903.470      831.554        0.359        0.221       49.186       28.006        0.324      339.609       13.060      862.254
10/22/2014  23:56:00        3.517      -21.079       -9.229       26.942       45.698       22.334      725.889     2088.286      498.816        0.193        0.166       21.371       23.895        1.250      339.747       13.294      862.257
10/22/2014  23:57:00      -18.180       23.456       -8.005       17.786       40.288       14.116      316.334     1623.117      199.249        0.154        0.107       29.677       20.516        0.478      340.518       14.593      862.229
10/22/2014  23:58:00       -6.978       44.597       -1.250       16.552       16.912       14.270      273.961      286.023      203.632        0.140        0.038       45.140       10.156        0.051      340.469       14.510      862.217
10/22/2014  23:59:00       12.839       17.360        3.426       19.368       10.745       11.553      375.122      115.445      133.480        0.055        0.031       21.592        8.958        0.172      339.962       13.656      862.247
